<?xml version="1.0" encoding="UTF-8" standalone="no" ?>
<gpx xmlns="http://www.topografix.com/GPX/1/1" xmlns:xsi="http://www.w3.org/2001/XMLSchema-instance" xsi:schemaLocation="http://www.topografix.com/GPX/1/1 http://www.topografix.com/GPX/1/1/gpx.xsd" version="1.1" creator="VisuGPX - https://www.visugpx.com">
  <metadata>
    <name>Beuzec-Douarnenez</name>
    <desc><![CDATA[19 avril 2011]]></desc>
  </metadata>
  <trk>
    <name><![CDATA[J3 Beuzec-Douarnenez]]></name>
    <trkseg>
      <trkpt lat="48.07567" lon="-4.51422">
        <ele>87</ele>
        <time>2011-04-19T06:45:03Z</time>
      </trkpt>
      <trkpt lat="48.07568" lon="-4.51425">
        <ele>87</ele>
        <time>2011-04-19T06:45:23Z</time>
      </trkpt>
      <trkpt lat="48.07565" lon="-4.51416">
        <ele>87</ele>
        <time>2011-04-19T06:45:32Z</time>
      </trkpt>
      <trkpt lat="48.07563" lon="-4.51406">
        <ele>87</ele>
        <time>2011-04-19T06:45:37Z</time>
      </trkpt>
      <trkpt lat="48.07561" lon="-4.51406">
        <ele>87</ele>
        <time>2011-04-19T06:45:41Z</time>
      </trkpt>
      <trkpt lat="48.07551" lon="-4.51396">
        <ele>86</ele>
        <time>2011-04-19T06:45:51Z</time>
      </trkpt>
      <trkpt lat="48.07551" lon="-4.51386">
        <ele>86</ele>
        <time>2011-04-19T06:45:56Z</time>
      </trkpt>
      <trkpt lat="48.07558" lon="-4.51381">
        <ele>87</ele>
        <time>2011-04-19T06:46:00Z</time>
      </trkpt>
      <trkpt lat="48.0756" lon="-4.51378">
        <ele>87</ele>
        <time>2011-04-19T06:46:03Z</time>
      </trkpt>
      <trkpt lat="48.07567" lon="-4.51357">
        <ele>87</ele>
        <time>2011-04-19T06:46:19Z</time>
      </trkpt>
      <trkpt lat="48.07569" lon="-4.51305">
        <ele>88</ele>
        <time>2011-04-19T06:46:40Z</time>
      </trkpt>
      <trkpt lat="48.07567" lon="-4.51291">
        <ele>88</ele>
        <time>2011-04-19T06:46:47Z</time>
      </trkpt>
      <trkpt lat="48.07567" lon="-4.5127">
        <ele>89</ele>
        <time>2011-04-19T06:46:57Z</time>
      </trkpt>
      <trkpt lat="48.07564" lon="-4.5126">
        <ele>89</ele>
        <time>2011-04-19T06:47:01Z</time>
      </trkpt>
      <trkpt lat="48.07565" lon="-4.51245">
        <ele>90</ele>
        <time>2011-04-19T06:47:12Z</time>
      </trkpt>
      <trkpt lat="48.07564" lon="-4.51225">
        <ele>91</ele>
        <time>2011-04-19T06:47:27Z</time>
      </trkpt>
      <trkpt lat="48.07553" lon="-4.51208">
        <ele>90</ele>
        <time>2011-04-19T06:47:47Z</time>
      </trkpt>
      <trkpt lat="48.07554" lon="-4.51194">
        <ele>91</ele>
        <time>2011-04-19T06:48:03Z</time>
      </trkpt>
      <trkpt lat="48.07554" lon="-4.51188">
        <ele>91</ele>
        <time>2011-04-19T06:48:22Z</time>
      </trkpt>
      <trkpt lat="48.07569" lon="-4.51183">
        <ele>91</ele>
        <time>2011-04-19T06:48:36Z</time>
      </trkpt>
      <trkpt lat="48.07591" lon="-4.51212">
        <ele>91</ele>
        <time>2011-04-19T06:48:53Z</time>
      </trkpt>
      <trkpt lat="48.07592" lon="-4.5122">
        <ele>91</ele>
        <time>2011-04-19T06:48:58Z</time>
      </trkpt>
      <trkpt lat="48.07596" lon="-4.5123">
        <ele>91</ele>
        <time>2011-04-19T06:49:03Z</time>
      </trkpt>
      <trkpt lat="48.076" lon="-4.51239">
        <ele>91</ele>
        <time>2011-04-19T06:49:08Z</time>
      </trkpt>
      <trkpt lat="48.07619" lon="-4.51267">
        <ele>89</ele>
        <time>2011-04-19T06:49:29Z</time>
      </trkpt>
      <trkpt lat="48.07637" lon="-4.51284">
        <ele>89</ele>
        <time>2011-04-19T06:49:46Z</time>
      </trkpt>
      <trkpt lat="48.07663" lon="-4.51304">
        <ele>88</ele>
        <time>2011-04-19T06:50:10Z</time>
      </trkpt>
      <trkpt lat="48.07689" lon="-4.51318">
        <ele>86</ele>
        <time>2011-04-19T06:50:31Z</time>
      </trkpt>
      <trkpt lat="48.07719" lon="-4.51331">
        <ele>85</ele>
        <time>2011-04-19T06:50:54Z</time>
      </trkpt>
      <trkpt lat="48.07737" lon="-4.51347">
        <ele>84</ele>
        <time>2011-04-19T06:51:11Z</time>
      </trkpt>
      <trkpt lat="48.07755" lon="-4.51377">
        <ele>82</ele>
        <time>2011-04-19T06:51:33Z</time>
      </trkpt>
      <trkpt lat="48.07756" lon="-4.51381">
        <ele>82</ele>
        <time>2011-04-19T06:51:35Z</time>
      </trkpt>
      <trkpt lat="48.07757" lon="-4.51383">
        <ele>82</ele>
        <time>2011-04-19T06:51:37Z</time>
      </trkpt>
      <trkpt lat="48.07758" lon="-4.51391">
        <ele>82</ele>
        <time>2011-04-19T06:51:41Z</time>
      </trkpt>
      <trkpt lat="48.07765" lon="-4.51426">
        <ele>81</ele>
        <time>2011-04-19T06:52:02Z</time>
      </trkpt>
      <trkpt lat="48.07769" lon="-4.51458">
        <ele>81</ele>
        <time>2011-04-19T06:52:22Z</time>
      </trkpt>
      <trkpt lat="48.07769" lon="-4.51459">
        <ele>81</ele>
        <time>2011-04-19T06:52:28Z</time>
      </trkpt>
      <trkpt lat="48.07762" lon="-4.51492">
        <ele>80</ele>
        <time>2011-04-19T06:52:47Z</time>
      </trkpt>
      <trkpt lat="48.07762" lon="-4.51499">
        <ele>80</ele>
        <time>2011-04-19T06:52:51Z</time>
      </trkpt>
      <trkpt lat="48.07786" lon="-4.51507">
        <ele>80</ele>
        <time>2011-04-19T06:53:10Z</time>
      </trkpt>
      <trkpt lat="48.07813" lon="-4.51513">
        <ele>80</ele>
        <time>2011-04-19T06:53:32Z</time>
      </trkpt>
      <trkpt lat="48.07814" lon="-4.51514">
        <ele>80</ele>
        <time>2011-04-19T06:53:33Z</time>
      </trkpt>
      <trkpt lat="48.07831" lon="-4.51517">
        <ele>80</ele>
        <time>2011-04-19T06:53:50Z</time>
      </trkpt>
      <trkpt lat="48.07859" lon="-4.51524">
        <ele>81</ele>
        <time>2011-04-19T06:54:11Z</time>
      </trkpt>
      <trkpt lat="48.07888" lon="-4.51529">
        <ele>81</ele>
        <time>2011-04-19T06:54:34Z</time>
      </trkpt>
      <trkpt lat="48.07915" lon="-4.51534">
        <ele>82</ele>
        <time>2011-04-19T06:54:57Z</time>
      </trkpt>
      <trkpt lat="48.07942" lon="-4.51541">
        <ele>81</ele>
        <time>2011-04-19T06:55:18Z</time>
      </trkpt>
      <trkpt lat="48.07969" lon="-4.5155">
        <ele>81</ele>
        <time>2011-04-19T06:55:40Z</time>
      </trkpt>
      <trkpt lat="48.08002" lon="-4.51562">
        <ele>80</ele>
        <time>2011-04-19T06:56:06Z</time>
      </trkpt>
      <trkpt lat="48.08033" lon="-4.51579">
        <ele>80</ele>
        <time>2011-04-19T06:56:31Z</time>
      </trkpt>
      <trkpt lat="48.08051" lon="-4.5159">
        <ele>80</ele>
        <time>2011-04-19T06:56:49Z</time>
      </trkpt>
      <trkpt lat="48.08077" lon="-4.51609">
        <ele>80</ele>
        <time>2011-04-19T06:57:12Z</time>
      </trkpt>
      <trkpt lat="48.0808" lon="-4.51613">
        <ele>80</ele>
        <time>2011-04-19T06:57:15Z</time>
      </trkpt>
      <trkpt lat="48.08102" lon="-4.51624">
        <ele>79</ele>
        <time>2011-04-19T06:57:31Z</time>
      </trkpt>
      <trkpt lat="48.08129" lon="-4.51642">
        <ele>79</ele>
        <time>2011-04-19T06:57:54Z</time>
      </trkpt>
      <trkpt lat="48.08155" lon="-4.51659">
        <ele>79</ele>
        <time>2011-04-19T06:58:16Z</time>
      </trkpt>
      <trkpt lat="48.08175" lon="-4.5167">
        <ele>79</ele>
        <time>2011-04-19T06:58:34Z</time>
      </trkpt>
      <trkpt lat="48.08195" lon="-4.51684">
        <ele>78</ele>
        <time>2011-04-19T06:58:52Z</time>
      </trkpt>
      <trkpt lat="48.08216" lon="-4.51698">
        <ele>78</ele>
        <time>2011-04-19T06:59:11Z</time>
      </trkpt>
      <trkpt lat="48.08236" lon="-4.51708">
        <ele>78</ele>
        <time>2011-04-19T06:59:24Z</time>
      </trkpt>
      <trkpt lat="48.0825" lon="-4.51715">
        <ele>78</ele>
        <time>2011-04-19T06:59:37Z</time>
      </trkpt>
      <trkpt lat="48.0827" lon="-4.51734">
        <ele>79</ele>
        <time>2011-04-19T06:59:59Z</time>
      </trkpt>
      <trkpt lat="48.08291" lon="-4.51753">
        <ele>81</ele>
        <time>2011-04-19T07:00:20Z</time>
      </trkpt>
      <trkpt lat="48.08302" lon="-4.51767">
        <ele>81</ele>
        <time>2011-04-19T07:00:33Z</time>
      </trkpt>
      <trkpt lat="48.08321" lon="-4.51782">
        <ele>82</ele>
        <time>2011-04-19T07:00:51Z</time>
      </trkpt>
      <trkpt lat="48.08344" lon="-4.51786">
        <ele>82</ele>
        <time>2011-04-19T07:01:07Z</time>
      </trkpt>
      <trkpt lat="48.08371" lon="-4.51794">
        <ele>82</ele>
        <time>2011-04-19T07:01:24Z</time>
      </trkpt>
      <trkpt lat="48.084" lon="-4.51804">
        <ele>82</ele>
        <time>2011-04-19T07:01:47Z</time>
      </trkpt>
      <trkpt lat="48.08426" lon="-4.51813">
        <ele>81</ele>
        <time>2011-04-19T07:02:09Z</time>
      </trkpt>
      <trkpt lat="48.08459" lon="-4.51828">
        <ele>79</ele>
        <time>2011-04-19T07:02:37Z</time>
      </trkpt>
      <trkpt lat="48.08484" lon="-4.5185">
        <ele>80</ele>
        <time>2011-04-19T07:03:01Z</time>
      </trkpt>
      <trkpt lat="48.08488" lon="-4.51855">
        <ele>80</ele>
        <time>2011-04-19T07:03:05Z</time>
      </trkpt>
      <trkpt lat="48.08491" lon="-4.51857">
        <ele>80</ele>
        <time>2011-04-19T07:03:08Z</time>
      </trkpt>
      <trkpt lat="48.08495" lon="-4.51864">
        <ele>80</ele>
        <time>2011-04-19T07:03:13Z</time>
      </trkpt>
      <trkpt lat="48.08507" lon="-4.51871">
        <ele>76</ele>
        <time>2011-04-19T07:03:24Z</time>
      </trkpt>
      <trkpt lat="48.08528" lon="-4.51864">
        <ele>74</ele>
        <time>2011-04-19T07:03:43Z</time>
      </trkpt>
      <trkpt lat="48.08537" lon="-4.51869">
        <ele>74</ele>
        <time>2011-04-19T07:03:53Z</time>
      </trkpt>
      <trkpt lat="48.08542" lon="-4.51871">
        <ele>74</ele>
        <time>2011-04-19T07:03:58Z</time>
      </trkpt>
      <trkpt lat="48.08569" lon="-4.51869">
        <ele>72</ele>
        <time>2011-04-19T07:04:21Z</time>
      </trkpt>
      <trkpt lat="48.08586" lon="-4.51874">
        <ele>65</ele>
        <time>2011-04-19T07:04:38Z</time>
      </trkpt>
      <trkpt lat="48.086" lon="-4.51881">
        <ele>64</ele>
        <time>2011-04-19T07:04:51Z</time>
      </trkpt>
      <trkpt lat="48.08622" lon="-4.51896">
        <ele>63</ele>
        <time>2011-04-19T07:05:12Z</time>
      </trkpt>
      <trkpt lat="48.08642" lon="-4.51916">
        <ele>61</ele>
        <time>2011-04-19T07:05:33Z</time>
      </trkpt>
      <trkpt lat="48.08652" lon="-4.51924">
        <ele>59</ele>
        <time>2011-04-19T07:05:44Z</time>
      </trkpt>
      <trkpt lat="48.08664" lon="-4.51938">
        <ele>59</ele>
        <time>2011-04-19T07:05:59Z</time>
      </trkpt>
      <trkpt lat="48.08669" lon="-4.51945">
        <ele>49</ele>
        <time>2011-04-19T07:06:07Z</time>
      </trkpt>
      <trkpt lat="48.0868" lon="-4.51956">
        <ele>48</ele>
        <time>2011-04-19T07:06:20Z</time>
      </trkpt>
      <trkpt lat="48.08682" lon="-4.51969">
        <ele>47</ele>
        <time>2011-04-19T07:06:28Z</time>
      </trkpt>
      <trkpt lat="48.08685" lon="-4.51985">
        <ele>47</ele>
        <time>2011-04-19T07:06:39Z</time>
      </trkpt>
      <trkpt lat="48.08687" lon="-4.51986">
        <ele>47</ele>
        <time>2011-04-19T07:06:41Z</time>
      </trkpt>
      <trkpt lat="48.08692" lon="-4.5199">
        <ele>46</ele>
        <time>2011-04-19T07:06:47Z</time>
      </trkpt>
      <trkpt lat="48.08703" lon="-4.52003">
        <ele>38</ele>
        <time>2011-04-19T07:07:05Z</time>
      </trkpt>
      <trkpt lat="48.08707" lon="-4.52013">
        <ele>37</ele>
        <time>2011-04-19T07:07:14Z</time>
      </trkpt>
      <trkpt lat="48.0871" lon="-4.52014">
        <ele>36</ele>
        <time>2011-04-19T07:07:17Z</time>
      </trkpt>
      <trkpt lat="48.08714" lon="-4.52017">
        <ele>35</ele>
        <time>2011-04-19T07:07:21Z</time>
      </trkpt>
      <trkpt lat="48.08718" lon="-4.52018">
        <ele>35</ele>
        <time>2011-04-19T07:07:26Z</time>
      </trkpt>
      <trkpt lat="48.0872" lon="-4.52017">
        <ele>35</ele>
        <time>2011-04-19T07:07:28Z</time>
      </trkpt>
      <trkpt lat="48.08725" lon="-4.5202">
        <ele>34</ele>
        <time>2011-04-19T07:07:33Z</time>
      </trkpt>
      <trkpt lat="48.08745" lon="-4.52038">
        <ele>31</ele>
        <time>2011-04-19T07:07:54Z</time>
      </trkpt>
      <trkpt lat="48.08774" lon="-4.52038">
        <ele>24</ele>
        <time>2011-04-19T07:08:17Z</time>
      </trkpt>
      <trkpt lat="48.08807" lon="-4.52028">
        <ele>24</ele>
        <time>2011-04-19T07:08:47Z</time>
      </trkpt>
      <trkpt lat="48.08823" lon="-4.52015">
        <ele>24</ele>
        <time>2011-04-19T07:09:05Z</time>
      </trkpt>
      <trkpt lat="48.08822" lon="-4.52015">
        <ele>24</ele>
        <time>2011-04-19T07:10:03Z</time>
      </trkpt>
      <trkpt lat="48.0882" lon="-4.52015">
        <ele>24</ele>
        <time>2011-04-19T07:11:02Z</time>
      </trkpt>
      <trkpt lat="48.0882" lon="-4.52013">
        <ele>24</ele>
        <time>2011-04-19T07:11:24Z</time>
      </trkpt>
      <trkpt lat="48.08815" lon="-4.52003">
        <ele>25</ele>
        <time>2011-04-19T07:11:33Z</time>
      </trkpt>
      <trkpt lat="48.08785" lon="-4.51989">
        <ele>29</ele>
        <time>2011-04-19T07:11:58Z</time>
      </trkpt>
      <trkpt lat="48.08768" lon="-4.51964">
        <ele>29</ele>
        <time>2011-04-19T07:12:17Z</time>
      </trkpt>
      <trkpt lat="48.08762" lon="-4.51943">
        <ele>30</ele>
        <time>2011-04-19T07:12:31Z</time>
      </trkpt>
      <trkpt lat="48.08763" lon="-4.51932">
        <ele>31</ele>
        <time>2011-04-19T07:12:36Z</time>
      </trkpt>
      <trkpt lat="48.08765" lon="-4.51924">
        <ele>32</ele>
        <time>2011-04-19T07:12:41Z</time>
      </trkpt>
      <trkpt lat="48.08766" lon="-4.51918">
        <ele>32</ele>
        <time>2011-04-19T07:12:44Z</time>
      </trkpt>
      <trkpt lat="48.08771" lon="-4.51897">
        <ele>28</ele>
        <time>2011-04-19T07:12:56Z</time>
      </trkpt>
      <trkpt lat="48.08778" lon="-4.51864">
        <ele>26</ele>
        <time>2011-04-19T07:13:15Z</time>
      </trkpt>
      <trkpt lat="48.08783" lon="-4.51845">
        <ele>26</ele>
        <time>2011-04-19T07:13:30Z</time>
      </trkpt>
      <trkpt lat="48.08783" lon="-4.51839">
        <ele>26</ele>
        <time>2011-04-19T07:13:34Z</time>
      </trkpt>
      <trkpt lat="48.08782" lon="-4.51819">
        <ele>25</ele>
        <time>2011-04-19T07:13:48Z</time>
      </trkpt>
      <trkpt lat="48.08781" lon="-4.51804">
        <ele>25</ele>
        <time>2011-04-19T07:14:03Z</time>
      </trkpt>
      <trkpt lat="48.0878" lon="-4.51801">
        <ele>25</ele>
        <time>2011-04-19T07:14:07Z</time>
      </trkpt>
      <trkpt lat="48.08775" lon="-4.51788">
        <ele>26</ele>
        <time>2011-04-19T07:14:19Z</time>
      </trkpt>
      <trkpt lat="48.08775" lon="-4.51785">
        <ele>26</ele>
        <time>2011-04-19T07:14:21Z</time>
      </trkpt>
      <trkpt lat="48.08774" lon="-4.51775">
        <ele>26</ele>
        <time>2011-04-19T07:14:27Z</time>
      </trkpt>
      <trkpt lat="48.08773" lon="-4.51769">
        <ele>27</ele>
        <time>2011-04-19T07:14:31Z</time>
      </trkpt>
      <trkpt lat="48.08773" lon="-4.51748">
        <ele>28</ele>
        <time>2011-04-19T07:14:44Z</time>
      </trkpt>
      <trkpt lat="48.08773" lon="-4.51742">
        <ele>27</ele>
        <time>2011-04-19T07:14:47Z</time>
      </trkpt>
      <trkpt lat="48.08779" lon="-4.51714">
        <ele>25</ele>
        <time>2011-04-19T07:15:01Z</time>
      </trkpt>
      <trkpt lat="48.08783" lon="-4.51694">
        <ele>24</ele>
        <time>2011-04-19T07:15:15Z</time>
      </trkpt>
      <trkpt lat="48.08791" lon="-4.51684">
        <ele>23</ele>
        <time>2011-04-19T07:15:22Z</time>
      </trkpt>
      <trkpt lat="48.08791" lon="-4.51678">
        <ele>23</ele>
        <time>2011-04-19T07:15:25Z</time>
      </trkpt>
      <trkpt lat="48.08784" lon="-4.51656">
        <ele>26</ele>
        <time>2011-04-19T07:15:42Z</time>
      </trkpt>
      <trkpt lat="48.0878" lon="-4.51641">
        <ele>27</ele>
        <time>2011-04-19T07:15:52Z</time>
      </trkpt>
      <trkpt lat="48.08777" lon="-4.51613">
        <ele>28</ele>
        <time>2011-04-19T07:16:10Z</time>
      </trkpt>
      <trkpt lat="48.08768" lon="-4.51586">
        <ele>30</ele>
        <time>2011-04-19T07:16:27Z</time>
      </trkpt>
      <trkpt lat="48.08759" lon="-4.51566">
        <ele>34</ele>
        <time>2011-04-19T07:16:42Z</time>
      </trkpt>
      <trkpt lat="48.0876" lon="-4.51555">
        <ele>34</ele>
        <time>2011-04-19T07:17:01Z</time>
      </trkpt>
      <trkpt lat="48.08761" lon="-4.51555">
        <ele>34</ele>
        <time>2011-04-19T07:17:02Z</time>
      </trkpt>
      <trkpt lat="48.08769" lon="-4.51558">
        <ele>34</ele>
        <time>2011-04-19T07:17:09Z</time>
      </trkpt>
      <trkpt lat="48.08786" lon="-4.51572">
        <ele>32</ele>
        <time>2011-04-19T07:17:26Z</time>
      </trkpt>
      <trkpt lat="48.08788" lon="-4.51574">
        <ele>32</ele>
        <time>2011-04-19T07:17:28Z</time>
      </trkpt>
      <trkpt lat="48.08817" lon="-4.51577">
        <ele>27</ele>
        <time>2011-04-19T07:17:43Z</time>
      </trkpt>
      <trkpt lat="48.08844" lon="-4.51601">
        <ele>14</ele>
        <time>2011-04-19T07:18:06Z</time>
      </trkpt>
      <trkpt lat="48.08847" lon="-4.51606">
        <ele>13</ele>
        <time>2011-04-19T07:18:11Z</time>
      </trkpt>
      <trkpt lat="48.0885" lon="-4.5161">
        <ele>12</ele>
        <time>2011-04-19T07:18:15Z</time>
      </trkpt>
      <trkpt lat="48.08853" lon="-4.51612">
        <ele>12</ele>
        <time>2011-04-19T07:18:17Z</time>
      </trkpt>
      <trkpt lat="48.08855" lon="-4.51605">
        <ele>12</ele>
        <time>2011-04-19T07:18:34Z</time>
      </trkpt>
      <trkpt lat="48.08854" lon="-4.51586">
        <ele>14</ele>
        <time>2011-04-19T07:18:50Z</time>
      </trkpt>
      <trkpt lat="48.08851" lon="-4.51579">
        <ele>18</ele>
        <time>2011-04-19T07:18:55Z</time>
      </trkpt>
      <trkpt lat="48.08845" lon="-4.51563">
        <ele>18</ele>
        <time>2011-04-19T07:19:07Z</time>
      </trkpt>
      <trkpt lat="48.08844" lon="-4.5156">
        <ele>18</ele>
        <time>2011-04-19T07:19:09Z</time>
      </trkpt>
      <trkpt lat="48.08855" lon="-4.51544">
        <ele>18</ele>
        <time>2011-04-19T07:19:22Z</time>
      </trkpt>
      <trkpt lat="48.08864" lon="-4.51534">
        <ele>17</ele>
        <time>2011-04-19T07:19:36Z</time>
      </trkpt>
      <trkpt lat="48.08865" lon="-4.51525">
        <ele>18</ele>
        <time>2011-04-19T07:19:57Z</time>
      </trkpt>
      <trkpt lat="48.08865" lon="-4.51521">
        <ele>18</ele>
        <time>2011-04-19T07:20:12Z</time>
      </trkpt>
      <trkpt lat="48.08862" lon="-4.51504">
        <ele>20</ele>
        <time>2011-04-19T07:20:31Z</time>
      </trkpt>
      <trkpt lat="48.0885" lon="-4.5149">
        <ele>25</ele>
        <time>2011-04-19T07:20:53Z</time>
      </trkpt>
      <trkpt lat="48.08844" lon="-4.51486">
        <ele>26</ele>
        <time>2011-04-19T07:21:07Z</time>
      </trkpt>
      <trkpt lat="48.08837" lon="-4.51472">
        <ele>25</ele>
        <time>2011-04-19T07:21:23Z</time>
      </trkpt>
      <trkpt lat="48.08829" lon="-4.51451">
        <ele>40</ele>
        <time>2011-04-19T07:21:45Z</time>
      </trkpt>
      <trkpt lat="48.08829" lon="-4.51436">
        <ele>39</ele>
        <time>2011-04-19T07:21:58Z</time>
      </trkpt>
      <trkpt lat="48.08829" lon="-4.51431">
        <ele>39</ele>
        <time>2011-04-19T07:22:01Z</time>
      </trkpt>
      <trkpt lat="48.08829" lon="-4.51397">
        <ele>43</ele>
        <time>2011-04-19T07:22:19Z</time>
      </trkpt>
      <trkpt lat="48.08832" lon="-4.51356">
        <ele>45</ele>
        <time>2011-04-19T07:22:42Z</time>
      </trkpt>
      <trkpt lat="48.08847" lon="-4.51316">
        <ele>35</ele>
        <time>2011-04-19T07:23:07Z</time>
      </trkpt>
      <trkpt lat="48.08848" lon="-4.51315">
        <ele>34</ele>
        <time>2011-04-19T07:23:08Z</time>
      </trkpt>
      <trkpt lat="48.08862" lon="-4.51291">
        <ele>32</ele>
        <time>2011-04-19T07:23:26Z</time>
      </trkpt>
      <trkpt lat="48.08875" lon="-4.51273">
        <ele>30</ele>
        <time>2011-04-19T07:23:43Z</time>
      </trkpt>
      <trkpt lat="48.08879" lon="-4.5127">
        <ele>29</ele>
        <time>2011-04-19T07:23:48Z</time>
      </trkpt>
      <trkpt lat="48.08883" lon="-4.51264">
        <ele>28</ele>
        <time>2011-04-19T07:23:56Z</time>
      </trkpt>
      <trkpt lat="48.08896" lon="-4.51268">
        <ele>26</ele>
        <time>2011-04-19T07:24:08Z</time>
      </trkpt>
      <trkpt lat="48.08899" lon="-4.51261">
        <ele>25</ele>
        <time>2011-04-19T07:24:17Z</time>
      </trkpt>
      <trkpt lat="48.089" lon="-4.51246">
        <ele>27</ele>
        <time>2011-04-19T07:24:27Z</time>
      </trkpt>
      <trkpt lat="48.089" lon="-4.51243">
        <ele>27</ele>
        <time>2011-04-19T07:24:29Z</time>
      </trkpt>
      <trkpt lat="48.08897" lon="-4.51198">
        <ele>32</ele>
        <time>2011-04-19T07:24:53Z</time>
      </trkpt>
      <trkpt lat="48.08897" lon="-4.51157">
        <ele>32</ele>
        <time>2011-04-19T07:25:16Z</time>
      </trkpt>
      <trkpt lat="48.08898" lon="-4.51149">
        <ele>33</ele>
        <time>2011-04-19T07:25:21Z</time>
      </trkpt>
      <trkpt lat="48.08902" lon="-4.51143">
        <ele>32</ele>
        <time>2011-04-19T07:25:27Z</time>
      </trkpt>
      <trkpt lat="48.0891" lon="-4.5114">
        <ele>32</ele>
        <time>2011-04-19T07:25:37Z</time>
      </trkpt>
      <trkpt lat="48.08914" lon="-4.51134">
        <ele>32</ele>
        <time>2011-04-19T07:25:40Z</time>
      </trkpt>
      <trkpt lat="48.0892" lon="-4.51094">
        <ele>22</ele>
        <time>2011-04-19T07:26:02Z</time>
      </trkpt>
      <trkpt lat="48.08921" lon="-4.5109">
        <ele>22</ele>
        <time>2011-04-19T07:26:04Z</time>
      </trkpt>
      <trkpt lat="48.08922" lon="-4.51083">
        <ele>23</ele>
        <time>2011-04-19T07:26:08Z</time>
      </trkpt>
      <trkpt lat="48.08923" lon="-4.51052">
        <ele>17</ele>
        <time>2011-04-19T07:26:25Z</time>
      </trkpt>
      <trkpt lat="48.08916" lon="-4.51037">
        <ele>23</ele>
        <time>2011-04-19T07:26:35Z</time>
      </trkpt>
      <trkpt lat="48.08893" lon="-4.51022">
        <ele>23</ele>
        <time>2011-04-19T07:26:55Z</time>
      </trkpt>
      <trkpt lat="48.08876" lon="-4.50991">
        <ele>18</ele>
        <time>2011-04-19T07:27:15Z</time>
      </trkpt>
      <trkpt lat="48.0885" lon="-4.50964">
        <ele>21</ele>
        <time>2011-04-19T07:27:40Z</time>
      </trkpt>
      <trkpt lat="48.08841" lon="-4.50943">
        <ele>21</ele>
        <time>2011-04-19T07:27:53Z</time>
      </trkpt>
      <trkpt lat="48.08845" lon="-4.50922">
        <ele>21</ele>
        <time>2011-04-19T07:28:06Z</time>
      </trkpt>
      <trkpt lat="48.08844" lon="-4.50918">
        <ele>22</ele>
        <time>2011-04-19T07:28:09Z</time>
      </trkpt>
      <trkpt lat="48.08855" lon="-4.50893">
        <ele>21</ele>
        <time>2011-04-19T07:28:28Z</time>
      </trkpt>
      <trkpt lat="48.08859" lon="-4.50875">
        <ele>21</ele>
        <time>2011-04-19T07:28:45Z</time>
      </trkpt>
      <trkpt lat="48.08864" lon="-4.50867">
        <ele>21</ele>
        <time>2011-04-19T07:28:57Z</time>
      </trkpt>
      <trkpt lat="48.08867" lon="-4.50868">
        <ele>20</ele>
        <time>2011-04-19T07:29:00Z</time>
      </trkpt>
      <trkpt lat="48.08891" lon="-4.5084">
        <ele>18</ele>
        <time>2011-04-19T07:29:23Z</time>
      </trkpt>
      <trkpt lat="48.08905" lon="-4.50818">
        <ele>20</ele>
        <time>2011-04-19T07:29:41Z</time>
      </trkpt>
      <trkpt lat="48.08915" lon="-4.50779">
        <ele>23</ele>
        <time>2011-04-19T07:30:02Z</time>
      </trkpt>
      <trkpt lat="48.0892" lon="-4.50747">
        <ele>18</ele>
        <time>2011-04-19T07:30:21Z</time>
      </trkpt>
      <trkpt lat="48.089" lon="-4.50729">
        <ele>22</ele>
        <time>2011-04-19T07:30:42Z</time>
      </trkpt>
      <trkpt lat="48.08895" lon="-4.50723">
        <ele>23</ele>
        <time>2011-04-19T07:30:48Z</time>
      </trkpt>
      <trkpt lat="48.08893" lon="-4.50719">
        <ele>23</ele>
        <time>2011-04-19T07:30:51Z</time>
      </trkpt>
      <trkpt lat="48.08887" lon="-4.50718">
        <ele>23</ele>
        <time>2011-04-19T07:30:57Z</time>
      </trkpt>
      <trkpt lat="48.08865" lon="-4.50703">
        <ele>25</ele>
        <time>2011-04-19T07:31:20Z</time>
      </trkpt>
      <trkpt lat="48.08852" lon="-4.50687">
        <ele>27</ele>
        <time>2011-04-19T07:31:39Z</time>
      </trkpt>
      <trkpt lat="48.0885" lon="-4.50682">
        <ele>27</ele>
        <time>2011-04-19T07:31:43Z</time>
      </trkpt>
      <trkpt lat="48.08852" lon="-4.50654">
        <ele>22</ele>
        <time>2011-04-19T07:32:01Z</time>
      </trkpt>
      <trkpt lat="48.08849" lon="-4.50619">
        <ele>18</ele>
        <time>2011-04-19T07:32:21Z</time>
      </trkpt>
      <trkpt lat="48.08839" lon="-4.50616">
        <ele>19</ele>
        <time>2011-04-19T07:32:33Z</time>
      </trkpt>
      <trkpt lat="48.08818" lon="-4.50605">
        <ele>33</ele>
        <time>2011-04-19T07:32:55Z</time>
      </trkpt>
      <trkpt lat="48.08801" lon="-4.50588">
        <ele>35</ele>
        <time>2011-04-19T07:33:16Z</time>
      </trkpt>
      <trkpt lat="48.08784" lon="-4.50575">
        <ele>36</ele>
        <time>2011-04-19T07:33:37Z</time>
      </trkpt>
      <trkpt lat="48.08775" lon="-4.50544">
        <ele>36</ele>
        <time>2011-04-19T07:33:59Z</time>
      </trkpt>
      <trkpt lat="48.08778" lon="-4.50505">
        <ele>36</ele>
        <time>2011-04-19T07:34:20Z</time>
      </trkpt>
      <trkpt lat="48.08778" lon="-4.50467">
        <ele>31</ele>
        <time>2011-04-19T07:34:38Z</time>
      </trkpt>
      <trkpt lat="48.08775" lon="-4.5043">
        <ele>32</ele>
        <time>2011-04-19T07:34:57Z</time>
      </trkpt>
      <trkpt lat="48.08772" lon="-4.504">
        <ele>33</ele>
        <time>2011-04-19T07:35:13Z</time>
      </trkpt>
      <trkpt lat="48.08777" lon="-4.50362">
        <ele>31</ele>
        <time>2011-04-19T07:35:34Z</time>
      </trkpt>
      <trkpt lat="48.0878" lon="-4.50344">
        <ele>31</ele>
        <time>2011-04-19T07:35:45Z</time>
      </trkpt>
      <trkpt lat="48.08779" lon="-4.50313">
        <ele>34</ele>
        <time>2011-04-19T07:36:01Z</time>
      </trkpt>
      <trkpt lat="48.0878" lon="-4.50283">
        <ele>34</ele>
        <time>2011-04-19T07:36:21Z</time>
      </trkpt>
      <trkpt lat="48.0878" lon="-4.50282">
        <ele>34</ele>
        <time>2011-04-19T07:36:39Z</time>
      </trkpt>
      <trkpt lat="48.0878" lon="-4.50282">
        <ele>34</ele>
        <time>2011-04-19T07:37:27Z</time>
      </trkpt>
      <trkpt lat="48.0878" lon="-4.50282">
        <ele>34</ele>
        <time>2011-04-19T07:38:25Z</time>
      </trkpt>
      <trkpt lat="48.08779" lon="-4.50283">
        <ele>34</ele>
        <time>2011-04-19T07:39:12Z</time>
      </trkpt>
      <trkpt lat="48.0878" lon="-4.5029">
        <ele>34</ele>
        <time>2011-04-19T07:39:28Z</time>
      </trkpt>
      <trkpt lat="48.08779" lon="-4.50282">
        <ele>34</ele>
        <time>2011-04-19T07:40:00Z</time>
      </trkpt>
      <trkpt lat="48.08779" lon="-4.50281">
        <ele>34</ele>
        <time>2011-04-19T07:40:45Z</time>
      </trkpt>
      <trkpt lat="48.08782" lon="-4.50276">
        <ele>34</ele>
        <time>2011-04-19T07:41:02Z</time>
      </trkpt>
      <trkpt lat="48.08793" lon="-4.50263">
        <ele>33</ele>
        <time>2011-04-19T07:41:17Z</time>
      </trkpt>
      <trkpt lat="48.08802" lon="-4.50259">
        <ele>32</ele>
        <time>2011-04-19T07:41:31Z</time>
      </trkpt>
      <trkpt lat="48.08823" lon="-4.50252">
        <ele>30</ele>
        <time>2011-04-19T07:41:49Z</time>
      </trkpt>
      <trkpt lat="48.08835" lon="-4.50243">
        <ele>29</ele>
        <time>2011-04-19T07:42:03Z</time>
      </trkpt>
      <trkpt lat="48.08838" lon="-4.50244">
        <ele>29</ele>
        <time>2011-04-19T07:42:08Z</time>
      </trkpt>
      <trkpt lat="48.08863" lon="-4.50244">
        <ele>30</ele>
        <time>2011-04-19T07:42:28Z</time>
      </trkpt>
      <trkpt lat="48.08879" lon="-4.5025">
        <ele>29</ele>
        <time>2011-04-19T07:42:42Z</time>
      </trkpt>
      <trkpt lat="48.08899" lon="-4.5027">
        <ele>21</ele>
        <time>2011-04-19T07:43:00Z</time>
      </trkpt>
      <trkpt lat="48.08924" lon="-4.50292">
        <ele>14</ele>
        <time>2011-04-19T07:43:22Z</time>
      </trkpt>
      <trkpt lat="48.08939" lon="-4.50295">
        <ele>13</ele>
        <time>2011-04-19T07:43:32Z</time>
      </trkpt>
      <trkpt lat="48.0894" lon="-4.50287">
        <ele>13</ele>
        <time>2011-04-19T07:43:37Z</time>
      </trkpt>
      <trkpt lat="48.08941" lon="-4.5028">
        <ele>14</ele>
        <time>2011-04-19T07:43:42Z</time>
      </trkpt>
      <trkpt lat="48.08941" lon="-4.50256">
        <ele>17</ele>
        <time>2011-04-19T07:43:56Z</time>
      </trkpt>
      <trkpt lat="48.08944" lon="-4.5025">
        <ele>16</ele>
        <time>2011-04-19T07:44:00Z</time>
      </trkpt>
      <trkpt lat="48.08946" lon="-4.5024">
        <ele>22</ele>
        <time>2011-04-19T07:44:06Z</time>
      </trkpt>
      <trkpt lat="48.08948" lon="-4.50227">
        <ele>22</ele>
        <time>2011-04-19T07:44:13Z</time>
      </trkpt>
      <trkpt lat="48.08949" lon="-4.50222">
        <ele>22</ele>
        <time>2011-04-19T07:44:16Z</time>
      </trkpt>
      <trkpt lat="48.08959" lon="-4.5021">
        <ele>21</ele>
        <time>2011-04-19T07:44:29Z</time>
      </trkpt>
      <trkpt lat="48.08978" lon="-4.50194">
        <ele>21</ele>
        <time>2011-04-19T07:44:45Z</time>
      </trkpt>
      <trkpt lat="48.08996" lon="-4.50179">
        <ele>20</ele>
        <time>2011-04-19T07:45:02Z</time>
      </trkpt>
      <trkpt lat="48.09009" lon="-4.50158">
        <ele>16</ele>
        <time>2011-04-19T07:45:20Z</time>
      </trkpt>
      <trkpt lat="48.0902" lon="-4.50127">
        <ele>14</ele>
        <time>2011-04-19T07:45:38Z</time>
      </trkpt>
      <trkpt lat="48.09028" lon="-4.5009">
        <ele>14</ele>
        <time>2011-04-19T07:46:00Z</time>
      </trkpt>
      <trkpt lat="48.09018" lon="-4.50073">
        <ele>14</ele>
        <time>2011-04-19T07:46:15Z</time>
      </trkpt>
      <trkpt lat="48.09009" lon="-4.50075">
        <ele>15</ele>
        <time>2011-04-19T07:46:33Z</time>
      </trkpt>
      <trkpt lat="48.09" lon="-4.50073">
        <ele>16</ele>
        <time>2011-04-19T07:47:11Z</time>
      </trkpt>
      <trkpt lat="48.09" lon="-4.50073">
        <ele>16</ele>
        <time>2011-04-19T07:47:34Z</time>
      </trkpt>
      <trkpt lat="48.08995" lon="-4.50073">
        <ele>18</ele>
        <time>2011-04-19T07:47:38Z</time>
      </trkpt>
      <trkpt lat="48.08986" lon="-4.50073">
        <ele>18</ele>
        <time>2011-04-19T07:47:45Z</time>
      </trkpt>
      <trkpt lat="48.08981" lon="-4.5007">
        <ele>18</ele>
        <time>2011-04-19T07:47:49Z</time>
      </trkpt>
      <trkpt lat="48.08952" lon="-4.50058">
        <ele>18</ele>
        <time>2011-04-19T07:48:12Z</time>
      </trkpt>
      <trkpt lat="48.08941" lon="-4.5003">
        <ele>16</ele>
        <time>2011-04-19T07:48:29Z</time>
      </trkpt>
      <trkpt lat="48.08917" lon="-4.50022">
        <ele>16</ele>
        <time>2011-04-19T07:48:49Z</time>
      </trkpt>
      <trkpt lat="48.08888" lon="-4.50018">
        <ele>26</ele>
        <time>2011-04-19T07:49:13Z</time>
      </trkpt>
      <trkpt lat="48.08884" lon="-4.50018">
        <ele>27</ele>
        <time>2011-04-19T07:49:17Z</time>
      </trkpt>
      <trkpt lat="48.08862" lon="-4.49991">
        <ele>26</ele>
        <time>2011-04-19T07:49:41Z</time>
      </trkpt>
      <trkpt lat="48.08847" lon="-4.49955">
        <ele>24</ele>
        <time>2011-04-19T07:50:02Z</time>
      </trkpt>
      <trkpt lat="48.0883" lon="-4.49926">
        <ele>30</ele>
        <time>2011-04-19T07:50:22Z</time>
      </trkpt>
      <trkpt lat="48.08817" lon="-4.49897">
        <ele>27</ele>
        <time>2011-04-19T07:50:40Z</time>
      </trkpt>
      <trkpt lat="48.08809" lon="-4.49851">
        <ele>24</ele>
        <time>2011-04-19T07:51:03Z</time>
      </trkpt>
      <trkpt lat="48.08795" lon="-4.49826">
        <ele>20</ele>
        <time>2011-04-19T07:51:20Z</time>
      </trkpt>
      <trkpt lat="48.08791" lon="-4.4982">
        <ele>20</ele>
        <time>2011-04-19T07:51:25Z</time>
      </trkpt>
      <trkpt lat="48.08788" lon="-4.49804">
        <ele>20</ele>
        <time>2011-04-19T07:51:40Z</time>
      </trkpt>
      <trkpt lat="48.08792" lon="-4.49797">
        <ele>19</ele>
        <time>2011-04-19T07:51:52Z</time>
      </trkpt>
      <trkpt lat="48.08792" lon="-4.49792">
        <ele>19</ele>
        <time>2011-04-19T07:51:56Z</time>
      </trkpt>
      <trkpt lat="48.08777" lon="-4.49765">
        <ele>19</ele>
        <time>2011-04-19T07:52:15Z</time>
      </trkpt>
      <trkpt lat="48.08764" lon="-4.49762">
        <ele>20</ele>
        <time>2011-04-19T07:52:26Z</time>
      </trkpt>
      <trkpt lat="48.08762" lon="-4.49754">
        <ele>21</ele>
        <time>2011-04-19T07:52:45Z</time>
      </trkpt>
      <trkpt lat="48.08762" lon="-4.4975">
        <ele>21</ele>
        <time>2011-04-19T07:53:14Z</time>
      </trkpt>
      <trkpt lat="48.08762" lon="-4.49749">
        <ele>19</ele>
        <time>2011-04-19T07:53:15Z</time>
      </trkpt>
      <trkpt lat="48.08761" lon="-4.49743">
        <ele>19</ele>
        <time>2011-04-19T07:53:20Z</time>
      </trkpt>
      <trkpt lat="48.0876" lon="-4.49742">
        <ele>19</ele>
        <time>2011-04-19T07:53:22Z</time>
      </trkpt>
      <trkpt lat="48.08759" lon="-4.49725">
        <ele>17</ele>
        <time>2011-04-19T07:53:29Z</time>
      </trkpt>
      <trkpt lat="48.0876" lon="-4.49723">
        <ele>17</ele>
        <time>2011-04-19T07:53:31Z</time>
      </trkpt>
      <trkpt lat="48.08759" lon="-4.49707">
        <ele>17</ele>
        <time>2011-04-19T07:53:47Z</time>
      </trkpt>
      <trkpt lat="48.08759" lon="-4.497">
        <ele>17</ele>
        <time>2011-04-19T07:53:59Z</time>
      </trkpt>
      <trkpt lat="48.08762" lon="-4.49694">
        <ele>17</ele>
        <time>2011-04-19T07:54:18Z</time>
      </trkpt>
      <trkpt lat="48.0877" lon="-4.49679">
        <ele>17</ele>
        <time>2011-04-19T07:54:33Z</time>
      </trkpt>
      <trkpt lat="48.08769" lon="-4.49676">
        <ele>17</ele>
        <time>2011-04-19T07:54:36Z</time>
      </trkpt>
      <trkpt lat="48.08765" lon="-4.49662">
        <ele>19</ele>
        <time>2011-04-19T07:54:50Z</time>
      </trkpt>
      <trkpt lat="48.08766" lon="-4.49659">
        <ele>19</ele>
        <time>2011-04-19T07:54:52Z</time>
      </trkpt>
      <trkpt lat="48.08766" lon="-4.49634">
        <ele>17</ele>
        <time>2011-04-19T07:55:09Z</time>
      </trkpt>
      <trkpt lat="48.08767" lon="-4.49617">
        <ele>16</ele>
        <time>2011-04-19T07:55:20Z</time>
      </trkpt>
      <trkpt lat="48.08765" lon="-4.49611">
        <ele>16</ele>
        <time>2011-04-19T07:55:24Z</time>
      </trkpt>
      <trkpt lat="48.08758" lon="-4.49604">
        <ele>17</ele>
        <time>2011-04-19T07:55:32Z</time>
      </trkpt>
      <trkpt lat="48.08751" lon="-4.49594">
        <ele>17</ele>
        <time>2011-04-19T07:55:40Z</time>
      </trkpt>
      <trkpt lat="48.08746" lon="-4.4956">
        <ele>20</ele>
        <time>2011-04-19T07:55:58Z</time>
      </trkpt>
      <trkpt lat="48.08746" lon="-4.49516">
        <ele>17</ele>
        <time>2011-04-19T07:56:19Z</time>
      </trkpt>
      <trkpt lat="48.08743" lon="-4.49512">
        <ele>17</ele>
        <time>2011-04-19T07:56:23Z</time>
      </trkpt>
      <trkpt lat="48.0874" lon="-4.49508">
        <ele>17</ele>
        <time>2011-04-19T07:56:27Z</time>
      </trkpt>
      <trkpt lat="48.08733" lon="-4.49479">
        <ele>18</ele>
        <time>2011-04-19T07:56:44Z</time>
      </trkpt>
      <trkpt lat="48.08726" lon="-4.49436">
        <ele>18</ele>
        <time>2011-04-19T07:57:07Z</time>
      </trkpt>
      <trkpt lat="48.08733" lon="-4.49417">
        <ele>16</ele>
        <time>2011-04-19T07:57:18Z</time>
      </trkpt>
      <trkpt lat="48.08723" lon="-4.49405">
        <ele>17</ele>
        <time>2011-04-19T07:57:33Z</time>
      </trkpt>
      <trkpt lat="48.08722" lon="-4.49403">
        <ele>18</ele>
        <time>2011-04-19T07:57:35Z</time>
      </trkpt>
      <trkpt lat="48.08722" lon="-4.49369">
        <ele>18</ele>
        <time>2011-04-19T07:57:53Z</time>
      </trkpt>
      <trkpt lat="48.08726" lon="-4.49348">
        <ele>17</ele>
        <time>2011-04-19T07:58:09Z</time>
      </trkpt>
      <trkpt lat="48.08737" lon="-4.49315">
        <ele>12</ele>
        <time>2011-04-19T07:58:31Z</time>
      </trkpt>
      <trkpt lat="48.08726" lon="-4.49282">
        <ele>11</ele>
        <time>2011-04-19T07:58:53Z</time>
      </trkpt>
      <trkpt lat="48.08716" lon="-4.49286">
        <ele>12</ele>
        <time>2011-04-19T07:59:06Z</time>
      </trkpt>
      <trkpt lat="48.08699" lon="-4.49297">
        <ele>14</ele>
        <time>2011-04-19T07:59:23Z</time>
      </trkpt>
      <trkpt lat="48.08687" lon="-4.49306">
        <ele>15</ele>
        <time>2011-04-19T07:59:40Z</time>
      </trkpt>
      <trkpt lat="48.08676" lon="-4.49308">
        <ele>17</ele>
        <time>2011-04-19T07:59:53Z</time>
      </trkpt>
      <trkpt lat="48.08674" lon="-4.49307">
        <ele>17</ele>
        <time>2011-04-19T07:59:55Z</time>
      </trkpt>
      <trkpt lat="48.08668" lon="-4.49295">
        <ele>15</ele>
        <time>2011-04-19T08:00:13Z</time>
      </trkpt>
      <trkpt lat="48.08667" lon="-4.49292">
        <ele>14</ele>
        <time>2011-04-19T08:00:16Z</time>
      </trkpt>
      <trkpt lat="48.08663" lon="-4.49287">
        <ele>20</ele>
        <time>2011-04-19T08:00:20Z</time>
      </trkpt>
      <trkpt lat="48.08648" lon="-4.49265">
        <ele>18</ele>
        <time>2011-04-19T08:00:39Z</time>
      </trkpt>
      <trkpt lat="48.08639" lon="-4.49247">
        <ele>13</ele>
        <time>2011-04-19T08:00:58Z</time>
      </trkpt>
      <trkpt lat="48.08627" lon="-4.4922">
        <ele>14</ele>
        <time>2011-04-19T08:01:16Z</time>
      </trkpt>
      <trkpt lat="48.0862" lon="-4.492">
        <ele>14</ele>
        <time>2011-04-19T08:01:35Z</time>
      </trkpt>
      <trkpt lat="48.08627" lon="-4.49185">
        <ele>13</ele>
        <time>2011-04-19T08:01:54Z</time>
      </trkpt>
      <trkpt lat="48.08628" lon="-4.49183">
        <ele>13</ele>
        <time>2011-04-19T08:01:56Z</time>
      </trkpt>
      <trkpt lat="48.08638" lon="-4.49174">
        <ele>11</ele>
        <time>2011-04-19T08:02:14Z</time>
      </trkpt>
      <trkpt lat="48.08641" lon="-4.49169">
        <ele>11</ele>
        <time>2011-04-19T08:02:33Z</time>
      </trkpt>
      <trkpt lat="48.0864" lon="-4.49174">
        <ele>11</ele>
        <time>2011-04-19T08:02:55Z</time>
      </trkpt>
      <trkpt lat="48.08637" lon="-4.49176">
        <ele>12</ele>
        <time>2011-04-19T08:04:02Z</time>
      </trkpt>
      <trkpt lat="48.08633" lon="-4.49177">
        <ele>12</ele>
        <time>2011-04-19T08:04:32Z</time>
      </trkpt>
      <trkpt lat="48.08616" lon="-4.49187">
        <ele>14</ele>
        <time>2011-04-19T08:04:53Z</time>
      </trkpt>
      <trkpt lat="48.08596" lon="-4.49193">
        <ele>16</ele>
        <time>2011-04-19T08:05:14Z</time>
      </trkpt>
      <trkpt lat="48.08597" lon="-4.49188">
        <ele>16</ele>
        <time>2011-04-19T08:05:29Z</time>
      </trkpt>
      <trkpt lat="48.08599" lon="-4.49183">
        <ele>15</ele>
        <time>2011-04-19T08:05:36Z</time>
      </trkpt>
      <trkpt lat="48.08605" lon="-4.49167">
        <ele>15</ele>
        <time>2011-04-19T08:05:53Z</time>
      </trkpt>
      <trkpt lat="48.08616" lon="-4.49147">
        <ele>15</ele>
        <time>2011-04-19T08:06:14Z</time>
      </trkpt>
      <trkpt lat="48.08622" lon="-4.49135">
        <ele>15</ele>
        <time>2011-04-19T08:06:31Z</time>
      </trkpt>
      <trkpt lat="48.08633" lon="-4.49122">
        <ele>14</ele>
        <time>2011-04-19T08:06:51Z</time>
      </trkpt>
      <trkpt lat="48.08646" lon="-4.49101">
        <ele>14</ele>
        <time>2011-04-19T08:07:10Z</time>
      </trkpt>
      <trkpt lat="48.08661" lon="-4.49078">
        <ele>12</ele>
        <time>2011-04-19T08:07:30Z</time>
      </trkpt>
      <trkpt lat="48.08662" lon="-4.49075">
        <ele>12</ele>
        <time>2011-04-19T08:07:32Z</time>
      </trkpt>
      <trkpt lat="48.08657" lon="-4.49065">
        <ele>14</ele>
        <time>2011-04-19T08:07:51Z</time>
      </trkpt>
      <trkpt lat="48.08649" lon="-4.49052">
        <ele>16</ele>
        <time>2011-04-19T08:08:07Z</time>
      </trkpt>
      <trkpt lat="48.08634" lon="-4.4903">
        <ele>17</ele>
        <time>2011-04-19T08:08:27Z</time>
      </trkpt>
      <trkpt lat="48.08624" lon="-4.49008">
        <ele>19</ele>
        <time>2011-04-19T08:08:41Z</time>
      </trkpt>
      <trkpt lat="48.08625" lon="-4.48978">
        <ele>18</ele>
        <time>2011-04-19T08:09:00Z</time>
      </trkpt>
      <trkpt lat="48.08618" lon="-4.48958">
        <ele>18</ele>
        <time>2011-04-19T08:09:17Z</time>
      </trkpt>
      <trkpt lat="48.08605" lon="-4.48949">
        <ele>20</ele>
        <time>2011-04-19T08:09:37Z</time>
      </trkpt>
      <trkpt lat="48.08595" lon="-4.48936">
        <ele>22</ele>
        <time>2011-04-19T08:09:56Z</time>
      </trkpt>
      <trkpt lat="48.08582" lon="-4.48913">
        <ele>30</ele>
        <time>2011-04-19T08:10:16Z</time>
      </trkpt>
      <trkpt lat="48.08581" lon="-4.48901">
        <ele>31</ele>
        <time>2011-04-19T08:10:24Z</time>
      </trkpt>
      <trkpt lat="48.08601" lon="-4.48847">
        <ele>23</ele>
        <time>2011-04-19T08:10:53Z</time>
      </trkpt>
      <trkpt lat="48.08608" lon="-4.48832">
        <ele>23</ele>
        <time>2011-04-19T08:11:03Z</time>
      </trkpt>
      <trkpt lat="48.08626" lon="-4.48811">
        <ele>20</ele>
        <time>2011-04-19T08:11:22Z</time>
      </trkpt>
      <trkpt lat="48.08641" lon="-4.48802">
        <ele>18</ele>
        <time>2011-04-19T08:11:37Z</time>
      </trkpt>
      <trkpt lat="48.0865" lon="-4.48787">
        <ele>17</ele>
        <time>2011-04-19T08:11:49Z</time>
      </trkpt>
      <trkpt lat="48.08647" lon="-4.48779">
        <ele>17</ele>
        <time>2011-04-19T08:11:54Z</time>
      </trkpt>
      <trkpt lat="48.08645" lon="-4.48771">
        <ele>17</ele>
        <time>2011-04-19T08:12:07Z</time>
      </trkpt>
      <trkpt lat="48.08643" lon="-4.48763">
        <ele>17</ele>
        <time>2011-04-19T08:12:14Z</time>
      </trkpt>
      <trkpt lat="48.08633" lon="-4.48721">
        <ele>18</ele>
        <time>2011-04-19T08:12:37Z</time>
      </trkpt>
      <trkpt lat="48.08624" lon="-4.48687">
        <ele>18</ele>
        <time>2011-04-19T08:12:57Z</time>
      </trkpt>
      <trkpt lat="48.08608" lon="-4.48658">
        <ele>19</ele>
        <time>2011-04-19T08:13:19Z</time>
      </trkpt>
      <trkpt lat="48.08606" lon="-4.48652">
        <ele>19</ele>
        <time>2011-04-19T08:13:32Z</time>
      </trkpt>
      <trkpt lat="48.08606" lon="-4.48652">
        <ele>19</ele>
        <time>2011-04-19T08:13:42Z</time>
      </trkpt>
      <trkpt lat="48.08604" lon="-4.48649">
        <ele>19</ele>
        <time>2011-04-19T08:13:45Z</time>
      </trkpt>
      <trkpt lat="48.08584" lon="-4.48625">
        <ele>18</ele>
        <time>2011-04-19T08:14:05Z</time>
      </trkpt>
      <trkpt lat="48.08582" lon="-4.48619">
        <ele>26</ele>
        <time>2011-04-19T08:14:09Z</time>
      </trkpt>
      <trkpt lat="48.08586" lon="-4.48595">
        <ele>18</ele>
        <time>2011-04-19T08:14:21Z</time>
      </trkpt>
      <trkpt lat="48.08599" lon="-4.48579">
        <ele>19</ele>
        <time>2011-04-19T08:14:38Z</time>
      </trkpt>
      <trkpt lat="48.08626" lon="-4.48594">
        <ele>16</ele>
        <time>2011-04-19T08:15:02Z</time>
      </trkpt>
      <trkpt lat="48.08646" lon="-4.48602">
        <ele>15</ele>
        <time>2011-04-19T08:15:23Z</time>
      </trkpt>
      <trkpt lat="48.08653" lon="-4.48592">
        <ele>14</ele>
        <time>2011-04-19T08:15:41Z</time>
      </trkpt>
      <trkpt lat="48.08654" lon="-4.48585">
        <ele>14</ele>
        <time>2011-04-19T08:15:57Z</time>
      </trkpt>
      <trkpt lat="48.08651" lon="-4.48584">
        <ele>14</ele>
        <time>2011-04-19T08:16:12Z</time>
      </trkpt>
      <trkpt lat="48.08653" lon="-4.48583">
        <ele>15</ele>
        <time>2011-04-19T08:16:15Z</time>
      </trkpt>
      <trkpt lat="48.08658" lon="-4.48566">
        <ele>16</ele>
        <time>2011-04-19T08:16:31Z</time>
      </trkpt>
      <trkpt lat="48.08669" lon="-4.48551">
        <ele>15</ele>
        <time>2011-04-19T08:16:50Z</time>
      </trkpt>
      <trkpt lat="48.08668" lon="-4.48552">
        <ele>15</ele>
        <time>2011-04-19T08:17:02Z</time>
      </trkpt>
      <trkpt lat="48.08687" lon="-4.48553">
        <ele>16</ele>
        <time>2011-04-19T08:17:24Z</time>
      </trkpt>
      <trkpt lat="48.08699" lon="-4.48555">
        <ele>16</ele>
        <time>2011-04-19T08:17:44Z</time>
      </trkpt>
      <trkpt lat="48.087" lon="-4.48556">
        <ele>16</ele>
        <time>2011-04-19T08:17:46Z</time>
      </trkpt>
      <trkpt lat="48.08713" lon="-4.48576">
        <ele>15</ele>
        <time>2011-04-19T08:18:06Z</time>
      </trkpt>
      <trkpt lat="48.08728" lon="-4.48585">
        <ele>11</ele>
        <time>2011-04-19T08:18:22Z</time>
      </trkpt>
      <trkpt lat="48.08749" lon="-4.48587">
        <ele>12</ele>
        <time>2011-04-19T08:18:42Z</time>
      </trkpt>
      <trkpt lat="48.08764" lon="-4.48577">
        <ele>12</ele>
        <time>2011-04-19T08:19:03Z</time>
      </trkpt>
      <trkpt lat="48.08765" lon="-4.48574">
        <ele>12</ele>
        <time>2011-04-19T08:19:07Z</time>
      </trkpt>
      <trkpt lat="48.08756" lon="-4.4856">
        <ele>12</ele>
        <time>2011-04-19T08:19:24Z</time>
      </trkpt>
      <trkpt lat="48.08751" lon="-4.48544">
        <ele>13</ele>
        <time>2011-04-19T08:19:42Z</time>
      </trkpt>
      <trkpt lat="48.08747" lon="-4.48538">
        <ele>17</ele>
        <time>2011-04-19T08:19:48Z</time>
      </trkpt>
      <trkpt lat="48.08743" lon="-4.48517">
        <ele>19</ele>
        <time>2011-04-19T08:20:05Z</time>
      </trkpt>
      <trkpt lat="48.08746" lon="-4.4851">
        <ele>20</ele>
        <time>2011-04-19T08:20:23Z</time>
      </trkpt>
      <trkpt lat="48.08758" lon="-4.48469">
        <ele>19</ele>
        <time>2011-04-19T08:20:47Z</time>
      </trkpt>
      <trkpt lat="48.08771" lon="-4.48434">
        <ele>21</ele>
        <time>2011-04-19T08:21:11Z</time>
      </trkpt>
      <trkpt lat="48.08771" lon="-4.48437">
        <ele>20</ele>
        <time>2011-04-19T08:21:31Z</time>
      </trkpt>
      <trkpt lat="48.08776" lon="-4.48427">
        <ele>21</ele>
        <time>2011-04-19T08:21:43Z</time>
      </trkpt>
      <trkpt lat="48.08782" lon="-4.48422">
        <ele>20</ele>
        <time>2011-04-19T08:21:48Z</time>
      </trkpt>
      <trkpt lat="48.08806" lon="-4.48417">
        <ele>17</ele>
        <time>2011-04-19T08:22:08Z</time>
      </trkpt>
      <trkpt lat="48.08822" lon="-4.48406">
        <ele>20</ele>
        <time>2011-04-19T08:22:22Z</time>
      </trkpt>
      <trkpt lat="48.08844" lon="-4.48382">
        <ele>15</ele>
        <time>2011-04-19T08:22:43Z</time>
      </trkpt>
      <trkpt lat="48.08862" lon="-4.48361">
        <ele>16</ele>
        <time>2011-04-19T08:23:02Z</time>
      </trkpt>
      <trkpt lat="48.08871" lon="-4.48331">
        <ele>22</ele>
        <time>2011-04-19T08:23:19Z</time>
      </trkpt>
      <trkpt lat="48.08866" lon="-4.48288">
        <ele>24</ele>
        <time>2011-04-19T08:23:42Z</time>
      </trkpt>
      <trkpt lat="48.0887" lon="-4.48247">
        <ele>31</ele>
        <time>2011-04-19T08:24:05Z</time>
      </trkpt>
      <trkpt lat="48.08872" lon="-4.48239">
        <ele>31</ele>
        <time>2011-04-19T08:24:15Z</time>
      </trkpt>
      <trkpt lat="48.08881" lon="-4.48225">
        <ele>31</ele>
        <time>2011-04-19T08:24:34Z</time>
      </trkpt>
      <trkpt lat="48.08895" lon="-4.48229">
        <ele>29</ele>
        <time>2011-04-19T08:24:49Z</time>
      </trkpt>
      <trkpt lat="48.08918" lon="-4.48253">
        <ele>19</ele>
        <time>2011-04-19T08:25:10Z</time>
      </trkpt>
      <trkpt lat="48.08946" lon="-4.4827">
        <ele>11</ele>
        <time>2011-04-19T08:25:33Z</time>
      </trkpt>
      <trkpt lat="48.08963" lon="-4.4825">
        <ele>10</ele>
        <time>2011-04-19T08:25:51Z</time>
      </trkpt>
      <trkpt lat="48.08974" lon="-4.48217">
        <ele>21</ele>
        <time>2011-04-19T08:26:14Z</time>
      </trkpt>
      <trkpt lat="48.08974" lon="-4.48216">
        <ele>21</ele>
        <time>2011-04-19T08:26:15Z</time>
      </trkpt>
      <trkpt lat="48.08993" lon="-4.48195">
        <ele>24</ele>
        <time>2011-04-19T08:26:36Z</time>
      </trkpt>
      <trkpt lat="48.09013" lon="-4.48189">
        <ele>19</ele>
        <time>2011-04-19T08:26:53Z</time>
      </trkpt>
      <trkpt lat="48.09038" lon="-4.48189">
        <ele>16</ele>
        <time>2011-04-19T08:27:14Z</time>
      </trkpt>
      <trkpt lat="48.09071" lon="-4.48168">
        <ele>15</ele>
        <time>2011-04-19T08:27:38Z</time>
      </trkpt>
      <trkpt lat="48.09087" lon="-4.48151">
        <ele>16</ele>
        <time>2011-04-19T08:27:58Z</time>
      </trkpt>
      <trkpt lat="48.09091" lon="-4.48141">
        <ele>17</ele>
        <time>2011-04-19T08:28:11Z</time>
      </trkpt>
      <trkpt lat="48.09099" lon="-4.48118">
        <ele>19</ele>
        <time>2011-04-19T08:28:31Z</time>
      </trkpt>
      <trkpt lat="48.09109" lon="-4.48107">
        <ele>20</ele>
        <time>2011-04-19T08:28:42Z</time>
      </trkpt>
      <trkpt lat="48.09122" lon="-4.48082">
        <ele>25</ele>
        <time>2011-04-19T08:29:01Z</time>
      </trkpt>
      <trkpt lat="48.09126" lon="-4.48074">
        <ele>25</ele>
        <time>2011-04-19T08:29:06Z</time>
      </trkpt>
      <trkpt lat="48.09132" lon="-4.48058">
        <ele>24</ele>
        <time>2011-04-19T08:29:19Z</time>
      </trkpt>
      <trkpt lat="48.09135" lon="-4.48055">
        <ele>24</ele>
        <time>2011-04-19T08:29:22Z</time>
      </trkpt>
      <trkpt lat="48.09136" lon="-4.48048">
        <ele>24</ele>
        <time>2011-04-19T08:29:31Z</time>
      </trkpt>
      <trkpt lat="48.09139" lon="-4.48018">
        <ele>25</ele>
        <time>2011-04-19T08:29:49Z</time>
      </trkpt>
      <trkpt lat="48.09149" lon="-4.47991">
        <ele>28</ele>
        <time>2011-04-19T08:30:05Z</time>
      </trkpt>
      <trkpt lat="48.09151" lon="-4.47957">
        <ele>32</ele>
        <time>2011-04-19T08:30:23Z</time>
      </trkpt>
      <trkpt lat="48.09167" lon="-4.47926">
        <ele>26</ele>
        <time>2011-04-19T08:30:43Z</time>
      </trkpt>
      <trkpt lat="48.09184" lon="-4.47891">
        <ele>25</ele>
        <time>2011-04-19T08:31:05Z</time>
      </trkpt>
      <trkpt lat="48.09194" lon="-4.47867">
        <ele>25</ele>
        <time>2011-04-19T08:31:21Z</time>
      </trkpt>
      <trkpt lat="48.09196" lon="-4.47855">
        <ele>26</ele>
        <time>2011-04-19T08:31:33Z</time>
      </trkpt>
      <trkpt lat="48.09204" lon="-4.47823">
        <ele>32</ele>
        <time>2011-04-19T08:31:51Z</time>
      </trkpt>
      <trkpt lat="48.09222" lon="-4.47791">
        <ele>29</ele>
        <time>2011-04-19T08:32:13Z</time>
      </trkpt>
      <trkpt lat="48.09232" lon="-4.47758">
        <ele>27</ele>
        <time>2011-04-19T08:32:34Z</time>
      </trkpt>
      <trkpt lat="48.09236" lon="-4.47742">
        <ele>30</ele>
        <time>2011-04-19T08:32:50Z</time>
      </trkpt>
      <trkpt lat="48.09233" lon="-4.47738">
        <ele>32</ele>
        <time>2011-04-19T08:33:23Z</time>
      </trkpt>
      <trkpt lat="48.09235" lon="-4.47722">
        <ele>35</ele>
        <time>2011-04-19T08:33:40Z</time>
      </trkpt>
      <trkpt lat="48.09239" lon="-4.47705">
        <ele>36</ele>
        <time>2011-04-19T08:33:54Z</time>
      </trkpt>
      <trkpt lat="48.09236" lon="-4.47691">
        <ele>37</ele>
        <time>2011-04-19T08:34:02Z</time>
      </trkpt>
      <trkpt lat="48.09235" lon="-4.47685">
        <ele>37</ele>
        <time>2011-04-19T08:34:06Z</time>
      </trkpt>
      <trkpt lat="48.09237" lon="-4.47661">
        <ele>39</ele>
        <time>2011-04-19T08:34:19Z</time>
      </trkpt>
      <trkpt lat="48.09239" lon="-4.47655">
        <ele>40</ele>
        <time>2011-04-19T08:34:23Z</time>
      </trkpt>
      <trkpt lat="48.09237" lon="-4.4763">
        <ele>44</ele>
        <time>2011-04-19T08:34:39Z</time>
      </trkpt>
      <trkpt lat="48.09238" lon="-4.47629">
        <ele>44</ele>
        <time>2011-04-19T08:34:41Z</time>
      </trkpt>
      <trkpt lat="48.09242" lon="-4.47631">
        <ele>44</ele>
        <time>2011-04-19T08:34:46Z</time>
      </trkpt>
      <trkpt lat="48.09247" lon="-4.47635">
        <ele>43</ele>
        <time>2011-04-19T08:34:51Z</time>
      </trkpt>
      <trkpt lat="48.09257" lon="-4.47631">
        <ele>37</ele>
        <time>2011-04-19T08:34:58Z</time>
      </trkpt>
      <trkpt lat="48.09265" lon="-4.47613">
        <ele>39</ele>
        <time>2011-04-19T08:35:12Z</time>
      </trkpt>
      <trkpt lat="48.09271" lon="-4.47616">
        <ele>39</ele>
        <time>2011-04-19T08:35:17Z</time>
      </trkpt>
      <trkpt lat="48.09275" lon="-4.47617">
        <ele>38</ele>
        <time>2011-04-19T08:35:21Z</time>
      </trkpt>
      <trkpt lat="48.09285" lon="-4.47648">
        <ele>36</ele>
        <time>2011-04-19T08:35:42Z</time>
      </trkpt>
      <trkpt lat="48.09324" lon="-4.47662">
        <ele>31</ele>
        <time>2011-04-19T08:36:13Z</time>
      </trkpt>
      <trkpt lat="48.09326" lon="-4.47662">
        <ele>30</ele>
        <time>2011-04-19T08:36:15Z</time>
      </trkpt>
      <trkpt lat="48.09333" lon="-4.47654">
        <ele>31</ele>
        <time>2011-04-19T08:36:30Z</time>
      </trkpt>
      <trkpt lat="48.09341" lon="-4.47656">
        <ele>32</ele>
        <time>2011-04-19T08:36:38Z</time>
      </trkpt>
      <trkpt lat="48.09347" lon="-4.47662">
        <ele>32</ele>
        <time>2011-04-19T08:36:59Z</time>
      </trkpt>
      <trkpt lat="48.09347" lon="-4.47662">
        <ele>32</ele>
        <time>2011-04-19T08:37:00Z</time>
      </trkpt>
      <trkpt lat="48.0936" lon="-4.47674">
        <ele>23</ele>
        <time>2011-04-19T08:37:18Z</time>
      </trkpt>
      <trkpt lat="48.09364" lon="-4.47675">
        <ele>23</ele>
        <time>2011-04-19T08:37:37Z</time>
      </trkpt>
      <trkpt lat="48.09364" lon="-4.47675">
        <ele>23</ele>
        <time>2011-04-19T08:38:32Z</time>
      </trkpt>
      <trkpt lat="48.09368" lon="-4.47674">
        <ele>23</ele>
        <time>2011-04-19T08:39:34Z</time>
      </trkpt>
      <trkpt lat="48.09379" lon="-4.4768">
        <ele>23</ele>
        <time>2011-04-19T08:39:53Z</time>
      </trkpt>
      <trkpt lat="48.09382" lon="-4.47682">
        <ele>23</ele>
        <time>2011-04-19T08:40:19Z</time>
      </trkpt>
      <trkpt lat="48.09383" lon="-4.47681">
        <ele>23</ele>
        <time>2011-04-19T08:40:26Z</time>
      </trkpt>
      <trkpt lat="48.09398" lon="-4.47685">
        <ele>24</ele>
        <time>2011-04-19T08:40:39Z</time>
      </trkpt>
      <trkpt lat="48.09416" lon="-4.47676">
        <ele>29</ele>
        <time>2011-04-19T08:40:58Z</time>
      </trkpt>
      <trkpt lat="48.09424" lon="-4.47671">
        <ele>29</ele>
        <time>2011-04-19T08:41:09Z</time>
      </trkpt>
      <trkpt lat="48.09433" lon="-4.4767">
        <ele>26</ele>
        <time>2011-04-19T08:41:17Z</time>
      </trkpt>
      <trkpt lat="48.09458" lon="-4.47672">
        <ele>22</ele>
        <time>2011-04-19T08:41:37Z</time>
      </trkpt>
      <trkpt lat="48.09468" lon="-4.47675">
        <ele>21</ele>
        <time>2011-04-19T08:41:49Z</time>
      </trkpt>
      <trkpt lat="48.09476" lon="-4.47679">
        <ele>21</ele>
        <time>2011-04-19T08:41:59Z</time>
      </trkpt>
      <trkpt lat="48.09481" lon="-4.47676">
        <ele>21</ele>
        <time>2011-04-19T08:42:03Z</time>
      </trkpt>
      <trkpt lat="48.0951" lon="-4.47651">
        <ele>20</ele>
        <time>2011-04-19T08:42:28Z</time>
      </trkpt>
      <trkpt lat="48.09519" lon="-4.4765">
        <ele>19</ele>
        <time>2011-04-19T08:42:44Z</time>
      </trkpt>
      <trkpt lat="48.09521" lon="-4.47651">
        <ele>18</ele>
        <time>2011-04-19T08:42:48Z</time>
      </trkpt>
      <trkpt lat="48.09524" lon="-4.4764">
        <ele>18</ele>
        <time>2011-04-19T08:43:00Z</time>
      </trkpt>
      <trkpt lat="48.09524" lon="-4.47634">
        <ele>18</ele>
        <time>2011-04-19T08:43:04Z</time>
      </trkpt>
      <trkpt lat="48.09524" lon="-4.47628">
        <ele>19</ele>
        <time>2011-04-19T08:43:08Z</time>
      </trkpt>
      <trkpt lat="48.09524" lon="-4.47618">
        <ele>20</ele>
        <time>2011-04-19T08:43:14Z</time>
      </trkpt>
      <trkpt lat="48.09524" lon="-4.47613">
        <ele>20</ele>
        <time>2011-04-19T08:43:17Z</time>
      </trkpt>
      <trkpt lat="48.09533" lon="-4.47591">
        <ele>20</ele>
        <time>2011-04-19T08:43:36Z</time>
      </trkpt>
      <trkpt lat="48.09535" lon="-4.47586">
        <ele>20</ele>
        <time>2011-04-19T08:43:53Z</time>
      </trkpt>
      <trkpt lat="48.09536" lon="-4.47586">
        <ele>20</ele>
        <time>2011-04-19T08:44:05Z</time>
      </trkpt>
      <trkpt lat="48.09539" lon="-4.47555">
        <ele>19</ele>
        <time>2011-04-19T08:44:21Z</time>
      </trkpt>
      <trkpt lat="48.09525" lon="-4.47519">
        <ele>21</ele>
        <time>2011-04-19T08:44:42Z</time>
      </trkpt>
      <trkpt lat="48.09503" lon="-4.47489">
        <ele>23</ele>
        <time>2011-04-19T08:45:05Z</time>
      </trkpt>
      <trkpt lat="48.09487" lon="-4.47464">
        <ele>33</ele>
        <time>2011-04-19T08:45:25Z</time>
      </trkpt>
      <trkpt lat="48.09477" lon="-4.47428">
        <ele>31</ele>
        <time>2011-04-19T08:45:47Z</time>
      </trkpt>
      <trkpt lat="48.09485" lon="-4.47391">
        <ele>32</ele>
        <time>2011-04-19T08:46:07Z</time>
      </trkpt>
      <trkpt lat="48.09496" lon="-4.47371">
        <ele>32</ele>
        <time>2011-04-19T08:46:22Z</time>
      </trkpt>
      <trkpt lat="48.09519" lon="-4.47346">
        <ele>19</ele>
        <time>2011-04-19T08:46:43Z</time>
      </trkpt>
      <trkpt lat="48.09536" lon="-4.47333">
        <ele>17</ele>
        <time>2011-04-19T08:46:59Z</time>
      </trkpt>
      <trkpt lat="48.09538" lon="-4.47326">
        <ele>17</ele>
        <time>2011-04-19T08:47:03Z</time>
      </trkpt>
      <trkpt lat="48.0954" lon="-4.47316">
        <ele>17</ele>
        <time>2011-04-19T08:47:09Z</time>
      </trkpt>
      <trkpt lat="48.09546" lon="-4.47306">
        <ele>16</ele>
        <time>2011-04-19T08:47:18Z</time>
      </trkpt>
      <trkpt lat="48.09548" lon="-4.47304">
        <ele>15</ele>
        <time>2011-04-19T08:47:21Z</time>
      </trkpt>
      <trkpt lat="48.0955" lon="-4.47296">
        <ele>15</ele>
        <time>2011-04-19T08:47:26Z</time>
      </trkpt>
      <trkpt lat="48.09549" lon="-4.4726">
        <ele>15</ele>
        <time>2011-04-19T08:47:46Z</time>
      </trkpt>
      <trkpt lat="48.09553" lon="-4.47228">
        <ele>16</ele>
        <time>2011-04-19T08:48:04Z</time>
      </trkpt>
      <trkpt lat="48.09547" lon="-4.47197">
        <ele>18</ele>
        <time>2011-04-19T08:48:24Z</time>
      </trkpt>
      <trkpt lat="48.09534" lon="-4.47172">
        <ele>21</ele>
        <time>2011-04-19T08:48:49Z</time>
      </trkpt>
      <trkpt lat="48.09533" lon="-4.47167">
        <ele>23</ele>
        <time>2011-04-19T08:48:54Z</time>
      </trkpt>
      <trkpt lat="48.0954" lon="-4.47134">
        <ele>21</ele>
        <time>2011-04-19T08:49:13Z</time>
      </trkpt>
      <trkpt lat="48.09547" lon="-4.47095">
        <ele>19</ele>
        <time>2011-04-19T08:49:33Z</time>
      </trkpt>
      <trkpt lat="48.09549" lon="-4.4709">
        <ele>19</ele>
        <time>2011-04-19T08:49:36Z</time>
      </trkpt>
      <trkpt lat="48.09552" lon="-4.47088">
        <ele>18</ele>
        <time>2011-04-19T08:49:39Z</time>
      </trkpt>
      <trkpt lat="48.09558" lon="-4.4708">
        <ele>18</ele>
        <time>2011-04-19T08:49:46Z</time>
      </trkpt>
      <trkpt lat="48.09561" lon="-4.47077">
        <ele>17</ele>
        <time>2011-04-19T08:49:50Z</time>
      </trkpt>
      <trkpt lat="48.09572" lon="-4.47053">
        <ele>17</ele>
        <time>2011-04-19T08:50:10Z</time>
      </trkpt>
      <trkpt lat="48.09571" lon="-4.4703">
        <ele>18</ele>
        <time>2011-04-19T08:50:26Z</time>
      </trkpt>
      <trkpt lat="48.09565" lon="-4.47012">
        <ele>18</ele>
        <time>2011-04-19T08:50:43Z</time>
      </trkpt>
      <trkpt lat="48.09561" lon="-4.47001">
        <ele>18</ele>
        <time>2011-04-19T08:50:57Z</time>
      </trkpt>
      <trkpt lat="48.09558" lon="-4.46964">
        <ele>20</ele>
        <time>2011-04-19T08:51:17Z</time>
      </trkpt>
      <trkpt lat="48.09558" lon="-4.46963">
        <ele>20</ele>
        <time>2011-04-19T08:51:18Z</time>
      </trkpt>
      <trkpt lat="48.09554" lon="-4.46934">
        <ele>20</ele>
        <time>2011-04-19T08:51:34Z</time>
      </trkpt>
      <trkpt lat="48.09537" lon="-4.46902">
        <ele>21</ele>
        <time>2011-04-19T08:51:57Z</time>
      </trkpt>
      <trkpt lat="48.09533" lon="-4.46898">
        <ele>22</ele>
        <time>2011-04-19T08:52:02Z</time>
      </trkpt>
      <trkpt lat="48.0953" lon="-4.46888">
        <ele>21</ele>
        <time>2011-04-19T08:52:20Z</time>
      </trkpt>
      <trkpt lat="48.09526" lon="-4.46865">
        <ele>21</ele>
        <time>2011-04-19T08:52:45Z</time>
      </trkpt>
      <trkpt lat="48.09526" lon="-4.46863">
        <ele>21</ele>
        <time>2011-04-19T08:52:46Z</time>
      </trkpt>
      <trkpt lat="48.09528" lon="-4.46831">
        <ele>19</ele>
        <time>2011-04-19T08:53:05Z</time>
      </trkpt>
      <trkpt lat="48.09528" lon="-4.46817">
        <ele>19</ele>
        <time>2011-04-19T08:53:14Z</time>
      </trkpt>
      <trkpt lat="48.09532" lon="-4.46805">
        <ele>18</ele>
        <time>2011-04-19T08:53:22Z</time>
      </trkpt>
      <trkpt lat="48.0954" lon="-4.46782">
        <ele>16</ele>
        <time>2011-04-19T08:53:39Z</time>
      </trkpt>
      <trkpt lat="48.09539" lon="-4.46773">
        <ele>17</ele>
        <time>2011-04-19T08:53:46Z</time>
      </trkpt>
      <trkpt lat="48.09539" lon="-4.46764">
        <ele>17</ele>
        <time>2011-04-19T08:53:51Z</time>
      </trkpt>
      <trkpt lat="48.09541" lon="-4.4674">
        <ele>18</ele>
        <time>2011-04-19T08:54:08Z</time>
      </trkpt>
      <trkpt lat="48.09541" lon="-4.46735">
        <ele>18</ele>
        <time>2011-04-19T08:54:12Z</time>
      </trkpt>
      <trkpt lat="48.09557" lon="-4.46711">
        <ele>16</ele>
        <time>2011-04-19T08:54:33Z</time>
      </trkpt>
      <trkpt lat="48.09562" lon="-4.46702">
        <ele>16</ele>
        <time>2011-04-19T08:54:42Z</time>
      </trkpt>
      <trkpt lat="48.09564" lon="-4.46693">
        <ele>15</ele>
        <time>2011-04-19T08:54:47Z</time>
      </trkpt>
      <trkpt lat="48.0957" lon="-4.46658">
        <ele>16</ele>
        <time>2011-04-19T08:55:08Z</time>
      </trkpt>
      <trkpt lat="48.09569" lon="-4.46654">
        <ele>17</ele>
        <time>2011-04-19T08:55:13Z</time>
      </trkpt>
      <trkpt lat="48.09567" lon="-4.46641">
        <ele>20</ele>
        <time>2011-04-19T08:55:27Z</time>
      </trkpt>
      <trkpt lat="48.09563" lon="-4.46621">
        <ele>23</ele>
        <time>2011-04-19T08:55:43Z</time>
      </trkpt>
      <trkpt lat="48.09564" lon="-4.46617">
        <ele>23</ele>
        <time>2011-04-19T08:55:46Z</time>
      </trkpt>
      <trkpt lat="48.09564" lon="-4.46614">
        <ele>23</ele>
        <time>2011-04-19T08:55:48Z</time>
      </trkpt>
      <trkpt lat="48.09576" lon="-4.46589">
        <ele>22</ele>
        <time>2011-04-19T08:56:11Z</time>
      </trkpt>
      <trkpt lat="48.0958" lon="-4.46584">
        <ele>21</ele>
        <time>2011-04-19T08:56:41Z</time>
      </trkpt>
      <trkpt lat="48.09588" lon="-4.4657">
        <ele>22</ele>
        <time>2011-04-19T08:56:54Z</time>
      </trkpt>
      <trkpt lat="48.09593" lon="-4.46566">
        <ele>22</ele>
        <time>2011-04-19T08:56:58Z</time>
      </trkpt>
      <trkpt lat="48.09617" lon="-4.46553">
        <ele>23</ele>
        <time>2011-04-19T08:57:21Z</time>
      </trkpt>
      <trkpt lat="48.09633" lon="-4.4655">
        <ele>23</ele>
        <time>2011-04-19T08:57:35Z</time>
      </trkpt>
      <trkpt lat="48.09636" lon="-4.46552">
        <ele>23</ele>
        <time>2011-04-19T08:57:38Z</time>
      </trkpt>
      <trkpt lat="48.09656" lon="-4.46557">
        <ele>21</ele>
        <time>2011-04-19T08:57:54Z</time>
      </trkpt>
      <trkpt lat="48.09657" lon="-4.46557">
        <ele>21</ele>
        <time>2011-04-19T08:58:12Z</time>
      </trkpt>
      <trkpt lat="48.09676" lon="-4.4657">
        <ele>20</ele>
        <time>2011-04-19T08:58:33Z</time>
      </trkpt>
      <trkpt lat="48.09682" lon="-4.4658">
        <ele>20</ele>
        <time>2011-04-19T08:58:47Z</time>
      </trkpt>
      <trkpt lat="48.0969" lon="-4.46597">
        <ele>15</ele>
        <time>2011-04-19T08:59:06Z</time>
      </trkpt>
      <trkpt lat="48.09693" lon="-4.46599">
        <ele>15</ele>
        <time>2011-04-19T08:59:11Z</time>
      </trkpt>
      <trkpt lat="48.09699" lon="-4.46617">
        <ele>14</ele>
        <time>2011-04-19T08:59:25Z</time>
      </trkpt>
      <trkpt lat="48.09707" lon="-4.46626">
        <ele>13</ele>
        <time>2011-04-19T08:59:37Z</time>
      </trkpt>
      <trkpt lat="48.09711" lon="-4.46624">
        <ele>14</ele>
        <time>2011-04-19T08:59:42Z</time>
      </trkpt>
      <trkpt lat="48.09719" lon="-4.46617">
        <ele>15</ele>
        <time>2011-04-19T08:59:55Z</time>
      </trkpt>
      <trkpt lat="48.09727" lon="-4.46614">
        <ele>15</ele>
        <time>2011-04-19T09:00:09Z</time>
      </trkpt>
      <trkpt lat="48.09737" lon="-4.46619">
        <ele>15</ele>
        <time>2011-04-19T09:00:29Z</time>
      </trkpt>
      <trkpt lat="48.09737" lon="-4.46618">
        <ele>15</ele>
        <time>2011-04-19T09:00:43Z</time>
      </trkpt>
      <trkpt lat="48.09747" lon="-4.46613">
        <ele>16</ele>
        <time>2011-04-19T09:01:00Z</time>
      </trkpt>
      <trkpt lat="48.09747" lon="-4.46613">
        <ele>16</ele>
        <time>2011-04-19T09:01:20Z</time>
      </trkpt>
      <trkpt lat="48.09746" lon="-4.46614">
        <ele>16</ele>
        <time>2011-04-19T09:11:57Z</time>
      </trkpt>
      <trkpt lat="48.09745" lon="-4.46611">
        <ele>17</ele>
        <time>2011-04-19T09:13:08Z</time>
      </trkpt>
      <trkpt lat="48.09745" lon="-4.4661">
        <ele>17</ele>
        <time>2011-04-19T09:18:59Z</time>
      </trkpt>
      <trkpt lat="48.09745" lon="-4.4661">
        <ele>17</ele>
        <time>2011-04-19T09:19:33Z</time>
      </trkpt>
      <trkpt lat="48.09749" lon="-4.46613">
        <ele>17</ele>
        <time>2011-04-19T09:19:37Z</time>
      </trkpt>
      <trkpt lat="48.09777" lon="-4.46603">
        <ele>17</ele>
        <time>2011-04-19T09:19:59Z</time>
      </trkpt>
      <trkpt lat="48.0978" lon="-4.46603">
        <ele>17</ele>
        <time>2011-04-19T09:20:01Z</time>
      </trkpt>
      <trkpt lat="48.09803" lon="-4.46587">
        <ele>16</ele>
        <time>2011-04-19T09:20:21Z</time>
      </trkpt>
      <trkpt lat="48.09814" lon="-4.46551">
        <ele>25</ele>
        <time>2011-04-19T09:20:41Z</time>
      </trkpt>
      <trkpt lat="48.09825" lon="-4.46514">
        <ele>28</ele>
        <time>2011-04-19T09:21:04Z</time>
      </trkpt>
      <trkpt lat="48.09824" lon="-4.46511">
        <ele>28</ele>
        <time>2011-04-19T09:21:06Z</time>
      </trkpt>
      <trkpt lat="48.09823" lon="-4.46506">
        <ele>28</ele>
        <time>2011-04-19T09:21:09Z</time>
      </trkpt>
      <trkpt lat="48.09821" lon="-4.46485">
        <ele>31</ele>
        <time>2011-04-19T09:21:22Z</time>
      </trkpt>
      <trkpt lat="48.09823" lon="-4.46475">
        <ele>31</ele>
        <time>2011-04-19T09:21:29Z</time>
      </trkpt>
      <trkpt lat="48.09831" lon="-4.46472">
        <ele>31</ele>
        <time>2011-04-19T09:21:37Z</time>
      </trkpt>
      <trkpt lat="48.09837" lon="-4.46474">
        <ele>30</ele>
        <time>2011-04-19T09:21:42Z</time>
      </trkpt>
      <trkpt lat="48.0984" lon="-4.46478">
        <ele>30</ele>
        <time>2011-04-19T09:21:46Z</time>
      </trkpt>
      <trkpt lat="48.09842" lon="-4.46479">
        <ele>30</ele>
        <time>2011-04-19T09:21:48Z</time>
      </trkpt>
      <trkpt lat="48.09845" lon="-4.46474">
        <ele>30</ele>
        <time>2011-04-19T09:21:53Z</time>
      </trkpt>
      <trkpt lat="48.09849" lon="-4.46471">
        <ele>30</ele>
        <time>2011-04-19T09:21:57Z</time>
      </trkpt>
      <trkpt lat="48.09853" lon="-4.46471">
        <ele>30</ele>
        <time>2011-04-19T09:22:01Z</time>
      </trkpt>
      <trkpt lat="48.09863" lon="-4.46472">
        <ele>30</ele>
        <time>2011-04-19T09:22:12Z</time>
      </trkpt>
      <trkpt lat="48.09871" lon="-4.46477">
        <ele>30</ele>
        <time>2011-04-19T09:22:26Z</time>
      </trkpt>
      <trkpt lat="48.0988" lon="-4.4647">
        <ele>30</ele>
        <time>2011-04-19T09:22:43Z</time>
      </trkpt>
      <trkpt lat="48.09881" lon="-4.46464">
        <ele>30</ele>
        <time>2011-04-19T09:22:50Z</time>
      </trkpt>
      <trkpt lat="48.09888" lon="-4.46434">
        <ele>30</ele>
        <time>2011-04-19T09:23:10Z</time>
      </trkpt>
      <trkpt lat="48.09888" lon="-4.46433">
        <ele>30</ele>
        <time>2011-04-19T09:23:11Z</time>
      </trkpt>
      <trkpt lat="48.09883" lon="-4.4642">
        <ele>30</ele>
        <time>2011-04-19T09:23:22Z</time>
      </trkpt>
      <trkpt lat="48.09877" lon="-4.46393">
        <ele>29</ele>
        <time>2011-04-19T09:23:40Z</time>
      </trkpt>
      <trkpt lat="48.09868" lon="-4.4637">
        <ele>28</ele>
        <time>2011-04-19T09:23:55Z</time>
      </trkpt>
      <trkpt lat="48.09865" lon="-4.46362">
        <ele>27</ele>
        <time>2011-04-19T09:24:01Z</time>
      </trkpt>
      <trkpt lat="48.09865" lon="-4.46356">
        <ele>27</ele>
        <time>2011-04-19T09:24:05Z</time>
      </trkpt>
      <trkpt lat="48.09865" lon="-4.46347">
        <ele>27</ele>
        <time>2011-04-19T09:24:10Z</time>
      </trkpt>
      <trkpt lat="48.09856" lon="-4.46318">
        <ele>21</ele>
        <time>2011-04-19T09:24:32Z</time>
      </trkpt>
      <trkpt lat="48.09857" lon="-4.46314">
        <ele>20</ele>
        <time>2011-04-19T09:24:37Z</time>
      </trkpt>
      <trkpt lat="48.09855" lon="-4.46306">
        <ele>20</ele>
        <time>2011-04-19T09:24:50Z</time>
      </trkpt>
      <trkpt lat="48.09852" lon="-4.46303">
        <ele>19</ele>
        <time>2011-04-19T09:24:54Z</time>
      </trkpt>
      <trkpt lat="48.09848" lon="-4.463">
        <ele>19</ele>
        <time>2011-04-19T09:24:58Z</time>
      </trkpt>
      <trkpt lat="48.09842" lon="-4.46288">
        <ele>17</ele>
        <time>2011-04-19T09:25:11Z</time>
      </trkpt>
      <trkpt lat="48.09833" lon="-4.46273">
        <ele>14</ele>
        <time>2011-04-19T09:25:25Z</time>
      </trkpt>
      <trkpt lat="48.09833" lon="-4.46272">
        <ele>16</ele>
        <time>2011-04-19T09:25:26Z</time>
      </trkpt>
      <trkpt lat="48.09832" lon="-4.46268">
        <ele>16</ele>
        <time>2011-04-19T09:25:30Z</time>
      </trkpt>
      <trkpt lat="48.09829" lon="-4.46263">
        <ele>15</ele>
        <time>2011-04-19T09:25:34Z</time>
      </trkpt>
      <trkpt lat="48.09824" lon="-4.46258">
        <ele>14</ele>
        <time>2011-04-19T09:25:38Z</time>
      </trkpt>
      <trkpt lat="48.09815" lon="-4.4625">
        <ele>12</ele>
        <time>2011-04-19T09:25:51Z</time>
      </trkpt>
      <trkpt lat="48.098" lon="-4.46249">
        <ele>14</ele>
        <time>2011-04-19T09:26:03Z</time>
      </trkpt>
      <trkpt lat="48.09783" lon="-4.46248">
        <ele>15</ele>
        <time>2011-04-19T09:26:20Z</time>
      </trkpt>
      <trkpt lat="48.09764" lon="-4.46249">
        <ele>17</ele>
        <time>2011-04-19T09:26:34Z</time>
      </trkpt>
      <trkpt lat="48.09756" lon="-4.46248">
        <ele>18</ele>
        <time>2011-04-19T09:26:46Z</time>
      </trkpt>
      <trkpt lat="48.09739" lon="-4.4625">
        <ele>20</ele>
        <time>2011-04-19T09:26:59Z</time>
      </trkpt>
      <trkpt lat="48.09737" lon="-4.46252">
        <ele>21</ele>
        <time>2011-04-19T09:27:01Z</time>
      </trkpt>
      <trkpt lat="48.09727" lon="-4.46252">
        <ele>21</ele>
        <time>2011-04-19T09:27:14Z</time>
      </trkpt>
      <trkpt lat="48.09711" lon="-4.46248">
        <ele>17</ele>
        <time>2011-04-19T09:27:31Z</time>
      </trkpt>
      <trkpt lat="48.09706" lon="-4.46233">
        <ele>17</ele>
        <time>2011-04-19T09:27:48Z</time>
      </trkpt>
      <trkpt lat="48.09707" lon="-4.46229">
        <ele>17</ele>
        <time>2011-04-19T09:27:52Z</time>
      </trkpt>
      <trkpt lat="48.097" lon="-4.46223">
        <ele>16</ele>
        <time>2011-04-19T09:27:57Z</time>
      </trkpt>
      <trkpt lat="48.09691" lon="-4.46221">
        <ele>16</ele>
        <time>2011-04-19T09:28:08Z</time>
      </trkpt>
      <trkpt lat="48.09692" lon="-4.46218">
        <ele>16</ele>
        <time>2011-04-19T09:28:12Z</time>
      </trkpt>
      <trkpt lat="48.09688" lon="-4.46206">
        <ele>16</ele>
        <time>2011-04-19T09:28:20Z</time>
      </trkpt>
      <trkpt lat="48.09686" lon="-4.462">
        <ele>16</ele>
        <time>2011-04-19T09:28:25Z</time>
      </trkpt>
      <trkpt lat="48.0969" lon="-4.46182">
        <ele>15</ele>
        <time>2011-04-19T09:28:37Z</time>
      </trkpt>
      <trkpt lat="48.09696" lon="-4.46169">
        <ele>15</ele>
        <time>2011-04-19T09:28:47Z</time>
      </trkpt>
      <trkpt lat="48.09701" lon="-4.46161">
        <ele>15</ele>
        <time>2011-04-19T09:28:54Z</time>
      </trkpt>
      <trkpt lat="48.09704" lon="-4.46154">
        <ele>15</ele>
        <time>2011-04-19T09:29:04Z</time>
      </trkpt>
      <trkpt lat="48.09705" lon="-4.46142">
        <ele>15</ele>
        <time>2011-04-19T09:29:17Z</time>
      </trkpt>
      <trkpt lat="48.09705" lon="-4.46129">
        <ele>15</ele>
        <time>2011-04-19T09:29:30Z</time>
      </trkpt>
      <trkpt lat="48.09705" lon="-4.46118">
        <ele>15</ele>
        <time>2011-04-19T09:29:41Z</time>
      </trkpt>
      <trkpt lat="48.09704" lon="-4.46109">
        <ele>15</ele>
        <time>2011-04-19T09:29:47Z</time>
      </trkpt>
      <trkpt lat="48.09702" lon="-4.46091">
        <ele>15</ele>
        <time>2011-04-19T09:29:56Z</time>
      </trkpt>
      <trkpt lat="48.09702" lon="-4.46083">
        <ele>15</ele>
        <time>2011-04-19T09:30:00Z</time>
      </trkpt>
      <trkpt lat="48.09697" lon="-4.46072">
        <ele>15</ele>
        <time>2011-04-19T09:30:07Z</time>
      </trkpt>
      <trkpt lat="48.09685" lon="-4.46041">
        <ele>13</ele>
        <time>2011-04-19T09:30:26Z</time>
      </trkpt>
      <trkpt lat="48.09668" lon="-4.46016">
        <ele>12</ele>
        <time>2011-04-19T09:30:46Z</time>
      </trkpt>
      <trkpt lat="48.0966" lon="-4.45998">
        <ele>14</ele>
        <time>2011-04-19T09:31:01Z</time>
      </trkpt>
      <trkpt lat="48.09657" lon="-4.45991">
        <ele>16</ele>
        <time>2011-04-19T09:31:07Z</time>
      </trkpt>
      <trkpt lat="48.09646" lon="-4.45971">
        <ele>19</ele>
        <time>2011-04-19T09:31:24Z</time>
      </trkpt>
      <trkpt lat="48.09646" lon="-4.45964">
        <ele>20</ele>
        <time>2011-04-19T09:31:28Z</time>
      </trkpt>
      <trkpt lat="48.09646" lon="-4.45961">
        <ele>20</ele>
        <time>2011-04-19T09:31:30Z</time>
      </trkpt>
      <trkpt lat="48.09647" lon="-4.45957">
        <ele>20</ele>
        <time>2011-04-19T09:31:32Z</time>
      </trkpt>
      <trkpt lat="48.09648" lon="-4.4595">
        <ele>19</ele>
        <time>2011-04-19T09:31:35Z</time>
      </trkpt>
      <trkpt lat="48.09651" lon="-4.45948">
        <ele>19</ele>
        <time>2011-04-19T09:31:38Z</time>
      </trkpt>
      <trkpt lat="48.09658" lon="-4.45946">
        <ele>18</ele>
        <time>2011-04-19T09:31:45Z</time>
      </trkpt>
      <trkpt lat="48.09662" lon="-4.45934">
        <ele>16</ele>
        <time>2011-04-19T09:31:52Z</time>
      </trkpt>
      <trkpt lat="48.09663" lon="-4.45922">
        <ele>12</ele>
        <time>2011-04-19T09:31:58Z</time>
      </trkpt>
      <trkpt lat="48.09665" lon="-4.4591">
        <ele>13</ele>
        <time>2011-04-19T09:32:05Z</time>
      </trkpt>
      <trkpt lat="48.09663" lon="-4.45907">
        <ele>14</ele>
        <time>2011-04-19T09:32:09Z</time>
      </trkpt>
      <trkpt lat="48.0966" lon="-4.45901">
        <ele>16</ele>
        <time>2011-04-19T09:32:13Z</time>
      </trkpt>
      <trkpt lat="48.09661" lon="-4.45896">
        <ele>17</ele>
        <time>2011-04-19T09:32:16Z</time>
      </trkpt>
      <trkpt lat="48.09663" lon="-4.45881">
        <ele>19</ele>
        <time>2011-04-19T09:32:25Z</time>
      </trkpt>
      <trkpt lat="48.09665" lon="-4.45878">
        <ele>19</ele>
        <time>2011-04-19T09:32:27Z</time>
      </trkpt>
      <trkpt lat="48.0967" lon="-4.45866">
        <ele>11</ele>
        <time>2011-04-19T09:32:34Z</time>
      </trkpt>
      <trkpt lat="48.09671" lon="-4.45859">
        <ele>11</ele>
        <time>2011-04-19T09:32:38Z</time>
      </trkpt>
      <trkpt lat="48.0967" lon="-4.45852">
        <ele>11</ele>
        <time>2011-04-19T09:32:43Z</time>
      </trkpt>
      <trkpt lat="48.09665" lon="-4.45846">
        <ele>16</ele>
        <time>2011-04-19T09:32:49Z</time>
      </trkpt>
      <trkpt lat="48.09663" lon="-4.45831">
        <ele>14</ele>
        <time>2011-04-19T09:32:59Z</time>
      </trkpt>
      <trkpt lat="48.09666" lon="-4.45825">
        <ele>15</ele>
        <time>2011-04-19T09:33:03Z</time>
      </trkpt>
      <trkpt lat="48.09684" lon="-4.45802">
        <ele>10</ele>
        <time>2011-04-19T09:33:23Z</time>
      </trkpt>
      <trkpt lat="48.09683" lon="-4.45792">
        <ele>10</ele>
        <time>2011-04-19T09:33:29Z</time>
      </trkpt>
      <trkpt lat="48.09669" lon="-4.45777">
        <ele>9</ele>
        <time>2011-04-19T09:33:44Z</time>
      </trkpt>
      <trkpt lat="48.0966" lon="-4.45767">
        <ele>16</ele>
        <time>2011-04-19T09:33:57Z</time>
      </trkpt>
      <trkpt lat="48.09654" lon="-4.45765">
        <ele>16</ele>
        <time>2011-04-19T09:34:04Z</time>
      </trkpt>
      <trkpt lat="48.09646" lon="-4.4576">
        <ele>18</ele>
        <time>2011-04-19T09:34:14Z</time>
      </trkpt>
      <trkpt lat="48.09637" lon="-4.45749">
        <ele>19</ele>
        <time>2011-04-19T09:34:29Z</time>
      </trkpt>
      <trkpt lat="48.09631" lon="-4.45736">
        <ele>20</ele>
        <time>2011-04-19T09:34:44Z</time>
      </trkpt>
      <trkpt lat="48.09629" lon="-4.45731">
        <ele>21</ele>
        <time>2011-04-19T09:34:55Z</time>
      </trkpt>
      <trkpt lat="48.09629" lon="-4.45728">
        <ele>21</ele>
        <time>2011-04-19T09:34:57Z</time>
      </trkpt>
      <trkpt lat="48.09619" lon="-4.45705">
        <ele>23</ele>
        <time>2011-04-19T09:35:14Z</time>
      </trkpt>
      <trkpt lat="48.09614" lon="-4.4569">
        <ele>24</ele>
        <time>2011-04-19T09:35:27Z</time>
      </trkpt>
      <trkpt lat="48.09614" lon="-4.45674">
        <ele>24</ele>
        <time>2011-04-19T09:35:40Z</time>
      </trkpt>
      <trkpt lat="48.09614" lon="-4.45668">
        <ele>24</ele>
        <time>2011-04-19T09:35:44Z</time>
      </trkpt>
      <trkpt lat="48.09613" lon="-4.45663">
        <ele>27</ele>
        <time>2011-04-19T09:35:48Z</time>
      </trkpt>
      <trkpt lat="48.09612" lon="-4.45659">
        <ele>27</ele>
        <time>2011-04-19T09:35:51Z</time>
      </trkpt>
      <trkpt lat="48.09612" lon="-4.45644">
        <ele>27</ele>
        <time>2011-04-19T09:36:00Z</time>
      </trkpt>
      <trkpt lat="48.09613" lon="-4.45633">
        <ele>27</ele>
        <time>2011-04-19T09:36:07Z</time>
      </trkpt>
      <trkpt lat="48.09617" lon="-4.45623">
        <ele>27</ele>
        <time>2011-04-19T09:36:15Z</time>
      </trkpt>
      <trkpt lat="48.09635" lon="-4.45621">
        <ele>23</ele>
        <time>2011-04-19T09:36:31Z</time>
      </trkpt>
      <trkpt lat="48.09648" lon="-4.45621">
        <ele>21</ele>
        <time>2011-04-19T09:36:46Z</time>
      </trkpt>
      <trkpt lat="48.09652" lon="-4.45622">
        <ele>21</ele>
        <time>2011-04-19T09:36:50Z</time>
      </trkpt>
      <trkpt lat="48.09671" lon="-4.45612">
        <ele>10</ele>
        <time>2011-04-19T09:37:09Z</time>
      </trkpt>
      <trkpt lat="48.09673" lon="-4.45602">
        <ele>11</ele>
        <time>2011-04-19T09:37:15Z</time>
      </trkpt>
      <trkpt lat="48.09669" lon="-4.45582">
        <ele>13</ele>
        <time>2011-04-19T09:37:31Z</time>
      </trkpt>
      <trkpt lat="48.09669" lon="-4.4558">
        <ele>13</ele>
        <time>2011-04-19T09:37:32Z</time>
      </trkpt>
      <trkpt lat="48.09665" lon="-4.45561">
        <ele>24</ele>
        <time>2011-04-19T09:37:44Z</time>
      </trkpt>
      <trkpt lat="48.09663" lon="-4.4554">
        <ele>28</ele>
        <time>2011-04-19T09:38:00Z</time>
      </trkpt>
      <trkpt lat="48.09663" lon="-4.4553">
        <ele>28</ele>
        <time>2011-04-19T09:38:06Z</time>
      </trkpt>
      <trkpt lat="48.09664" lon="-4.45527">
        <ele>28</ele>
        <time>2011-04-19T09:38:08Z</time>
      </trkpt>
      <trkpt lat="48.09667" lon="-4.45516">
        <ele>21</ele>
        <time>2011-04-19T09:38:17Z</time>
      </trkpt>
      <trkpt lat="48.09678" lon="-4.45508">
        <ele>21</ele>
        <time>2011-04-19T09:38:26Z</time>
      </trkpt>
      <trkpt lat="48.09682" lon="-4.45507">
        <ele>21</ele>
        <time>2011-04-19T09:38:30Z</time>
      </trkpt>
      <trkpt lat="48.09695" lon="-4.4549">
        <ele>22</ele>
        <time>2011-04-19T09:38:46Z</time>
      </trkpt>
      <trkpt lat="48.09697" lon="-4.45489">
        <ele>22</ele>
        <time>2011-04-19T09:38:48Z</time>
      </trkpt>
      <trkpt lat="48.09699" lon="-4.45482">
        <ele>22</ele>
        <time>2011-04-19T09:38:52Z</time>
      </trkpt>
      <trkpt lat="48.09706" lon="-4.45444">
        <ele>21</ele>
        <time>2011-04-19T09:39:14Z</time>
      </trkpt>
      <trkpt lat="48.09706" lon="-4.45437">
        <ele>21</ele>
        <time>2011-04-19T09:39:18Z</time>
      </trkpt>
      <trkpt lat="48.09705" lon="-4.45431">
        <ele>21</ele>
        <time>2011-04-19T09:39:22Z</time>
      </trkpt>
      <trkpt lat="48.09703" lon="-4.45418">
        <ele>22</ele>
        <time>2011-04-19T09:39:32Z</time>
      </trkpt>
      <trkpt lat="48.0971" lon="-4.454">
        <ele>21</ele>
        <time>2011-04-19T09:39:47Z</time>
      </trkpt>
      <trkpt lat="48.09712" lon="-4.45398">
        <ele>21</ele>
        <time>2011-04-19T09:39:50Z</time>
      </trkpt>
      <trkpt lat="48.09724" lon="-4.45379">
        <ele>19</ele>
        <time>2011-04-19T09:40:05Z</time>
      </trkpt>
      <trkpt lat="48.09729" lon="-4.45356">
        <ele>19</ele>
        <time>2011-04-19T09:40:17Z</time>
      </trkpt>
      <trkpt lat="48.09729" lon="-4.45351">
        <ele>19</ele>
        <time>2011-04-19T09:40:20Z</time>
      </trkpt>
      <trkpt lat="48.09724" lon="-4.45338">
        <ele>19</ele>
        <time>2011-04-19T09:40:36Z</time>
      </trkpt>
      <trkpt lat="48.09725" lon="-4.4532">
        <ele>24</ele>
        <time>2011-04-19T09:40:54Z</time>
      </trkpt>
      <trkpt lat="48.09733" lon="-4.45303">
        <ele>24</ele>
        <time>2011-04-19T09:41:12Z</time>
      </trkpt>
      <trkpt lat="48.09751" lon="-4.45288">
        <ele>13</ele>
        <time>2011-04-19T09:41:32Z</time>
      </trkpt>
      <trkpt lat="48.09763" lon="-4.4528">
        <ele>14</ele>
        <time>2011-04-19T09:41:48Z</time>
      </trkpt>
      <trkpt lat="48.09764" lon="-4.45279">
        <ele>14</ele>
        <time>2011-04-19T09:41:49Z</time>
      </trkpt>
      <trkpt lat="48.09768" lon="-4.4527">
        <ele>14</ele>
        <time>2011-04-19T09:41:54Z</time>
      </trkpt>
      <trkpt lat="48.09764" lon="-4.45247">
        <ele>18</ele>
        <time>2011-04-19T09:42:13Z</time>
      </trkpt>
      <trkpt lat="48.09761" lon="-4.45239">
        <ele>19</ele>
        <time>2011-04-19T09:42:25Z</time>
      </trkpt>
      <trkpt lat="48.09758" lon="-4.45219">
        <ele>19</ele>
        <time>2011-04-19T09:42:44Z</time>
      </trkpt>
      <trkpt lat="48.09757" lon="-4.45206">
        <ele>20</ele>
        <time>2011-04-19T09:42:59Z</time>
      </trkpt>
      <trkpt lat="48.09758" lon="-4.45192">
        <ele>23</ele>
        <time>2011-04-19T09:43:12Z</time>
      </trkpt>
      <trkpt lat="48.09756" lon="-4.45169">
        <ele>30</ele>
        <time>2011-04-19T09:43:29Z</time>
      </trkpt>
      <trkpt lat="48.09754" lon="-4.45155">
        <ele>30</ele>
        <time>2011-04-19T09:43:39Z</time>
      </trkpt>
      <trkpt lat="48.09765" lon="-4.45144">
        <ele>27</ele>
        <time>2011-04-19T09:43:53Z</time>
      </trkpt>
      <trkpt lat="48.09778" lon="-4.45138">
        <ele>25</ele>
        <time>2011-04-19T09:44:10Z</time>
      </trkpt>
      <trkpt lat="48.0979" lon="-4.45135">
        <ele>23</ele>
        <time>2011-04-19T09:44:24Z</time>
      </trkpt>
      <trkpt lat="48.098" lon="-4.4513">
        <ele>21</ele>
        <time>2011-04-19T09:44:37Z</time>
      </trkpt>
      <trkpt lat="48.09811" lon="-4.45111">
        <ele>19</ele>
        <time>2011-04-19T09:44:56Z</time>
      </trkpt>
      <trkpt lat="48.09815" lon="-4.45102">
        <ele>18</ele>
        <time>2011-04-19T09:45:07Z</time>
      </trkpt>
      <trkpt lat="48.09817" lon="-4.4508">
        <ele>18</ele>
        <time>2011-04-19T09:45:21Z</time>
      </trkpt>
      <trkpt lat="48.09822" lon="-4.45045">
        <ele>22</ele>
        <time>2011-04-19T09:45:44Z</time>
      </trkpt>
      <trkpt lat="48.09823" lon="-4.45043">
        <ele>22</ele>
        <time>2011-04-19T09:45:46Z</time>
      </trkpt>
      <trkpt lat="48.09829" lon="-4.45006">
        <ele>18</ele>
        <time>2011-04-19T09:46:08Z</time>
      </trkpt>
      <trkpt lat="48.09828" lon="-4.44999">
        <ele>17</ele>
        <time>2011-04-19T09:46:13Z</time>
      </trkpt>
      <trkpt lat="48.09825" lon="-4.44993">
        <ele>20</ele>
        <time>2011-04-19T09:46:19Z</time>
      </trkpt>
      <trkpt lat="48.09817" lon="-4.44973">
        <ele>27</ele>
        <time>2011-04-19T09:46:35Z</time>
      </trkpt>
      <trkpt lat="48.09815" lon="-4.4497">
        <ele>28</ele>
        <time>2011-04-19T09:46:38Z</time>
      </trkpt>
      <trkpt lat="48.09814" lon="-4.44965">
        <ele>29</ele>
        <time>2011-04-19T09:46:41Z</time>
      </trkpt>
      <trkpt lat="48.09813" lon="-4.4496">
        <ele>30</ele>
        <time>2011-04-19T09:46:46Z</time>
      </trkpt>
      <trkpt lat="48.09811" lon="-4.44946">
        <ele>32</ele>
        <time>2011-04-19T09:46:57Z</time>
      </trkpt>
      <trkpt lat="48.09819" lon="-4.44927">
        <ele>33</ele>
        <time>2011-04-19T09:47:19Z</time>
      </trkpt>
      <trkpt lat="48.09821" lon="-4.44924">
        <ele>33</ele>
        <time>2011-04-19T09:47:51Z</time>
      </trkpt>
      <trkpt lat="48.09822" lon="-4.44897">
        <ele>37</ele>
        <time>2011-04-19T09:48:09Z</time>
      </trkpt>
      <trkpt lat="48.0982" lon="-4.44886">
        <ele>37</ele>
        <time>2011-04-19T09:48:26Z</time>
      </trkpt>
      <trkpt lat="48.09822" lon="-4.44887">
        <ele>37</ele>
        <time>2011-04-19T09:51:12Z</time>
      </trkpt>
      <trkpt lat="48.09816" lon="-4.44878">
        <ele>37</ele>
        <time>2011-04-19T09:51:27Z</time>
      </trkpt>
      <trkpt lat="48.0981" lon="-4.44847">
        <ele>36</ele>
        <time>2011-04-19T09:51:44Z</time>
      </trkpt>
      <trkpt lat="48.09805" lon="-4.44844">
        <ele>36</ele>
        <time>2011-04-19T09:51:48Z</time>
      </trkpt>
      <trkpt lat="48.09796" lon="-4.44804">
        <ele>28</ele>
        <time>2011-04-19T09:52:12Z</time>
      </trkpt>
      <trkpt lat="48.09786" lon="-4.44779">
        <ele>26</ele>
        <time>2011-04-19T09:52:30Z</time>
      </trkpt>
      <trkpt lat="48.09785" lon="-4.44776">
        <ele>26</ele>
        <time>2011-04-19T09:52:32Z</time>
      </trkpt>
      <trkpt lat="48.09784" lon="-4.44772">
        <ele>25</ele>
        <time>2011-04-19T09:52:34Z</time>
      </trkpt>
      <trkpt lat="48.09783" lon="-4.44769">
        <ele>25</ele>
        <time>2011-04-19T09:52:36Z</time>
      </trkpt>
      <trkpt lat="48.0978" lon="-4.44762">
        <ele>25</ele>
        <time>2011-04-19T09:52:40Z</time>
      </trkpt>
      <trkpt lat="48.09778" lon="-4.44748">
        <ele>19</ele>
        <time>2011-04-19T09:52:46Z</time>
      </trkpt>
      <trkpt lat="48.09777" lon="-4.44745">
        <ele>19</ele>
        <time>2011-04-19T09:52:48Z</time>
      </trkpt>
      <trkpt lat="48.09762" lon="-4.4473">
        <ele>18</ele>
        <time>2011-04-19T09:53:04Z</time>
      </trkpt>
      <trkpt lat="48.09763" lon="-4.44716">
        <ele>17</ele>
        <time>2011-04-19T09:53:17Z</time>
      </trkpt>
      <trkpt lat="48.09766" lon="-4.44707">
        <ele>16</ele>
        <time>2011-04-19T09:53:28Z</time>
      </trkpt>
      <trkpt lat="48.09759" lon="-4.44693">
        <ele>14</ele>
        <time>2011-04-19T09:53:41Z</time>
      </trkpt>
      <trkpt lat="48.09753" lon="-4.44683">
        <ele>13</ele>
        <time>2011-04-19T09:53:54Z</time>
      </trkpt>
      <trkpt lat="48.09741" lon="-4.44673">
        <ele>16</ele>
        <time>2011-04-19T09:54:08Z</time>
      </trkpt>
      <trkpt lat="48.09733" lon="-4.44649">
        <ele>16</ele>
        <time>2011-04-19T09:54:26Z</time>
      </trkpt>
      <trkpt lat="48.09733" lon="-4.44631">
        <ele>17</ele>
        <time>2011-04-19T09:54:35Z</time>
      </trkpt>
      <trkpt lat="48.0973" lon="-4.44618">
        <ele>16</ele>
        <time>2011-04-19T09:54:44Z</time>
      </trkpt>
      <trkpt lat="48.09729" lon="-4.44603">
        <ele>15</ele>
        <time>2011-04-19T09:54:53Z</time>
      </trkpt>
      <trkpt lat="48.09735" lon="-4.44598">
        <ele>13</ele>
        <time>2011-04-19T09:55:02Z</time>
      </trkpt>
      <trkpt lat="48.09739" lon="-4.44586">
        <ele>10</ele>
        <time>2011-04-19T09:55:16Z</time>
      </trkpt>
      <trkpt lat="48.09732" lon="-4.44581">
        <ele>12</ele>
        <time>2011-04-19T09:55:25Z</time>
      </trkpt>
      <trkpt lat="48.09723" lon="-4.44574">
        <ele>14</ele>
        <time>2011-04-19T09:55:36Z</time>
      </trkpt>
      <trkpt lat="48.09715" lon="-4.44562">
        <ele>17</ele>
        <time>2011-04-19T09:55:45Z</time>
      </trkpt>
      <trkpt lat="48.09713" lon="-4.44556">
        <ele>17</ele>
        <time>2011-04-19T09:55:49Z</time>
      </trkpt>
      <trkpt lat="48.09704" lon="-4.44553">
        <ele>18</ele>
        <time>2011-04-19T09:56:00Z</time>
      </trkpt>
      <trkpt lat="48.097" lon="-4.44541">
        <ele>19</ele>
        <time>2011-04-19T09:56:17Z</time>
      </trkpt>
      <trkpt lat="48.09704" lon="-4.4453">
        <ele>19</ele>
        <time>2011-04-19T09:56:26Z</time>
      </trkpt>
      <trkpt lat="48.09708" lon="-4.44515">
        <ele>18</ele>
        <time>2011-04-19T09:56:38Z</time>
      </trkpt>
      <trkpt lat="48.09706" lon="-4.44509">
        <ele>18</ele>
        <time>2011-04-19T09:56:50Z</time>
      </trkpt>
      <trkpt lat="48.09708" lon="-4.44506">
        <ele>18</ele>
        <time>2011-04-19T09:56:54Z</time>
      </trkpt>
      <trkpt lat="48.09712" lon="-4.4449">
        <ele>19</ele>
        <time>2011-04-19T09:57:08Z</time>
      </trkpt>
      <trkpt lat="48.09713" lon="-4.44484">
        <ele>19</ele>
        <time>2011-04-19T09:57:12Z</time>
      </trkpt>
      <trkpt lat="48.09727" lon="-4.44466">
        <ele>17</ele>
        <time>2011-04-19T09:57:26Z</time>
      </trkpt>
      <trkpt lat="48.09736" lon="-4.44452">
        <ele>17</ele>
        <time>2011-04-19T09:57:35Z</time>
      </trkpt>
      <trkpt lat="48.09739" lon="-4.44449">
        <ele>17</ele>
        <time>2011-04-19T09:57:39Z</time>
      </trkpt>
      <trkpt lat="48.09753" lon="-4.44443">
        <ele>8</ele>
        <time>2011-04-19T09:57:48Z</time>
      </trkpt>
      <trkpt lat="48.09767" lon="-4.44432">
        <ele>8</ele>
        <time>2011-04-19T09:57:59Z</time>
      </trkpt>
      <trkpt lat="48.09778" lon="-4.44421">
        <ele>8</ele>
        <time>2011-04-19T09:58:11Z</time>
      </trkpt>
      <trkpt lat="48.0976" lon="-4.44412">
        <ele>11</ele>
        <time>2011-04-19T09:58:24Z</time>
      </trkpt>
      <trkpt lat="48.09753" lon="-4.44409">
        <ele>11</ele>
        <time>2011-04-19T09:58:33Z</time>
      </trkpt>
      <trkpt lat="48.09743" lon="-4.44382">
        <ele>20</ele>
        <time>2011-04-19T09:58:52Z</time>
      </trkpt>
      <trkpt lat="48.09736" lon="-4.44379">
        <ele>21</ele>
        <time>2011-04-19T09:59:01Z</time>
      </trkpt>
      <trkpt lat="48.09718" lon="-4.44365">
        <ele>24</ele>
        <time>2011-04-19T09:59:20Z</time>
      </trkpt>
      <trkpt lat="48.09704" lon="-4.44342">
        <ele>26</ele>
        <time>2011-04-19T09:59:37Z</time>
      </trkpt>
      <trkpt lat="48.09701" lon="-4.44337">
        <ele>26</ele>
        <time>2011-04-19T09:59:43Z</time>
      </trkpt>
      <trkpt lat="48.09688" lon="-4.44314">
        <ele>23</ele>
        <time>2011-04-19T10:00:01Z</time>
      </trkpt>
      <trkpt lat="48.09682" lon="-4.44298">
        <ele>21</ele>
        <time>2011-04-19T10:00:17Z</time>
      </trkpt>
      <trkpt lat="48.09684" lon="-4.44269">
        <ele>16</ele>
        <time>2011-04-19T10:00:36Z</time>
      </trkpt>
      <trkpt lat="48.09683" lon="-4.44255">
        <ele>15</ele>
        <time>2011-04-19T10:00:44Z</time>
      </trkpt>
      <trkpt lat="48.09667" lon="-4.44241">
        <ele>11</ele>
        <time>2011-04-19T10:01:02Z</time>
      </trkpt>
      <trkpt lat="48.09656" lon="-4.44253">
        <ele>19</ele>
        <time>2011-04-19T10:01:23Z</time>
      </trkpt>
      <trkpt lat="48.09646" lon="-4.44258">
        <ele>24</ele>
        <time>2011-04-19T10:01:40Z</time>
      </trkpt>
      <trkpt lat="48.09638" lon="-4.44259">
        <ele>27</ele>
        <time>2011-04-19T10:01:56Z</time>
      </trkpt>
      <trkpt lat="48.09629" lon="-4.44254">
        <ele>30</ele>
        <time>2011-04-19T10:02:09Z</time>
      </trkpt>
      <trkpt lat="48.09626" lon="-4.4426">
        <ele>30</ele>
        <time>2011-04-19T10:02:14Z</time>
      </trkpt>
      <trkpt lat="48.09618" lon="-4.44264">
        <ele>33</ele>
        <time>2011-04-19T10:02:27Z</time>
      </trkpt>
      <trkpt lat="48.09612" lon="-4.44268">
        <ele>34</ele>
        <time>2011-04-19T10:02:48Z</time>
      </trkpt>
      <trkpt lat="48.09612" lon="-4.44278">
        <ele>34</ele>
        <time>2011-04-19T10:03:55Z</time>
      </trkpt>
      <trkpt lat="48.09608" lon="-4.44276">
        <ele>35</ele>
        <time>2011-04-19T10:04:33Z</time>
      </trkpt>
      <trkpt lat="48.09607" lon="-4.44269">
        <ele>35</ele>
        <time>2011-04-19T10:05:04Z</time>
      </trkpt>
      <trkpt lat="48.09608" lon="-4.44267">
        <ele>35</ele>
        <time>2011-04-19T10:06:29Z</time>
      </trkpt>
      <trkpt lat="48.09603" lon="-4.44253">
        <ele>37</ele>
        <time>2011-04-19T10:10:38Z</time>
      </trkpt>
      <trkpt lat="48.09604" lon="-4.4423">
        <ele>31</ele>
        <time>2011-04-19T10:10:53Z</time>
      </trkpt>
      <trkpt lat="48.09614" lon="-4.44204">
        <ele>28</ele>
        <time>2011-04-19T10:11:15Z</time>
      </trkpt>
      <trkpt lat="48.09621" lon="-4.44192">
        <ele>26</ele>
        <time>2011-04-19T10:11:31Z</time>
      </trkpt>
      <trkpt lat="48.09624" lon="-4.44175">
        <ele>25</ele>
        <time>2011-04-19T10:11:45Z</time>
      </trkpt>
      <trkpt lat="48.09626" lon="-4.4416">
        <ele>24</ele>
        <time>2011-04-19T10:12:01Z</time>
      </trkpt>
      <trkpt lat="48.09623" lon="-4.44153">
        <ele>25</ele>
        <time>2011-04-19T10:12:05Z</time>
      </trkpt>
      <trkpt lat="48.0963" lon="-4.44131">
        <ele>24</ele>
        <time>2011-04-19T10:12:18Z</time>
      </trkpt>
      <trkpt lat="48.09635" lon="-4.44127">
        <ele>23</ele>
        <time>2011-04-19T10:12:22Z</time>
      </trkpt>
      <trkpt lat="48.09638" lon="-4.44125">
        <ele>22</ele>
        <time>2011-04-19T10:12:25Z</time>
      </trkpt>
      <trkpt lat="48.09655" lon="-4.44102">
        <ele>18</ele>
        <time>2011-04-19T10:12:42Z</time>
      </trkpt>
      <trkpt lat="48.09658" lon="-4.441">
        <ele>17</ele>
        <time>2011-04-19T10:12:44Z</time>
      </trkpt>
      <trkpt lat="48.09658" lon="-4.44091">
        <ele>15</ele>
        <time>2011-04-19T10:12:49Z</time>
      </trkpt>
      <trkpt lat="48.09653" lon="-4.44069">
        <ele>19</ele>
        <time>2011-04-19T10:13:04Z</time>
      </trkpt>
      <trkpt lat="48.09655" lon="-4.4404">
        <ele>21</ele>
        <time>2011-04-19T10:13:21Z</time>
      </trkpt>
      <trkpt lat="48.09656" lon="-4.44022">
        <ele>20</ele>
        <time>2011-04-19T10:13:33Z</time>
      </trkpt>
      <trkpt lat="48.09656" lon="-4.43997">
        <ele>17</ele>
        <time>2011-04-19T10:13:52Z</time>
      </trkpt>
      <trkpt lat="48.09656" lon="-4.43982">
        <ele>20</ele>
        <time>2011-04-19T10:14:06Z</time>
      </trkpt>
      <trkpt lat="48.09653" lon="-4.43966">
        <ele>23</ele>
        <time>2011-04-19T10:14:24Z</time>
      </trkpt>
      <trkpt lat="48.09646" lon="-4.43951">
        <ele>25</ele>
        <time>2011-04-19T10:14:42Z</time>
      </trkpt>
      <trkpt lat="48.0965" lon="-4.43918">
        <ele>22</ele>
        <time>2011-04-19T10:15:01Z</time>
      </trkpt>
      <trkpt lat="48.09651" lon="-4.43908">
        <ele>25</ele>
        <time>2011-04-19T10:15:09Z</time>
      </trkpt>
      <trkpt lat="48.09651" lon="-4.43882">
        <ele>28</ele>
        <time>2011-04-19T10:15:27Z</time>
      </trkpt>
      <trkpt lat="48.09652" lon="-4.4387">
        <ele>29</ele>
        <time>2011-04-19T10:15:42Z</time>
      </trkpt>
      <trkpt lat="48.09656" lon="-4.43867">
        <ele>29</ele>
        <time>2011-04-19T10:15:49Z</time>
      </trkpt>
      <trkpt lat="48.09663" lon="-4.43859">
        <ele>28</ele>
        <time>2011-04-19T10:16:05Z</time>
      </trkpt>
      <trkpt lat="48.09662" lon="-4.43852">
        <ele>28</ele>
        <time>2011-04-19T10:16:11Z</time>
      </trkpt>
      <trkpt lat="48.09658" lon="-4.43822">
        <ele>29</ele>
        <time>2011-04-19T10:16:29Z</time>
      </trkpt>
      <trkpt lat="48.09668" lon="-4.43794">
        <ele>27</ele>
        <time>2011-04-19T10:16:48Z</time>
      </trkpt>
      <trkpt lat="48.09665" lon="-4.43753">
        <ele>31</ele>
        <time>2011-04-19T10:17:11Z</time>
      </trkpt>
      <trkpt lat="48.09675" lon="-4.43732">
        <ele>31</ele>
        <time>2011-04-19T10:17:25Z</time>
      </trkpt>
      <trkpt lat="48.0968" lon="-4.43728">
        <ele>32</ele>
        <time>2011-04-19T10:17:29Z</time>
      </trkpt>
      <trkpt lat="48.09695" lon="-4.43691">
        <ele>34</ele>
        <time>2011-04-19T10:17:52Z</time>
      </trkpt>
      <trkpt lat="48.09715" lon="-4.43678">
        <ele>34</ele>
        <time>2011-04-19T10:18:11Z</time>
      </trkpt>
      <trkpt lat="48.09731" lon="-4.43681">
        <ele>34</ele>
        <time>2011-04-19T10:18:24Z</time>
      </trkpt>
      <trkpt lat="48.09734" lon="-4.43678">
        <ele>34</ele>
        <time>2011-04-19T10:18:31Z</time>
      </trkpt>
      <trkpt lat="48.09745" lon="-4.43658">
        <ele>38</ele>
        <time>2011-04-19T10:18:47Z</time>
      </trkpt>
      <trkpt lat="48.09747" lon="-4.43646">
        <ele>38</ele>
        <time>2011-04-19T10:18:54Z</time>
      </trkpt>
      <trkpt lat="48.09738" lon="-4.43605">
        <ele>38</ele>
        <time>2011-04-19T10:19:17Z</time>
      </trkpt>
      <trkpt lat="48.0972" lon="-4.43572">
        <ele>39</ele>
        <time>2011-04-19T10:19:40Z</time>
      </trkpt>
      <trkpt lat="48.09714" lon="-4.43546">
        <ele>39</ele>
        <time>2011-04-19T10:19:57Z</time>
      </trkpt>
      <trkpt lat="48.09711" lon="-4.43516">
        <ele>38</ele>
        <time>2011-04-19T10:20:21Z</time>
      </trkpt>
      <trkpt lat="48.09709" lon="-4.43492">
        <ele>33</ele>
        <time>2011-04-19T10:20:37Z</time>
      </trkpt>
      <trkpt lat="48.09709" lon="-4.43485">
        <ele>33</ele>
        <time>2011-04-19T10:20:45Z</time>
      </trkpt>
      <trkpt lat="48.09703" lon="-4.43466">
        <ele>32</ele>
        <time>2011-04-19T10:21:04Z</time>
      </trkpt>
      <trkpt lat="48.09701" lon="-4.43447">
        <ele>30</ele>
        <time>2011-04-19T10:21:24Z</time>
      </trkpt>
      <trkpt lat="48.09703" lon="-4.43424">
        <ele>29</ele>
        <time>2011-04-19T10:21:43Z</time>
      </trkpt>
      <trkpt lat="48.09686" lon="-4.434">
        <ele>23</ele>
        <time>2011-04-19T10:22:02Z</time>
      </trkpt>
      <trkpt lat="48.09677" lon="-4.43394">
        <ele>22</ele>
        <time>2011-04-19T10:22:12Z</time>
      </trkpt>
      <trkpt lat="48.09663" lon="-4.43382">
        <ele>26</ele>
        <time>2011-04-19T10:22:24Z</time>
      </trkpt>
      <trkpt lat="48.09659" lon="-4.43378">
        <ele>26</ele>
        <time>2011-04-19T10:22:28Z</time>
      </trkpt>
      <trkpt lat="48.09657" lon="-4.43376">
        <ele>26</ele>
        <time>2011-04-19T10:22:30Z</time>
      </trkpt>
      <trkpt lat="48.09651" lon="-4.43374">
        <ele>26</ele>
        <time>2011-04-19T10:22:37Z</time>
      </trkpt>
      <trkpt lat="48.09648" lon="-4.43371">
        <ele>26</ele>
        <time>2011-04-19T10:22:40Z</time>
      </trkpt>
      <trkpt lat="48.09635" lon="-4.43367">
        <ele>27</ele>
        <time>2011-04-19T10:22:52Z</time>
      </trkpt>
      <trkpt lat="48.0963" lon="-4.43363">
        <ele>28</ele>
        <time>2011-04-19T10:23:00Z</time>
      </trkpt>
      <trkpt lat="48.09629" lon="-4.43351">
        <ele>27</ele>
        <time>2011-04-19T10:23:13Z</time>
      </trkpt>
      <trkpt lat="48.09629" lon="-4.43346">
        <ele>27</ele>
        <time>2011-04-19T10:23:18Z</time>
      </trkpt>
      <trkpt lat="48.09636" lon="-4.43334">
        <ele>25</ele>
        <time>2011-04-19T10:23:28Z</time>
      </trkpt>
      <trkpt lat="48.09642" lon="-4.43319">
        <ele>28</ele>
        <time>2011-04-19T10:23:42Z</time>
      </trkpt>
      <trkpt lat="48.09645" lon="-4.43316">
        <ele>28</ele>
        <time>2011-04-19T10:23:45Z</time>
      </trkpt>
      <trkpt lat="48.09667" lon="-4.433">
        <ele>21</ele>
        <time>2011-04-19T10:24:05Z</time>
      </trkpt>
      <trkpt lat="48.09671" lon="-4.43297">
        <ele>22</ele>
        <time>2011-04-19T10:24:09Z</time>
      </trkpt>
      <trkpt lat="48.09675" lon="-4.4329">
        <ele>22</ele>
        <time>2011-04-19T10:24:15Z</time>
      </trkpt>
      <trkpt lat="48.09682" lon="-4.43286">
        <ele>23</ele>
        <time>2011-04-19T10:24:22Z</time>
      </trkpt>
      <trkpt lat="48.09699" lon="-4.43275">
        <ele>22</ele>
        <time>2011-04-19T10:24:37Z</time>
      </trkpt>
      <trkpt lat="48.09703" lon="-4.43266">
        <ele>22</ele>
        <time>2011-04-19T10:24:45Z</time>
      </trkpt>
      <trkpt lat="48.09711" lon="-4.43249">
        <ele>27</ele>
        <time>2011-04-19T10:25:00Z</time>
      </trkpt>
      <trkpt lat="48.09714" lon="-4.4324">
        <ele>26</ele>
        <time>2011-04-19T10:25:06Z</time>
      </trkpt>
      <trkpt lat="48.09716" lon="-4.43228">
        <ele>27</ele>
        <time>2011-04-19T10:25:14Z</time>
      </trkpt>
      <trkpt lat="48.09718" lon="-4.43225">
        <ele>27</ele>
        <time>2011-04-19T10:25:17Z</time>
      </trkpt>
      <trkpt lat="48.09723" lon="-4.43207">
        <ele>29</ele>
        <time>2011-04-19T10:25:32Z</time>
      </trkpt>
      <trkpt lat="48.09724" lon="-4.43197">
        <ele>30</ele>
        <time>2011-04-19T10:25:45Z</time>
      </trkpt>
      <trkpt lat="48.09727" lon="-4.43182">
        <ele>30</ele>
        <time>2011-04-19T10:26:04Z</time>
      </trkpt>
      <trkpt lat="48.0973" lon="-4.43172">
        <ele>31</ele>
        <time>2011-04-19T10:26:20Z</time>
      </trkpt>
      <trkpt lat="48.09733" lon="-4.43168">
        <ele>30</ele>
        <time>2011-04-19T10:26:26Z</time>
      </trkpt>
      <trkpt lat="48.0974" lon="-4.43163">
        <ele>34</ele>
        <time>2011-04-19T10:26:42Z</time>
      </trkpt>
      <trkpt lat="48.09743" lon="-4.43149">
        <ele>37</ele>
        <time>2011-04-19T10:26:55Z</time>
      </trkpt>
      <trkpt lat="48.09744" lon="-4.43147">
        <ele>38</ele>
        <time>2011-04-19T10:26:56Z</time>
      </trkpt>
      <trkpt lat="48.09749" lon="-4.43133">
        <ele>41</ele>
        <time>2011-04-19T10:27:09Z</time>
      </trkpt>
      <trkpt lat="48.09751" lon="-4.43125">
        <ele>31</ele>
        <time>2011-04-19T10:27:15Z</time>
      </trkpt>
      <trkpt lat="48.09755" lon="-4.43117">
        <ele>33</ele>
        <time>2011-04-19T10:27:30Z</time>
      </trkpt>
      <trkpt lat="48.09764" lon="-4.43107">
        <ele>34</ele>
        <time>2011-04-19T10:27:47Z</time>
      </trkpt>
      <trkpt lat="48.09765" lon="-4.43107">
        <ele>34</ele>
        <time>2011-04-19T10:27:48Z</time>
      </trkpt>
      <trkpt lat="48.09769" lon="-4.43107">
        <ele>33</ele>
        <time>2011-04-19T10:27:52Z</time>
      </trkpt>
      <trkpt lat="48.09781" lon="-4.43105">
        <ele>32</ele>
        <time>2011-04-19T10:28:06Z</time>
      </trkpt>
      <trkpt lat="48.09786" lon="-4.43092">
        <ele>32</ele>
        <time>2011-04-19T10:28:18Z</time>
      </trkpt>
      <trkpt lat="48.09793" lon="-4.43095">
        <ele>30</ele>
        <time>2011-04-19T10:28:27Z</time>
      </trkpt>
      <trkpt lat="48.09799" lon="-4.43095">
        <ele>30</ele>
        <time>2011-04-19T10:28:34Z</time>
      </trkpt>
      <trkpt lat="48.09802" lon="-4.43098">
        <ele>29</ele>
        <time>2011-04-19T10:28:40Z</time>
      </trkpt>
      <trkpt lat="48.09811" lon="-4.431">
        <ele>28</ele>
        <time>2011-04-19T10:28:49Z</time>
      </trkpt>
      <trkpt lat="48.09821" lon="-4.43093">
        <ele>28</ele>
        <time>2011-04-19T10:29:03Z</time>
      </trkpt>
      <trkpt lat="48.09833" lon="-4.43079">
        <ele>31</ele>
        <time>2011-04-19T10:29:19Z</time>
      </trkpt>
      <trkpt lat="48.09844" lon="-4.43069">
        <ele>27</ele>
        <time>2011-04-19T10:29:33Z</time>
      </trkpt>
      <trkpt lat="48.09846" lon="-4.43061">
        <ele>27</ele>
        <time>2011-04-19T10:29:40Z</time>
      </trkpt>
      <trkpt lat="48.09853" lon="-4.43051">
        <ele>27</ele>
        <time>2011-04-19T10:29:48Z</time>
      </trkpt>
      <trkpt lat="48.09855" lon="-4.43034">
        <ele>29</ele>
        <time>2011-04-19T10:30:06Z</time>
      </trkpt>
      <trkpt lat="48.09859" lon="-4.43028">
        <ele>29</ele>
        <time>2011-04-19T10:30:20Z</time>
      </trkpt>
      <trkpt lat="48.09866" lon="-4.4301">
        <ele>30</ele>
        <time>2011-04-19T10:30:39Z</time>
      </trkpt>
      <trkpt lat="48.09874" lon="-4.42998">
        <ele>37</ele>
        <time>2011-04-19T10:30:55Z</time>
      </trkpt>
      <trkpt lat="48.0988" lon="-4.42993">
        <ele>35</ele>
        <time>2011-04-19T10:31:11Z</time>
      </trkpt>
      <trkpt lat="48.09881" lon="-4.42993">
        <ele>35</ele>
        <time>2011-04-19T10:31:19Z</time>
      </trkpt>
      <trkpt lat="48.09891" lon="-4.42984">
        <ele>34</ele>
        <time>2011-04-19T10:31:36Z</time>
      </trkpt>
      <trkpt lat="48.09899" lon="-4.42977">
        <ele>33</ele>
        <time>2011-04-19T10:31:47Z</time>
      </trkpt>
      <trkpt lat="48.0991" lon="-4.42962">
        <ele>34</ele>
        <time>2011-04-19T10:32:00Z</time>
      </trkpt>
      <trkpt lat="48.09928" lon="-4.42951">
        <ele>25</ele>
        <time>2011-04-19T10:32:17Z</time>
      </trkpt>
      <trkpt lat="48.09937" lon="-4.42945">
        <ele>25</ele>
        <time>2011-04-19T10:32:32Z</time>
      </trkpt>
      <trkpt lat="48.09946" lon="-4.42936">
        <ele>24</ele>
        <time>2011-04-19T10:32:47Z</time>
      </trkpt>
      <trkpt lat="48.09947" lon="-4.4293">
        <ele>24</ele>
        <time>2011-04-19T10:32:51Z</time>
      </trkpt>
      <trkpt lat="48.09953" lon="-4.42905">
        <ele>25</ele>
        <time>2011-04-19T10:33:07Z</time>
      </trkpt>
      <trkpt lat="48.0996" lon="-4.42887">
        <ele>24</ele>
        <time>2011-04-19T10:33:24Z</time>
      </trkpt>
      <trkpt lat="48.09961" lon="-4.42887">
        <ele>23</ele>
        <time>2011-04-19T10:33:26Z</time>
      </trkpt>
      <trkpt lat="48.09974" lon="-4.42884">
        <ele>21</ele>
        <time>2011-04-19T10:33:41Z</time>
      </trkpt>
      <trkpt lat="48.09979" lon="-4.42885">
        <ele>20</ele>
        <time>2011-04-19T10:33:47Z</time>
      </trkpt>
      <trkpt lat="48.09986" lon="-4.42878">
        <ele>20</ele>
        <time>2011-04-19T10:33:54Z</time>
      </trkpt>
      <trkpt lat="48.09988" lon="-4.42874">
        <ele>20</ele>
        <time>2011-04-19T10:33:57Z</time>
      </trkpt>
      <trkpt lat="48.09994" lon="-4.42868">
        <ele>19</ele>
        <time>2011-04-19T10:34:04Z</time>
      </trkpt>
      <trkpt lat="48.09999" lon="-4.42859">
        <ele>19</ele>
        <time>2011-04-19T10:34:20Z</time>
      </trkpt>
      <trkpt lat="48.10002" lon="-4.42845">
        <ele>12</ele>
        <time>2011-04-19T10:34:34Z</time>
      </trkpt>
      <trkpt lat="48.09994" lon="-4.42832">
        <ele>16</ele>
        <time>2011-04-19T10:34:50Z</time>
      </trkpt>
      <trkpt lat="48.09992" lon="-4.42825">
        <ele>18</ele>
        <time>2011-04-19T10:35:05Z</time>
      </trkpt>
      <trkpt lat="48.09988" lon="-4.42822">
        <ele>20</ele>
        <time>2011-04-19T10:35:18Z</time>
      </trkpt>
      <trkpt lat="48.09989" lon="-4.42816">
        <ele>21</ele>
        <time>2011-04-19T10:35:28Z</time>
      </trkpt>
      <trkpt lat="48.09993" lon="-4.42797">
        <ele>23</ele>
        <time>2011-04-19T10:35:40Z</time>
      </trkpt>
      <trkpt lat="48.09999" lon="-4.42767">
        <ele>20</ele>
        <time>2011-04-19T10:35:59Z</time>
      </trkpt>
      <trkpt lat="48.1" lon="-4.42744">
        <ele>12</ele>
        <time>2011-04-19T10:36:15Z</time>
      </trkpt>
      <trkpt lat="48.1" lon="-4.42736">
        <ele>17</ele>
        <time>2011-04-19T10:36:20Z</time>
      </trkpt>
      <trkpt lat="48.09998" lon="-4.42726">
        <ele>18</ele>
        <time>2011-04-19T10:36:25Z</time>
      </trkpt>
      <trkpt lat="48.09984" lon="-4.42716">
        <ele>20</ele>
        <time>2011-04-19T10:36:43Z</time>
      </trkpt>
      <trkpt lat="48.09971" lon="-4.42698">
        <ele>21</ele>
        <time>2011-04-19T10:37:04Z</time>
      </trkpt>
      <trkpt lat="48.09973" lon="-4.42669">
        <ele>18</ele>
        <time>2011-04-19T10:37:23Z</time>
      </trkpt>
      <trkpt lat="48.09973" lon="-4.42646">
        <ele>16</ele>
        <time>2011-04-19T10:37:38Z</time>
      </trkpt>
      <trkpt lat="48.09956" lon="-4.42616">
        <ele>19</ele>
        <time>2011-04-19T10:38:00Z</time>
      </trkpt>
      <trkpt lat="48.09944" lon="-4.42596">
        <ele>21</ele>
        <time>2011-04-19T10:38:16Z</time>
      </trkpt>
      <trkpt lat="48.09948" lon="-4.42583">
        <ele>20</ele>
        <time>2011-04-19T10:38:29Z</time>
      </trkpt>
      <trkpt lat="48.09967" lon="-4.42566">
        <ele>17</ele>
        <time>2011-04-19T10:38:49Z</time>
      </trkpt>
      <trkpt lat="48.09986" lon="-4.42546">
        <ele>15</ele>
        <time>2011-04-19T10:39:12Z</time>
      </trkpt>
      <trkpt lat="48.09986" lon="-4.42536">
        <ele>15</ele>
        <time>2011-04-19T10:39:45Z</time>
      </trkpt>
      <trkpt lat="48.09981" lon="-4.42527">
        <ele>16</ele>
        <time>2011-04-19T10:39:56Z</time>
      </trkpt>
      <trkpt lat="48.09971" lon="-4.42503">
        <ele>17</ele>
        <time>2011-04-19T10:40:16Z</time>
      </trkpt>
      <trkpt lat="48.09962" lon="-4.425">
        <ele>19</ele>
        <time>2011-04-19T10:40:36Z</time>
      </trkpt>
      <trkpt lat="48.09953" lon="-4.42489">
        <ele>24</ele>
        <time>2011-04-19T10:40:53Z</time>
      </trkpt>
      <trkpt lat="48.0996" lon="-4.4248">
        <ele>22</ele>
        <time>2011-04-19T10:41:10Z</time>
      </trkpt>
      <trkpt lat="48.09965" lon="-4.42479">
        <ele>21</ele>
        <time>2011-04-19T10:41:18Z</time>
      </trkpt>
      <trkpt lat="48.09979" lon="-4.42457">
        <ele>20</ele>
        <time>2011-04-19T10:41:35Z</time>
      </trkpt>
      <trkpt lat="48.09983" lon="-4.4244">
        <ele>20</ele>
        <time>2011-04-19T10:41:51Z</time>
      </trkpt>
      <trkpt lat="48.0999" lon="-4.42438">
        <ele>19</ele>
        <time>2011-04-19T10:42:05Z</time>
      </trkpt>
      <trkpt lat="48.09994" lon="-4.42417">
        <ele>15</ele>
        <time>2011-04-19T10:42:24Z</time>
      </trkpt>
      <trkpt lat="48.09995" lon="-4.42402">
        <ele>18</ele>
        <time>2011-04-19T10:42:38Z</time>
      </trkpt>
      <trkpt lat="48.09995" lon="-4.42394">
        <ele>19</ele>
        <time>2011-04-19T10:42:46Z</time>
      </trkpt>
      <trkpt lat="48.09995" lon="-4.42389">
        <ele>20</ele>
        <time>2011-04-19T10:42:50Z</time>
      </trkpt>
      <trkpt lat="48.09996" lon="-4.42377">
        <ele>20</ele>
        <time>2011-04-19T10:42:58Z</time>
      </trkpt>
      <trkpt lat="48.10001" lon="-4.42366">
        <ele>10</ele>
        <time>2011-04-19T10:43:06Z</time>
      </trkpt>
      <trkpt lat="48.09996" lon="-4.42347">
        <ele>17</ele>
        <time>2011-04-19T10:43:18Z</time>
      </trkpt>
      <trkpt lat="48.09993" lon="-4.42335">
        <ele>15</ele>
        <time>2011-04-19T10:43:25Z</time>
      </trkpt>
      <trkpt lat="48.09992" lon="-4.42324">
        <ele>16</ele>
        <time>2011-04-19T10:43:32Z</time>
      </trkpt>
      <trkpt lat="48.09988" lon="-4.42296">
        <ele>20</ele>
        <time>2011-04-19T10:43:50Z</time>
      </trkpt>
      <trkpt lat="48.09987" lon="-4.42274">
        <ele>20</ele>
        <time>2011-04-19T10:44:08Z</time>
      </trkpt>
      <trkpt lat="48.0999" lon="-4.42277">
        <ele>20</ele>
        <time>2011-04-19T10:44:13Z</time>
      </trkpt>
      <trkpt lat="48.09994" lon="-4.42283">
        <ele>20</ele>
        <time>2011-04-19T10:44:18Z</time>
      </trkpt>
      <trkpt lat="48.1" lon="-4.42291">
        <ele>15</ele>
        <time>2011-04-19T10:44:25Z</time>
      </trkpt>
      <trkpt lat="48.10006" lon="-4.42288">
        <ele>15</ele>
        <time>2011-04-19T10:44:40Z</time>
      </trkpt>
      <trkpt lat="48.10012" lon="-4.42285">
        <ele>15</ele>
        <time>2011-04-19T10:44:56Z</time>
      </trkpt>
      <trkpt lat="48.10023" lon="-4.42286">
        <ele>15</ele>
        <time>2011-04-19T10:45:17Z</time>
      </trkpt>
      <trkpt lat="48.1003" lon="-4.42284">
        <ele>15</ele>
        <time>2011-04-19T10:45:33Z</time>
      </trkpt>
      <trkpt lat="48.10046" lon="-4.42277">
        <ele>15</ele>
        <time>2011-04-19T10:45:55Z</time>
      </trkpt>
      <trkpt lat="48.10047" lon="-4.42278">
        <ele>15</ele>
        <time>2011-04-19T10:45:57Z</time>
      </trkpt>
      <trkpt lat="48.10051" lon="-4.42281">
        <ele>15</ele>
        <time>2011-04-19T10:46:01Z</time>
      </trkpt>
      <trkpt lat="48.10078" lon="-4.42303">
        <ele>12</ele>
        <time>2011-04-19T10:46:26Z</time>
      </trkpt>
      <trkpt lat="48.101" lon="-4.42307">
        <ele>13</ele>
        <time>2011-04-19T10:46:46Z</time>
      </trkpt>
      <trkpt lat="48.10123" lon="-4.42308">
        <ele>14</ele>
        <time>2011-04-19T10:47:05Z</time>
      </trkpt>
      <trkpt lat="48.10138" lon="-4.4231">
        <ele>14</ele>
        <time>2011-04-19T10:47:20Z</time>
      </trkpt>
      <trkpt lat="48.1014" lon="-4.4231">
        <ele>14</ele>
        <time>2011-04-19T10:47:23Z</time>
      </trkpt>
      <trkpt lat="48.10145" lon="-4.42309">
        <ele>13</ele>
        <time>2011-04-19T10:47:30Z</time>
      </trkpt>
      <trkpt lat="48.10156" lon="-4.42298">
        <ele>15</ele>
        <time>2011-04-19T10:47:46Z</time>
      </trkpt>
      <trkpt lat="48.1016" lon="-4.4228">
        <ele>18</ele>
        <time>2011-04-19T10:48:02Z</time>
      </trkpt>
      <trkpt lat="48.10166" lon="-4.42262">
        <ele>22</ele>
        <time>2011-04-19T10:48:20Z</time>
      </trkpt>
      <trkpt lat="48.1017" lon="-4.42258">
        <ele>23</ele>
        <time>2011-04-19T10:48:24Z</time>
      </trkpt>
      <trkpt lat="48.10194" lon="-4.42252">
        <ele>21</ele>
        <time>2011-04-19T10:48:47Z</time>
      </trkpt>
      <trkpt lat="48.10196" lon="-4.42253">
        <ele>21</ele>
        <time>2011-04-19T10:48:49Z</time>
      </trkpt>
      <trkpt lat="48.10213" lon="-4.42273">
        <ele>20</ele>
        <time>2011-04-19T10:49:07Z</time>
      </trkpt>
      <trkpt lat="48.1022" lon="-4.42284">
        <ele>19</ele>
        <time>2011-04-19T10:49:19Z</time>
      </trkpt>
      <trkpt lat="48.10222" lon="-4.42287">
        <ele>18</ele>
        <time>2011-04-19T10:49:22Z</time>
      </trkpt>
      <trkpt lat="48.10227" lon="-4.42294">
        <ele>18</ele>
        <time>2011-04-19T10:49:27Z</time>
      </trkpt>
      <trkpt lat="48.10233" lon="-4.42296">
        <ele>17</ele>
        <time>2011-04-19T10:49:41Z</time>
      </trkpt>
      <trkpt lat="48.10233" lon="-4.42296">
        <ele>17</ele>
        <time>2011-04-19T10:49:44Z</time>
      </trkpt>
      <trkpt lat="48.10239" lon="-4.423">
        <ele>17</ele>
        <time>2011-04-19T10:49:50Z</time>
      </trkpt>
      <trkpt lat="48.10246" lon="-4.42302">
        <ele>16</ele>
        <time>2011-04-19T10:49:57Z</time>
      </trkpt>
      <trkpt lat="48.10256" lon="-4.4231">
        <ele>14</ele>
        <time>2011-04-19T10:50:09Z</time>
      </trkpt>
      <trkpt lat="48.10268" lon="-4.42315">
        <ele>14</ele>
        <time>2011-04-19T10:50:24Z</time>
      </trkpt>
      <trkpt lat="48.10276" lon="-4.42318">
        <ele>14</ele>
        <time>2011-04-19T10:50:41Z</time>
      </trkpt>
      <trkpt lat="48.10275" lon="-4.42321">
        <ele>14</ele>
        <time>2011-04-19T10:50:44Z</time>
      </trkpt>
      <trkpt lat="48.10276" lon="-4.42328">
        <ele>14</ele>
        <time>2011-04-19T10:51:00Z</time>
      </trkpt>
      <trkpt lat="48.10275" lon="-4.42324">
        <ele>14</ele>
        <time>2011-04-19T10:51:21Z</time>
      </trkpt>
      <trkpt lat="48.10275" lon="-4.42323">
        <ele>14</ele>
        <time>2011-04-19T10:51:36Z</time>
      </trkpt>
      <trkpt lat="48.10275" lon="-4.42321">
        <ele>14</ele>
        <time>2011-04-19T10:51:53Z</time>
      </trkpt>
      <trkpt lat="48.1028" lon="-4.42323">
        <ele>14</ele>
        <time>2011-04-19T11:45:13Z</time>
      </trkpt>
      <trkpt lat="48.10278" lon="-4.42321">
        <ele>14</ele>
        <time>2011-04-19T11:45:32Z</time>
      </trkpt>
      <trkpt lat="48.10277" lon="-4.42322">
        <ele>14</ele>
        <time>2011-04-19T11:45:57Z</time>
      </trkpt>
      <trkpt lat="48.10278" lon="-4.4232">
        <ele>14</ele>
        <time>2011-04-19T11:46:21Z</time>
      </trkpt>
      <trkpt lat="48.10277" lon="-4.4231">
        <ele>15</ele>
        <time>2011-04-19T11:47:14Z</time>
      </trkpt>
      <trkpt lat="48.10284" lon="-4.42298">
        <ele>17</ele>
        <time>2011-04-19T11:47:29Z</time>
      </trkpt>
      <trkpt lat="48.10286" lon="-4.42287">
        <ele>17</ele>
        <time>2011-04-19T11:47:42Z</time>
      </trkpt>
      <trkpt lat="48.10289" lon="-4.42273">
        <ele>18</ele>
        <time>2011-04-19T11:47:58Z</time>
      </trkpt>
      <trkpt lat="48.10292" lon="-4.42268">
        <ele>18</ele>
        <time>2011-04-19T11:48:03Z</time>
      </trkpt>
      <trkpt lat="48.10307" lon="-4.42266">
        <ele>17</ele>
        <time>2011-04-19T11:48:16Z</time>
      </trkpt>
      <trkpt lat="48.10318" lon="-4.42256">
        <ele>16</ele>
        <time>2011-04-19T11:48:34Z</time>
      </trkpt>
      <trkpt lat="48.1032" lon="-4.42244">
        <ele>21</ele>
        <time>2011-04-19T11:48:50Z</time>
      </trkpt>
      <trkpt lat="48.10323" lon="-4.42235">
        <ele>22</ele>
        <time>2011-04-19T11:49:04Z</time>
      </trkpt>
      <trkpt lat="48.10325" lon="-4.42217">
        <ele>26</ele>
        <time>2011-04-19T11:49:19Z</time>
      </trkpt>
      <trkpt lat="48.10333" lon="-4.42209">
        <ele>27</ele>
        <time>2011-04-19T11:49:34Z</time>
      </trkpt>
      <trkpt lat="48.1034" lon="-4.42207">
        <ele>20</ele>
        <time>2011-04-19T11:49:48Z</time>
      </trkpt>
      <trkpt lat="48.10343" lon="-4.42188">
        <ele>23</ele>
        <time>2011-04-19T11:50:03Z</time>
      </trkpt>
      <trkpt lat="48.10346" lon="-4.42184">
        <ele>24</ele>
        <time>2011-04-19T11:50:06Z</time>
      </trkpt>
      <trkpt lat="48.10356" lon="-4.42153">
        <ele>29</ele>
        <time>2011-04-19T11:50:26Z</time>
      </trkpt>
      <trkpt lat="48.10365" lon="-4.42134">
        <ele>29</ele>
        <time>2011-04-19T11:50:45Z</time>
      </trkpt>
      <trkpt lat="48.10372" lon="-4.42122">
        <ele>29</ele>
        <time>2011-04-19T11:51:04Z</time>
      </trkpt>
      <trkpt lat="48.10385" lon="-4.42107">
        <ele>29</ele>
        <time>2011-04-19T11:51:20Z</time>
      </trkpt>
      <trkpt lat="48.10404" lon="-4.42104">
        <ele>27</ele>
        <time>2011-04-19T11:51:38Z</time>
      </trkpt>
      <trkpt lat="48.10408" lon="-4.42104">
        <ele>27</ele>
        <time>2011-04-19T11:51:43Z</time>
      </trkpt>
      <trkpt lat="48.10423" lon="-4.42094">
        <ele>22</ele>
        <time>2011-04-19T11:52:01Z</time>
      </trkpt>
      <trkpt lat="48.10428" lon="-4.42079">
        <ele>25</ele>
        <time>2011-04-19T11:52:14Z</time>
      </trkpt>
      <trkpt lat="48.1043" lon="-4.42075">
        <ele>25</ele>
        <time>2011-04-19T11:52:18Z</time>
      </trkpt>
      <trkpt lat="48.10447" lon="-4.42058">
        <ele>24</ele>
        <time>2011-04-19T11:52:40Z</time>
      </trkpt>
      <trkpt lat="48.10452" lon="-4.42055">
        <ele>23</ele>
        <time>2011-04-19T11:52:47Z</time>
      </trkpt>
      <trkpt lat="48.10469" lon="-4.4205">
        <ele>21</ele>
        <time>2011-04-19T11:53:02Z</time>
      </trkpt>
      <trkpt lat="48.10473" lon="-4.42051">
        <ele>20</ele>
        <time>2011-04-19T11:53:06Z</time>
      </trkpt>
      <trkpt lat="48.10488" lon="-4.42048">
        <ele>19</ele>
        <time>2011-04-19T11:53:21Z</time>
      </trkpt>
      <trkpt lat="48.10498" lon="-4.42048">
        <ele>18</ele>
        <time>2011-04-19T11:53:31Z</time>
      </trkpt>
      <trkpt lat="48.10506" lon="-4.42038">
        <ele>11</ele>
        <time>2011-04-19T11:53:48Z</time>
      </trkpt>
      <trkpt lat="48.10513" lon="-4.42025">
        <ele>12</ele>
        <time>2011-04-19T11:54:05Z</time>
      </trkpt>
      <trkpt lat="48.10517" lon="-4.42015">
        <ele>13</ele>
        <time>2011-04-19T11:54:16Z</time>
      </trkpt>
      <trkpt lat="48.10517" lon="-4.4201">
        <ele>13</ele>
        <time>2011-04-19T11:54:21Z</time>
      </trkpt>
      <trkpt lat="48.10503" lon="-4.41979">
        <ele>15</ele>
        <time>2011-04-19T11:54:40Z</time>
      </trkpt>
      <trkpt lat="48.10493" lon="-4.41968">
        <ele>26</ele>
        <time>2011-04-19T11:54:53Z</time>
      </trkpt>
      <trkpt lat="48.10481" lon="-4.41957">
        <ele>28</ele>
        <time>2011-04-19T11:55:08Z</time>
      </trkpt>
      <trkpt lat="48.10468" lon="-4.41947">
        <ele>30</ele>
        <time>2011-04-19T11:55:26Z</time>
      </trkpt>
      <trkpt lat="48.10463" lon="-4.4193">
        <ele>31</ele>
        <time>2011-04-19T11:55:44Z</time>
      </trkpt>
      <trkpt lat="48.10463" lon="-4.41929">
        <ele>31</ele>
        <time>2011-04-19T11:55:45Z</time>
      </trkpt>
      <trkpt lat="48.10467" lon="-4.41913">
        <ele>35</ele>
        <time>2011-04-19T11:56:01Z</time>
      </trkpt>
      <trkpt lat="48.10473" lon="-4.41909">
        <ele>33</ele>
        <time>2011-04-19T11:56:12Z</time>
      </trkpt>
      <trkpt lat="48.10493" lon="-4.41887">
        <ele>34</ele>
        <time>2011-04-19T11:56:34Z</time>
      </trkpt>
      <trkpt lat="48.10514" lon="-4.41861">
        <ele>25</ele>
        <time>2011-04-19T11:56:58Z</time>
      </trkpt>
      <trkpt lat="48.10531" lon="-4.41838">
        <ele>25</ele>
        <time>2011-04-19T11:57:18Z</time>
      </trkpt>
      <trkpt lat="48.10548" lon="-4.41824">
        <ele>28</ele>
        <time>2011-04-19T11:57:38Z</time>
      </trkpt>
      <trkpt lat="48.10561" lon="-4.41817">
        <ele>25</ele>
        <time>2011-04-19T11:57:58Z</time>
      </trkpt>
      <trkpt lat="48.10557" lon="-4.41812">
        <ele>27</ele>
        <time>2011-04-19T11:58:04Z</time>
      </trkpt>
      <trkpt lat="48.10548" lon="-4.4178">
        <ele>31</ele>
        <time>2011-04-19T11:58:22Z</time>
      </trkpt>
      <trkpt lat="48.10544" lon="-4.41744">
        <ele>38</ele>
        <time>2011-04-19T11:58:44Z</time>
      </trkpt>
      <trkpt lat="48.10539" lon="-4.41717">
        <ele>39</ele>
        <time>2011-04-19T11:59:00Z</time>
      </trkpt>
      <trkpt lat="48.10548" lon="-4.41681">
        <ele>39</ele>
        <time>2011-04-19T11:59:21Z</time>
      </trkpt>
      <trkpt lat="48.10568" lon="-4.4167">
        <ele>36</ele>
        <time>2011-04-19T11:59:41Z</time>
      </trkpt>
      <trkpt lat="48.1058" lon="-4.41672">
        <ele>34</ele>
        <time>2011-04-19T11:59:52Z</time>
      </trkpt>
      <trkpt lat="48.1059" lon="-4.41668">
        <ele>32</ele>
        <time>2011-04-19T12:00:00Z</time>
      </trkpt>
      <trkpt lat="48.10592" lon="-4.41663">
        <ele>32</ele>
        <time>2011-04-19T12:00:04Z</time>
      </trkpt>
      <trkpt lat="48.10603" lon="-4.41644">
        <ele>30</ele>
        <time>2011-04-19T12:00:23Z</time>
      </trkpt>
      <trkpt lat="48.10604" lon="-4.41628">
        <ele>29</ele>
        <time>2011-04-19T12:00:39Z</time>
      </trkpt>
      <trkpt lat="48.10603" lon="-4.41614">
        <ele>30</ele>
        <time>2011-04-19T12:00:51Z</time>
      </trkpt>
      <trkpt lat="48.10608" lon="-4.41604">
        <ele>29</ele>
        <time>2011-04-19T12:01:03Z</time>
      </trkpt>
      <trkpt lat="48.10613" lon="-4.41598">
        <ele>28</ele>
        <time>2011-04-19T12:01:13Z</time>
      </trkpt>
      <trkpt lat="48.10617" lon="-4.41583">
        <ele>25</ele>
        <time>2011-04-19T12:01:30Z</time>
      </trkpt>
      <trkpt lat="48.10618" lon="-4.41582">
        <ele>25</ele>
        <time>2011-04-19T12:01:31Z</time>
      </trkpt>
      <trkpt lat="48.10618" lon="-4.41562">
        <ele>24</ele>
        <time>2011-04-19T12:01:46Z</time>
      </trkpt>
      <trkpt lat="48.10619" lon="-4.41559">
        <ele>24</ele>
        <time>2011-04-19T12:01:48Z</time>
      </trkpt>
      <trkpt lat="48.10623" lon="-4.4154">
        <ele>23</ele>
        <time>2011-04-19T12:02:02Z</time>
      </trkpt>
      <trkpt lat="48.10629" lon="-4.41518">
        <ele>21</ele>
        <time>2011-04-19T12:02:20Z</time>
      </trkpt>
      <trkpt lat="48.10628" lon="-4.41508">
        <ele>21</ele>
        <time>2011-04-19T12:02:25Z</time>
      </trkpt>
      <trkpt lat="48.10627" lon="-4.41505">
        <ele>22</ele>
        <time>2011-04-19T12:02:27Z</time>
      </trkpt>
      <trkpt lat="48.10636" lon="-4.41493">
        <ele>18</ele>
        <time>2011-04-19T12:02:45Z</time>
      </trkpt>
      <trkpt lat="48.10644" lon="-4.41492">
        <ele>16</ele>
        <time>2011-04-19T12:02:52Z</time>
      </trkpt>
      <trkpt lat="48.10651" lon="-4.41477">
        <ele>16</ele>
        <time>2011-04-19T12:03:03Z</time>
      </trkpt>
      <trkpt lat="48.10654" lon="-4.41464">
        <ele>16</ele>
        <time>2011-04-19T12:03:13Z</time>
      </trkpt>
      <trkpt lat="48.10649" lon="-4.41452">
        <ele>17</ele>
        <time>2011-04-19T12:03:27Z</time>
      </trkpt>
      <trkpt lat="48.10641" lon="-4.41433">
        <ele>17</ele>
        <time>2011-04-19T12:03:41Z</time>
      </trkpt>
      <trkpt lat="48.10628" lon="-4.41413">
        <ele>20</ele>
        <time>2011-04-19T12:03:58Z</time>
      </trkpt>
      <trkpt lat="48.10625" lon="-4.41401">
        <ele>21</ele>
        <time>2011-04-19T12:04:09Z</time>
      </trkpt>
      <trkpt lat="48.10626" lon="-4.4139">
        <ele>21</ele>
        <time>2011-04-19T12:04:16Z</time>
      </trkpt>
      <trkpt lat="48.10631" lon="-4.41385">
        <ele>20</ele>
        <time>2011-04-19T12:04:19Z</time>
      </trkpt>
      <trkpt lat="48.10633" lon="-4.41379">
        <ele>20</ele>
        <time>2011-04-19T12:04:24Z</time>
      </trkpt>
      <trkpt lat="48.10637" lon="-4.41374">
        <ele>20</ele>
        <time>2011-04-19T12:04:28Z</time>
      </trkpt>
      <trkpt lat="48.10652" lon="-4.41336">
        <ele>15</ele>
        <time>2011-04-19T12:04:53Z</time>
      </trkpt>
      <trkpt lat="48.10659" lon="-4.41323">
        <ele>16</ele>
        <time>2011-04-19T12:05:04Z</time>
      </trkpt>
      <trkpt lat="48.10663" lon="-4.41307">
        <ele>19</ele>
        <time>2011-04-19T12:05:17Z</time>
      </trkpt>
      <trkpt lat="48.10663" lon="-4.41299">
        <ele>20</ele>
        <time>2011-04-19T12:05:22Z</time>
      </trkpt>
      <trkpt lat="48.1067" lon="-4.41284">
        <ele>12</ele>
        <time>2011-04-19T12:05:32Z</time>
      </trkpt>
      <trkpt lat="48.1066" lon="-4.41269">
        <ele>19</ele>
        <time>2011-04-19T12:05:42Z</time>
      </trkpt>
      <trkpt lat="48.10656" lon="-4.41261">
        <ele>19</ele>
        <time>2011-04-19T12:05:47Z</time>
      </trkpt>
      <trkpt lat="48.10648" lon="-4.41239">
        <ele>19</ele>
        <time>2011-04-19T12:06:01Z</time>
      </trkpt>
      <trkpt lat="48.10644" lon="-4.41219">
        <ele>20</ele>
        <time>2011-04-19T12:06:14Z</time>
      </trkpt>
      <trkpt lat="48.10644" lon="-4.41214">
        <ele>20</ele>
        <time>2011-04-19T12:06:17Z</time>
      </trkpt>
      <trkpt lat="48.10642" lon="-4.41201">
        <ele>20</ele>
        <time>2011-04-19T12:06:31Z</time>
      </trkpt>
      <trkpt lat="48.10643" lon="-4.41196">
        <ele>19</ele>
        <time>2011-04-19T12:06:35Z</time>
      </trkpt>
      <trkpt lat="48.10641" lon="-4.41177">
        <ele>17</ele>
        <time>2011-04-19T12:06:50Z</time>
      </trkpt>
      <trkpt lat="48.10636" lon="-4.41164">
        <ele>17</ele>
        <time>2011-04-19T12:07:01Z</time>
      </trkpt>
      <trkpt lat="48.10631" lon="-4.41145">
        <ele>19</ele>
        <time>2011-04-19T12:07:15Z</time>
      </trkpt>
      <trkpt lat="48.10625" lon="-4.41134">
        <ele>21</ele>
        <time>2011-04-19T12:07:25Z</time>
      </trkpt>
      <trkpt lat="48.10629" lon="-4.41131">
        <ele>20</ele>
        <time>2011-04-19T12:07:27Z</time>
      </trkpt>
      <trkpt lat="48.10627" lon="-4.41122">
        <ele>21</ele>
        <time>2011-04-19T12:07:36Z</time>
      </trkpt>
      <trkpt lat="48.10624" lon="-4.41115">
        <ele>21</ele>
        <time>2011-04-19T12:07:42Z</time>
      </trkpt>
      <trkpt lat="48.10618" lon="-4.41093">
        <ele>22</ele>
        <time>2011-04-19T12:07:57Z</time>
      </trkpt>
      <trkpt lat="48.10617" lon="-4.41088">
        <ele>23</ele>
        <time>2011-04-19T12:08:02Z</time>
      </trkpt>
      <trkpt lat="48.10617" lon="-4.41076">
        <ele>22</ele>
        <time>2011-04-19T12:08:11Z</time>
      </trkpt>
      <trkpt lat="48.10619" lon="-4.41063">
        <ele>21</ele>
        <time>2011-04-19T12:08:20Z</time>
      </trkpt>
      <trkpt lat="48.10611" lon="-4.41045">
        <ele>20</ele>
        <time>2011-04-19T12:08:34Z</time>
      </trkpt>
      <trkpt lat="48.10608" lon="-4.41042">
        <ele>20</ele>
        <time>2011-04-19T12:08:49Z</time>
      </trkpt>
      <trkpt lat="48.10608" lon="-4.4104">
        <ele>20</ele>
        <time>2011-04-19T12:08:59Z</time>
      </trkpt>
      <trkpt lat="48.10595" lon="-4.41018">
        <ele>17</ele>
        <time>2011-04-19T12:09:14Z</time>
      </trkpt>
      <trkpt lat="48.10585" lon="-4.41007">
        <ele>16</ele>
        <time>2011-04-19T12:09:25Z</time>
      </trkpt>
      <trkpt lat="48.10574" lon="-4.40995">
        <ele>17</ele>
        <time>2011-04-19T12:09:38Z</time>
      </trkpt>
      <trkpt lat="48.10572" lon="-4.40987">
        <ele>18</ele>
        <time>2011-04-19T12:09:50Z</time>
      </trkpt>
      <trkpt lat="48.10571" lon="-4.40985">
        <ele>19</ele>
        <time>2011-04-19T12:09:51Z</time>
      </trkpt>
      <trkpt lat="48.10573" lon="-4.40978">
        <ele>19</ele>
        <time>2011-04-19T12:09:57Z</time>
      </trkpt>
      <trkpt lat="48.10571" lon="-4.40957">
        <ele>21</ele>
        <time>2011-04-19T12:10:14Z</time>
      </trkpt>
      <trkpt lat="48.10564" lon="-4.4094">
        <ele>22</ele>
        <time>2011-04-19T12:10:31Z</time>
      </trkpt>
      <trkpt lat="48.10551" lon="-4.40936">
        <ele>22</ele>
        <time>2011-04-19T12:10:49Z</time>
      </trkpt>
      <trkpt lat="48.10544" lon="-4.40928">
        <ele>22</ele>
        <time>2011-04-19T12:10:58Z</time>
      </trkpt>
      <trkpt lat="48.10541" lon="-4.40928">
        <ele>22</ele>
        <time>2011-04-19T12:11:00Z</time>
      </trkpt>
      <trkpt lat="48.10539" lon="-4.40926">
        <ele>22</ele>
        <time>2011-04-19T12:11:02Z</time>
      </trkpt>
      <trkpt lat="48.10532" lon="-4.40919">
        <ele>22</ele>
        <time>2011-04-19T12:11:13Z</time>
      </trkpt>
      <trkpt lat="48.10524" lon="-4.40905">
        <ele>17</ele>
        <time>2011-04-19T12:11:16Z</time>
      </trkpt>
      <trkpt lat="48.10522" lon="-4.409">
        <ele>17</ele>
        <time>2011-04-19T12:11:19Z</time>
      </trkpt>
      <trkpt lat="48.10517" lon="-4.40893">
        <ele>17</ele>
        <time>2011-04-19T12:11:31Z</time>
      </trkpt>
      <trkpt lat="48.10504" lon="-4.40883">
        <ele>15</ele>
        <time>2011-04-19T12:11:49Z</time>
      </trkpt>
      <trkpt lat="48.10494" lon="-4.4087">
        <ele>21</ele>
        <time>2011-04-19T12:12:07Z</time>
      </trkpt>
      <trkpt lat="48.1048" lon="-4.40846">
        <ele>18</ele>
        <time>2011-04-19T12:12:21Z</time>
      </trkpt>
      <trkpt lat="48.1047" lon="-4.40828">
        <ele>16</ele>
        <time>2011-04-19T12:12:39Z</time>
      </trkpt>
      <trkpt lat="48.10453" lon="-4.40817">
        <ele>20</ele>
        <time>2011-04-19T12:12:57Z</time>
      </trkpt>
      <trkpt lat="48.10446" lon="-4.40802">
        <ele>21</ele>
        <time>2011-04-19T12:13:16Z</time>
      </trkpt>
      <trkpt lat="48.10446" lon="-4.408">
        <ele>21</ele>
        <time>2011-04-19T12:13:17Z</time>
      </trkpt>
      <trkpt lat="48.10455" lon="-4.40785">
        <ele>19</ele>
        <time>2011-04-19T12:13:25Z</time>
      </trkpt>
      <trkpt lat="48.10445" lon="-4.40772">
        <ele>19</ele>
        <time>2011-04-19T12:13:39Z</time>
      </trkpt>
      <trkpt lat="48.1044" lon="-4.40762">
        <ele>19</ele>
        <time>2011-04-19T12:13:51Z</time>
      </trkpt>
      <trkpt lat="48.10437" lon="-4.40754">
        <ele>18</ele>
        <time>2011-04-19T12:13:56Z</time>
      </trkpt>
      <trkpt lat="48.10441" lon="-4.40723">
        <ele>13</ele>
        <time>2011-04-19T12:14:16Z</time>
      </trkpt>
      <trkpt lat="48.10441" lon="-4.40712">
        <ele>12</ele>
        <time>2011-04-19T12:14:21Z</time>
      </trkpt>
      <trkpt lat="48.10429" lon="-4.40706">
        <ele>11</ele>
        <time>2011-04-19T12:14:34Z</time>
      </trkpt>
      <trkpt lat="48.10406" lon="-4.40698">
        <ele>16</ele>
        <time>2011-04-19T12:14:50Z</time>
      </trkpt>
      <trkpt lat="48.10374" lon="-4.40686">
        <ele>19</ele>
        <time>2011-04-19T12:15:06Z</time>
      </trkpt>
      <trkpt lat="48.10362" lon="-4.40698">
        <ele>20</ele>
        <time>2011-04-19T12:15:28Z</time>
      </trkpt>
      <trkpt lat="48.10355" lon="-4.40709">
        <ele>21</ele>
        <time>2011-04-19T12:16:30Z</time>
      </trkpt>
      <trkpt lat="48.1034" lon="-4.40706">
        <ele>22</ele>
        <time>2011-04-19T12:16:45Z</time>
      </trkpt>
      <trkpt lat="48.10334" lon="-4.40698">
        <ele>22</ele>
        <time>2011-04-19T12:17:16Z</time>
      </trkpt>
      <trkpt lat="48.10339" lon="-4.40677">
        <ele>23</ele>
        <time>2011-04-19T12:17:44Z</time>
      </trkpt>
      <trkpt lat="48.10357" lon="-4.40654">
        <ele>22</ele>
        <time>2011-04-19T12:18:02Z</time>
      </trkpt>
      <trkpt lat="48.10355" lon="-4.40648">
        <ele>23</ele>
        <time>2011-04-19T12:18:06Z</time>
      </trkpt>
      <trkpt lat="48.10366" lon="-4.4062">
        <ele>23</ele>
        <time>2011-04-19T12:18:24Z</time>
      </trkpt>
      <trkpt lat="48.10365" lon="-4.40601">
        <ele>25</ele>
        <time>2011-04-19T12:18:40Z</time>
      </trkpt>
      <trkpt lat="48.10368" lon="-4.40567">
        <ele>31</ele>
        <time>2011-04-19T12:18:55Z</time>
      </trkpt>
      <trkpt lat="48.1037" lon="-4.40556">
        <ele>31</ele>
        <time>2011-04-19T12:19:00Z</time>
      </trkpt>
      <trkpt lat="48.10376" lon="-4.40529">
        <ele>31</ele>
        <time>2011-04-19T12:19:16Z</time>
      </trkpt>
      <trkpt lat="48.10375" lon="-4.40505">
        <ele>31</ele>
        <time>2011-04-19T12:19:28Z</time>
      </trkpt>
      <trkpt lat="48.10376" lon="-4.40499">
        <ele>26</ele>
        <time>2011-04-19T12:19:32Z</time>
      </trkpt>
      <trkpt lat="48.10379" lon="-4.40475">
        <ele>25</ele>
        <time>2011-04-19T12:19:44Z</time>
      </trkpt>
      <trkpt lat="48.10382" lon="-4.4047">
        <ele>24</ele>
        <time>2011-04-19T12:19:49Z</time>
      </trkpt>
      <trkpt lat="48.10384" lon="-4.40433">
        <ele>22</ele>
        <time>2011-04-19T12:20:05Z</time>
      </trkpt>
      <trkpt lat="48.10381" lon="-4.40428">
        <ele>22</ele>
        <time>2011-04-19T12:20:07Z</time>
      </trkpt>
      <trkpt lat="48.10375" lon="-4.40414">
        <ele>25</ele>
        <time>2011-04-19T12:20:20Z</time>
      </trkpt>
      <trkpt lat="48.10377" lon="-4.4041">
        <ele>25</ele>
        <time>2011-04-19T12:20:24Z</time>
      </trkpt>
      <trkpt lat="48.10389" lon="-4.40422">
        <ele>21</ele>
        <time>2011-04-19T12:20:34Z</time>
      </trkpt>
      <trkpt lat="48.1038" lon="-4.40434">
        <ele>22</ele>
        <time>2011-04-19T12:20:45Z</time>
      </trkpt>
      <trkpt lat="48.10382" lon="-4.40439">
        <ele>22</ele>
        <time>2011-04-19T12:21:06Z</time>
      </trkpt>
      <trkpt lat="48.1039" lon="-4.40439">
        <ele>21</ele>
        <time>2011-04-19T12:21:40Z</time>
      </trkpt>
      <trkpt lat="48.10398" lon="-4.40436">
        <ele>20</ele>
        <time>2011-04-19T12:21:54Z</time>
      </trkpt>
      <trkpt lat="48.10408" lon="-4.40433">
        <ele>18</ele>
        <time>2011-04-19T12:22:04Z</time>
      </trkpt>
      <trkpt lat="48.10428" lon="-4.40432">
        <ele>13</ele>
        <time>2011-04-19T12:22:20Z</time>
      </trkpt>
      <trkpt lat="48.10443" lon="-4.40426">
        <ele>13</ele>
        <time>2011-04-19T12:22:35Z</time>
      </trkpt>
      <trkpt lat="48.10466" lon="-4.40409">
        <ele>18</ele>
        <time>2011-04-19T12:22:50Z</time>
      </trkpt>
      <trkpt lat="48.10483" lon="-4.404">
        <ele>17</ele>
        <time>2011-04-19T12:23:03Z</time>
      </trkpt>
      <trkpt lat="48.10485" lon="-4.40401">
        <ele>17</ele>
        <time>2011-04-19T12:23:11Z</time>
      </trkpt>
      <trkpt lat="48.10495" lon="-4.40406">
        <ele>14</ele>
        <time>2011-04-19T12:23:20Z</time>
      </trkpt>
      <trkpt lat="48.10505" lon="-4.40403">
        <ele>13</ele>
        <time>2011-04-19T12:23:34Z</time>
      </trkpt>
      <trkpt lat="48.10514" lon="-4.40386">
        <ele>16</ele>
        <time>2011-04-19T12:23:53Z</time>
      </trkpt>
      <trkpt lat="48.10526" lon="-4.40373">
        <ele>18</ele>
        <time>2011-04-19T12:24:09Z</time>
      </trkpt>
      <trkpt lat="48.10539" lon="-4.40367">
        <ele>19</ele>
        <time>2011-04-19T12:24:20Z</time>
      </trkpt>
      <trkpt lat="48.10541" lon="-4.40361">
        <ele>19</ele>
        <time>2011-04-19T12:24:25Z</time>
      </trkpt>
      <trkpt lat="48.10539" lon="-4.40346">
        <ele>21</ele>
        <time>2011-04-19T12:24:36Z</time>
      </trkpt>
      <trkpt lat="48.10536" lon="-4.40331">
        <ele>28</ele>
        <time>2011-04-19T12:24:51Z</time>
      </trkpt>
      <trkpt lat="48.10532" lon="-4.40322">
        <ele>28</ele>
        <time>2011-04-19T12:25:01Z</time>
      </trkpt>
      <trkpt lat="48.10532" lon="-4.40319">
        <ele>29</ele>
        <time>2011-04-19T12:25:03Z</time>
      </trkpt>
      <trkpt lat="48.1053" lon="-4.40313">
        <ele>29</ele>
        <time>2011-04-19T12:25:08Z</time>
      </trkpt>
      <trkpt lat="48.10533" lon="-4.40296">
        <ele>30</ele>
        <time>2011-04-19T12:25:23Z</time>
      </trkpt>
      <trkpt lat="48.10538" lon="-4.4029">
        <ele>30</ele>
        <time>2011-04-19T12:25:28Z</time>
      </trkpt>
      <trkpt lat="48.10537" lon="-4.40284">
        <ele>30</ele>
        <time>2011-04-19T12:25:31Z</time>
      </trkpt>
      <trkpt lat="48.10529" lon="-4.40268">
        <ele>31</ele>
        <time>2011-04-19T12:25:46Z</time>
      </trkpt>
      <trkpt lat="48.10529" lon="-4.40251">
        <ele>32</ele>
        <time>2011-04-19T12:26:01Z</time>
      </trkpt>
      <trkpt lat="48.10526" lon="-4.40234">
        <ele>34</ele>
        <time>2011-04-19T12:26:15Z</time>
      </trkpt>
      <trkpt lat="48.1052" lon="-4.40213">
        <ele>34</ele>
        <time>2011-04-19T12:26:28Z</time>
      </trkpt>
      <trkpt lat="48.10518" lon="-4.40208">
        <ele>33</ele>
        <time>2011-04-19T12:26:31Z</time>
      </trkpt>
      <trkpt lat="48.10515" lon="-4.40195">
        <ele>33</ele>
        <time>2011-04-19T12:26:48Z</time>
      </trkpt>
      <trkpt lat="48.10509" lon="-4.40184">
        <ele>33</ele>
        <time>2011-04-19T12:27:01Z</time>
      </trkpt>
      <trkpt lat="48.10507" lon="-4.40172">
        <ele>33</ele>
        <time>2011-04-19T12:27:17Z</time>
      </trkpt>
      <trkpt lat="48.10501" lon="-4.40152">
        <ele>32</ele>
        <time>2011-04-19T12:27:28Z</time>
      </trkpt>
      <trkpt lat="48.10503" lon="-4.40137">
        <ele>31</ele>
        <time>2011-04-19T12:27:37Z</time>
      </trkpt>
      <trkpt lat="48.1051" lon="-4.40128">
        <ele>30</ele>
        <time>2011-04-19T12:27:49Z</time>
      </trkpt>
      <trkpt lat="48.10518" lon="-4.40117">
        <ele>30</ele>
        <time>2011-04-19T12:28:01Z</time>
      </trkpt>
      <trkpt lat="48.10521" lon="-4.40101">
        <ele>29</ele>
        <time>2011-04-19T12:28:13Z</time>
      </trkpt>
      <trkpt lat="48.10525" lon="-4.40084">
        <ele>28</ele>
        <time>2011-04-19T12:28:29Z</time>
      </trkpt>
      <trkpt lat="48.10524" lon="-4.40067">
        <ele>25</ele>
        <time>2011-04-19T12:28:47Z</time>
      </trkpt>
      <trkpt lat="48.10526" lon="-4.40045">
        <ele>24</ele>
        <time>2011-04-19T12:29:05Z</time>
      </trkpt>
      <trkpt lat="48.10526" lon="-4.40034">
        <ele>24</ele>
        <time>2011-04-19T12:29:12Z</time>
      </trkpt>
      <trkpt lat="48.10528" lon="-4.40013">
        <ele>23</ele>
        <time>2011-04-19T12:29:26Z</time>
      </trkpt>
      <trkpt lat="48.10534" lon="-4.40011">
        <ele>23</ele>
        <time>2011-04-19T12:29:43Z</time>
      </trkpt>
      <trkpt lat="48.10534" lon="-4.4001">
        <ele>23</ele>
        <time>2011-04-19T12:29:47Z</time>
      </trkpt>
      <trkpt lat="48.10529" lon="-4.39994">
        <ele>19</ele>
        <time>2011-04-19T12:30:01Z</time>
      </trkpt>
      <trkpt lat="48.1052" lon="-4.39981">
        <ele>18</ele>
        <time>2011-04-19T12:30:16Z</time>
      </trkpt>
      <trkpt lat="48.1051" lon="-4.39964">
        <ele>17</ele>
        <time>2011-04-19T12:30:30Z</time>
      </trkpt>
      <trkpt lat="48.10507" lon="-4.39957">
        <ele>16</ele>
        <time>2011-04-19T12:31:06Z</time>
      </trkpt>
      <trkpt lat="48.105" lon="-4.39943">
        <ele>23</ele>
        <time>2011-04-19T12:31:22Z</time>
      </trkpt>
      <trkpt lat="48.10495" lon="-4.39938">
        <ele>23</ele>
        <time>2011-04-19T12:31:31Z</time>
      </trkpt>
      <trkpt lat="48.10489" lon="-4.39925">
        <ele>20</ele>
        <time>2011-04-19T12:31:43Z</time>
      </trkpt>
      <trkpt lat="48.10484" lon="-4.39916">
        <ele>19</ele>
        <time>2011-04-19T12:31:50Z</time>
      </trkpt>
      <trkpt lat="48.10476" lon="-4.39906">
        <ele>22</ele>
        <time>2011-04-19T12:32:02Z</time>
      </trkpt>
      <trkpt lat="48.10475" lon="-4.39888">
        <ele>23</ele>
        <time>2011-04-19T12:32:17Z</time>
      </trkpt>
      <trkpt lat="48.10475" lon="-4.39886">
        <ele>24</ele>
        <time>2011-04-19T12:32:18Z</time>
      </trkpt>
      <trkpt lat="48.10476" lon="-4.39863">
        <ele>22</ele>
        <time>2011-04-19T12:32:32Z</time>
      </trkpt>
      <trkpt lat="48.1047" lon="-4.39853">
        <ele>23</ele>
        <time>2011-04-19T12:32:39Z</time>
      </trkpt>
      <trkpt lat="48.10469" lon="-4.39835">
        <ele>22</ele>
        <time>2011-04-19T12:32:46Z</time>
      </trkpt>
      <trkpt lat="48.10469" lon="-4.39828">
        <ele>24</ele>
        <time>2011-04-19T12:32:50Z</time>
      </trkpt>
      <trkpt lat="48.10472" lon="-4.39801">
        <ele>27</ele>
        <time>2011-04-19T12:33:04Z</time>
      </trkpt>
      <trkpt lat="48.10471" lon="-4.39795">
        <ele>28</ele>
        <time>2011-04-19T12:33:08Z</time>
      </trkpt>
      <trkpt lat="48.10466" lon="-4.39788">
        <ele>30</ele>
        <time>2011-04-19T12:33:32Z</time>
      </trkpt>
      <trkpt lat="48.10464" lon="-4.3979">
        <ele>30</ele>
        <time>2011-04-19T12:35:28Z</time>
      </trkpt>
      <trkpt lat="48.10465" lon="-4.39782">
        <ele>31</ele>
        <time>2011-04-19T12:38:32Z</time>
      </trkpt>
      <trkpt lat="48.10466" lon="-4.39769">
        <ele>32</ele>
        <time>2011-04-19T12:38:40Z</time>
      </trkpt>
      <trkpt lat="48.10466" lon="-4.39766">
        <ele>33</ele>
        <time>2011-04-19T12:38:43Z</time>
      </trkpt>
      <trkpt lat="48.10468" lon="-4.39755">
        <ele>33</ele>
        <time>2011-04-19T12:38:56Z</time>
      </trkpt>
      <trkpt lat="48.10466" lon="-4.39738">
        <ele>42</ele>
        <time>2011-04-19T12:39:07Z</time>
      </trkpt>
      <trkpt lat="48.10448" lon="-4.39716">
        <ele>42</ele>
        <time>2011-04-19T12:39:25Z</time>
      </trkpt>
      <trkpt lat="48.10441" lon="-4.39701">
        <ele>41</ele>
        <time>2011-04-19T12:39:36Z</time>
      </trkpt>
      <trkpt lat="48.10443" lon="-4.397">
        <ele>41</ele>
        <time>2011-04-19T12:39:38Z</time>
      </trkpt>
      <trkpt lat="48.10441" lon="-4.39696">
        <ele>41</ele>
        <time>2011-04-19T12:39:42Z</time>
      </trkpt>
      <trkpt lat="48.10441" lon="-4.39692">
        <ele>41</ele>
        <time>2011-04-19T12:39:44Z</time>
      </trkpt>
      <trkpt lat="48.10439" lon="-4.39683">
        <ele>40</ele>
        <time>2011-04-19T12:39:48Z</time>
      </trkpt>
      <trkpt lat="48.1043" lon="-4.39664">
        <ele>38</ele>
        <time>2011-04-19T12:40:02Z</time>
      </trkpt>
      <trkpt lat="48.10431" lon="-4.3965">
        <ele>38</ele>
        <time>2011-04-19T12:40:12Z</time>
      </trkpt>
      <trkpt lat="48.10431" lon="-4.3964">
        <ele>37</ele>
        <time>2011-04-19T12:40:19Z</time>
      </trkpt>
      <trkpt lat="48.10434" lon="-4.39627">
        <ele>37</ele>
        <time>2011-04-19T12:40:27Z</time>
      </trkpt>
      <trkpt lat="48.10434" lon="-4.39623">
        <ele>36</ele>
        <time>2011-04-19T12:40:30Z</time>
      </trkpt>
      <trkpt lat="48.10436" lon="-4.39616">
        <ele>36</ele>
        <time>2011-04-19T12:40:35Z</time>
      </trkpt>
      <trkpt lat="48.10439" lon="-4.39611">
        <ele>36</ele>
        <time>2011-04-19T12:40:39Z</time>
      </trkpt>
      <trkpt lat="48.10444" lon="-4.39605">
        <ele>36</ele>
        <time>2011-04-19T12:40:43Z</time>
      </trkpt>
      <trkpt lat="48.10447" lon="-4.39601">
        <ele>36</ele>
        <time>2011-04-19T12:40:46Z</time>
      </trkpt>
      <trkpt lat="48.10447" lon="-4.39598">
        <ele>36</ele>
        <time>2011-04-19T12:40:48Z</time>
      </trkpt>
      <trkpt lat="48.10442" lon="-4.39595">
        <ele>35</ele>
        <time>2011-04-19T12:41:01Z</time>
      </trkpt>
      <trkpt lat="48.10433" lon="-4.39585">
        <ele>35</ele>
        <time>2011-04-19T12:41:14Z</time>
      </trkpt>
      <trkpt lat="48.10428" lon="-4.39576">
        <ele>33</ele>
        <time>2011-04-19T12:41:21Z</time>
      </trkpt>
      <trkpt lat="48.10427" lon="-4.39573">
        <ele>33</ele>
        <time>2011-04-19T12:41:23Z</time>
      </trkpt>
      <trkpt lat="48.1042" lon="-4.3955">
        <ele>32</ele>
        <time>2011-04-19T12:41:37Z</time>
      </trkpt>
      <trkpt lat="48.10419" lon="-4.39543">
        <ele>32</ele>
        <time>2011-04-19T12:41:42Z</time>
      </trkpt>
      <trkpt lat="48.10417" lon="-4.39536">
        <ele>32</ele>
        <time>2011-04-19T12:41:46Z</time>
      </trkpt>
      <trkpt lat="48.10416" lon="-4.39531">
        <ele>40</ele>
        <time>2011-04-19T12:41:49Z</time>
      </trkpt>
      <trkpt lat="48.10415" lon="-4.39526">
        <ele>40</ele>
        <time>2011-04-19T12:41:52Z</time>
      </trkpt>
      <trkpt lat="48.10413" lon="-4.39517">
        <ele>38</ele>
        <time>2011-04-19T12:41:58Z</time>
      </trkpt>
      <trkpt lat="48.1041" lon="-4.39511">
        <ele>37</ele>
        <time>2011-04-19T12:42:02Z</time>
      </trkpt>
      <trkpt lat="48.1041" lon="-4.39496">
        <ele>34</ele>
        <time>2011-04-19T12:42:14Z</time>
      </trkpt>
      <trkpt lat="48.10403" lon="-4.39473">
        <ele>39</ele>
        <time>2011-04-19T12:42:27Z</time>
      </trkpt>
      <trkpt lat="48.10402" lon="-4.39464">
        <ele>39</ele>
        <time>2011-04-19T12:42:32Z</time>
      </trkpt>
      <trkpt lat="48.104" lon="-4.39454">
        <ele>39</ele>
        <time>2011-04-19T12:42:39Z</time>
      </trkpt>
      <trkpt lat="48.10397" lon="-4.39445">
        <ele>39</ele>
        <time>2011-04-19T12:42:54Z</time>
      </trkpt>
      <trkpt lat="48.1039" lon="-4.39426">
        <ele>39</ele>
        <time>2011-04-19T12:43:10Z</time>
      </trkpt>
      <trkpt lat="48.10393" lon="-4.39424">
        <ele>38</ele>
        <time>2011-04-19T12:43:12Z</time>
      </trkpt>
      <trkpt lat="48.10394" lon="-4.39416">
        <ele>37</ele>
        <time>2011-04-19T12:43:17Z</time>
      </trkpt>
      <trkpt lat="48.10403" lon="-4.39394">
        <ele>38</ele>
        <time>2011-04-19T12:43:34Z</time>
      </trkpt>
      <trkpt lat="48.10407" lon="-4.39388">
        <ele>38</ele>
        <time>2011-04-19T12:43:43Z</time>
      </trkpt>
      <trkpt lat="48.10405" lon="-4.39378">
        <ele>40</ele>
        <time>2011-04-19T12:43:47Z</time>
      </trkpt>
      <trkpt lat="48.10405" lon="-4.39373">
        <ele>40</ele>
        <time>2011-04-19T12:43:51Z</time>
      </trkpt>
      <trkpt lat="48.10405" lon="-4.39365">
        <ele>40</ele>
        <time>2011-04-19T12:43:56Z</time>
      </trkpt>
      <trkpt lat="48.10407" lon="-4.39356">
        <ele>40</ele>
        <time>2011-04-19T12:44:01Z</time>
      </trkpt>
      <trkpt lat="48.10413" lon="-4.39338">
        <ele>36</ele>
        <time>2011-04-19T12:44:13Z</time>
      </trkpt>
      <trkpt lat="48.10418" lon="-4.39313">
        <ele>37</ele>
        <time>2011-04-19T12:44:31Z</time>
      </trkpt>
      <trkpt lat="48.10423" lon="-4.39284">
        <ele>40</ele>
        <time>2011-04-19T12:44:50Z</time>
      </trkpt>
      <trkpt lat="48.10429" lon="-4.39273">
        <ele>42</ele>
        <time>2011-04-19T12:44:59Z</time>
      </trkpt>
      <trkpt lat="48.10429" lon="-4.39269">
        <ele>42</ele>
        <time>2011-04-19T12:45:01Z</time>
      </trkpt>
      <trkpt lat="48.10429" lon="-4.39263">
        <ele>43</ele>
        <time>2011-04-19T12:45:04Z</time>
      </trkpt>
      <trkpt lat="48.1043" lon="-4.39252">
        <ele>43</ele>
        <time>2011-04-19T12:45:10Z</time>
      </trkpt>
      <trkpt lat="48.10432" lon="-4.39228">
        <ele>45</ele>
        <time>2011-04-19T12:45:24Z</time>
      </trkpt>
      <trkpt lat="48.10434" lon="-4.39206">
        <ele>45</ele>
        <time>2011-04-19T12:45:39Z</time>
      </trkpt>
      <trkpt lat="48.10434" lon="-4.39197">
        <ele>45</ele>
        <time>2011-04-19T12:45:44Z</time>
      </trkpt>
      <trkpt lat="48.10432" lon="-4.39191">
        <ele>45</ele>
        <time>2011-04-19T12:45:48Z</time>
      </trkpt>
      <trkpt lat="48.10434" lon="-4.39163">
        <ele>43</ele>
        <time>2011-04-19T12:46:07Z</time>
      </trkpt>
      <trkpt lat="48.10437" lon="-4.39152">
        <ele>42</ele>
        <time>2011-04-19T12:46:15Z</time>
      </trkpt>
      <trkpt lat="48.10436" lon="-4.39146">
        <ele>42</ele>
        <time>2011-04-19T12:46:18Z</time>
      </trkpt>
      <trkpt lat="48.10441" lon="-4.39135">
        <ele>41</ele>
        <time>2011-04-19T12:46:25Z</time>
      </trkpt>
      <trkpt lat="48.10439" lon="-4.39118">
        <ele>39</ele>
        <time>2011-04-19T12:46:37Z</time>
      </trkpt>
      <trkpt lat="48.10445" lon="-4.39107">
        <ele>39</ele>
        <time>2011-04-19T12:46:46Z</time>
      </trkpt>
      <trkpt lat="48.10451" lon="-4.39095">
        <ele>38</ele>
        <time>2011-04-19T12:46:59Z</time>
      </trkpt>
      <trkpt lat="48.10458" lon="-4.3908">
        <ele>26</ele>
        <time>2011-04-19T12:47:15Z</time>
      </trkpt>
      <trkpt lat="48.10463" lon="-4.39079">
        <ele>26</ele>
        <time>2011-04-19T12:47:32Z</time>
      </trkpt>
      <trkpt lat="48.10462" lon="-4.3907">
        <ele>25</ele>
        <time>2011-04-19T12:47:48Z</time>
      </trkpt>
      <trkpt lat="48.1046" lon="-4.39059">
        <ele>25</ele>
        <time>2011-04-19T12:47:59Z</time>
      </trkpt>
      <trkpt lat="48.10449" lon="-4.39042">
        <ele>25</ele>
        <time>2011-04-19T12:48:13Z</time>
      </trkpt>
      <trkpt lat="48.10448" lon="-4.39041">
        <ele>25</ele>
        <time>2011-04-19T12:48:14Z</time>
      </trkpt>
      <trkpt lat="48.10447" lon="-4.39037">
        <ele>24</ele>
        <time>2011-04-19T12:48:17Z</time>
      </trkpt>
      <trkpt lat="48.10443" lon="-4.39024">
        <ele>25</ele>
        <time>2011-04-19T12:48:28Z</time>
      </trkpt>
      <trkpt lat="48.10445" lon="-4.39019">
        <ele>24</ele>
        <time>2011-04-19T12:48:33Z</time>
      </trkpt>
      <trkpt lat="48.10444" lon="-4.39016">
        <ele>24</ele>
        <time>2011-04-19T12:48:50Z</time>
      </trkpt>
      <trkpt lat="48.10442" lon="-4.39021">
        <ele>25</ele>
        <time>2011-04-19T12:49:05Z</time>
      </trkpt>
      <trkpt lat="48.10443" lon="-4.39018">
        <ele>25</ele>
        <time>2011-04-19T12:49:18Z</time>
      </trkpt>
      <trkpt lat="48.10443" lon="-4.39018">
        <ele>25</ele>
        <time>2011-04-19T12:49:22Z</time>
      </trkpt>
      <trkpt lat="48.10442" lon="-4.3901">
        <ele>25</ele>
        <time>2011-04-19T12:49:33Z</time>
      </trkpt>
      <trkpt lat="48.10447" lon="-4.38994">
        <ele>22</ele>
        <time>2011-04-19T12:49:50Z</time>
      </trkpt>
      <trkpt lat="48.10449" lon="-4.38984">
        <ele>21</ele>
        <time>2011-04-19T12:50:04Z</time>
      </trkpt>
      <trkpt lat="48.10451" lon="-4.38974">
        <ele>21</ele>
        <time>2011-04-19T12:50:14Z</time>
      </trkpt>
      <trkpt lat="48.10447" lon="-4.38959">
        <ele>22</ele>
        <time>2011-04-19T12:50:25Z</time>
      </trkpt>
      <trkpt lat="48.1045" lon="-4.38946">
        <ele>22</ele>
        <time>2011-04-19T12:50:37Z</time>
      </trkpt>
      <trkpt lat="48.10452" lon="-4.38938">
        <ele>22</ele>
        <time>2011-04-19T12:50:42Z</time>
      </trkpt>
      <trkpt lat="48.10457" lon="-4.38929">
        <ele>21</ele>
        <time>2011-04-19T12:50:49Z</time>
      </trkpt>
      <trkpt lat="48.10467" lon="-4.38899">
        <ele>21</ele>
        <time>2011-04-19T12:51:07Z</time>
      </trkpt>
      <trkpt lat="48.10472" lon="-4.38885">
        <ele>21</ele>
        <time>2011-04-19T12:51:34Z</time>
      </trkpt>
      <trkpt lat="48.10473" lon="-4.38882">
        <ele>21</ele>
        <time>2011-04-19T12:53:03Z</time>
      </trkpt>
      <trkpt lat="48.10476" lon="-4.38881">
        <ele>20</ele>
        <time>2011-04-19T12:54:09Z</time>
      </trkpt>
      <trkpt lat="48.1048" lon="-4.38869">
        <ele>20</ele>
        <time>2011-04-19T12:54:17Z</time>
      </trkpt>
      <trkpt lat="48.10483" lon="-4.38858">
        <ele>19</ele>
        <time>2011-04-19T12:54:25Z</time>
      </trkpt>
      <trkpt lat="48.10482" lon="-4.38853">
        <ele>18</ele>
        <time>2011-04-19T12:54:27Z</time>
      </trkpt>
      <trkpt lat="48.10483" lon="-4.38847">
        <ele>17</ele>
        <time>2011-04-19T12:54:31Z</time>
      </trkpt>
      <trkpt lat="48.10484" lon="-4.38833">
        <ele>18</ele>
        <time>2011-04-19T12:54:40Z</time>
      </trkpt>
      <trkpt lat="48.10481" lon="-4.3881">
        <ele>22</ele>
        <time>2011-04-19T12:54:58Z</time>
      </trkpt>
      <trkpt lat="48.10483" lon="-4.38801">
        <ele>23</ele>
        <time>2011-04-19T12:55:03Z</time>
      </trkpt>
      <trkpt lat="48.10483" lon="-4.38794">
        <ele>24</ele>
        <time>2011-04-19T12:55:06Z</time>
      </trkpt>
      <trkpt lat="48.10481" lon="-4.38777">
        <ele>25</ele>
        <time>2011-04-19T12:55:23Z</time>
      </trkpt>
      <trkpt lat="48.10479" lon="-4.38751">
        <ele>24</ele>
        <time>2011-04-19T12:55:42Z</time>
      </trkpt>
      <trkpt lat="48.10475" lon="-4.38738">
        <ele>30</ele>
        <time>2011-04-19T12:55:53Z</time>
      </trkpt>
      <trkpt lat="48.10474" lon="-4.38729">
        <ele>32</ele>
        <time>2011-04-19T12:56:00Z</time>
      </trkpt>
      <trkpt lat="48.10481" lon="-4.38718">
        <ele>32</ele>
        <time>2011-04-19T12:56:15Z</time>
      </trkpt>
      <trkpt lat="48.10487" lon="-4.38704">
        <ele>33</ele>
        <time>2011-04-19T12:56:36Z</time>
      </trkpt>
      <trkpt lat="48.10492" lon="-4.38698">
        <ele>33</ele>
        <time>2011-04-19T12:56:45Z</time>
      </trkpt>
      <trkpt lat="48.10505" lon="-4.38686">
        <ele>20</ele>
        <time>2011-04-19T12:56:58Z</time>
      </trkpt>
      <trkpt lat="48.10514" lon="-4.38681">
        <ele>20</ele>
        <time>2011-04-19T12:57:20Z</time>
      </trkpt>
      <trkpt lat="48.10516" lon="-4.38678">
        <ele>20</ele>
        <time>2011-04-19T12:57:23Z</time>
      </trkpt>
      <trkpt lat="48.1052" lon="-4.38673">
        <ele>19</ele>
        <time>2011-04-19T12:57:30Z</time>
      </trkpt>
      <trkpt lat="48.10523" lon="-4.38655">
        <ele>25</ele>
        <time>2011-04-19T12:57:47Z</time>
      </trkpt>
      <trkpt lat="48.10521" lon="-4.38649">
        <ele>25</ele>
        <time>2011-04-19T12:58:31Z</time>
      </trkpt>
      <trkpt lat="48.10521" lon="-4.38644">
        <ele>25</ele>
        <time>2011-04-19T12:58:34Z</time>
      </trkpt>
      <trkpt lat="48.10517" lon="-4.38635">
        <ele>26</ele>
        <time>2011-04-19T12:58:42Z</time>
      </trkpt>
      <trkpt lat="48.10508" lon="-4.38606">
        <ele>31</ele>
        <time>2011-04-19T12:59:02Z</time>
      </trkpt>
      <trkpt lat="48.10516" lon="-4.38548">
        <ele>35</ele>
        <time>2011-04-19T12:59:31Z</time>
      </trkpt>
      <trkpt lat="48.10524" lon="-4.38519">
        <ele>35</ele>
        <time>2011-04-19T12:59:47Z</time>
      </trkpt>
      <trkpt lat="48.10529" lon="-4.38495">
        <ele>34</ele>
        <time>2011-04-19T13:00:01Z</time>
      </trkpt>
      <trkpt lat="48.1054" lon="-4.3846">
        <ele>31</ele>
        <time>2011-04-19T13:00:22Z</time>
      </trkpt>
      <trkpt lat="48.10551" lon="-4.38438">
        <ele>29</ele>
        <time>2011-04-19T13:00:39Z</time>
      </trkpt>
      <trkpt lat="48.10551" lon="-4.38436">
        <ele>29</ele>
        <time>2011-04-19T13:00:40Z</time>
      </trkpt>
      <trkpt lat="48.10555" lon="-4.38421">
        <ele>28</ele>
        <time>2011-04-19T13:00:59Z</time>
      </trkpt>
      <trkpt lat="48.10557" lon="-4.38407">
        <ele>31</ele>
        <time>2011-04-19T13:01:13Z</time>
      </trkpt>
      <trkpt lat="48.10557" lon="-4.384">
        <ele>31</ele>
        <time>2011-04-19T13:01:17Z</time>
      </trkpt>
      <trkpt lat="48.10556" lon="-4.38395">
        <ele>32</ele>
        <time>2011-04-19T13:01:20Z</time>
      </trkpt>
      <trkpt lat="48.10561" lon="-4.38363">
        <ele>32</ele>
        <time>2011-04-19T13:01:41Z</time>
      </trkpt>
      <trkpt lat="48.10561" lon="-4.38361">
        <ele>32</ele>
        <time>2011-04-19T13:01:45Z</time>
      </trkpt>
      <trkpt lat="48.10569" lon="-4.38342">
        <ele>29</ele>
        <time>2011-04-19T13:02:01Z</time>
      </trkpt>
      <trkpt lat="48.10566" lon="-4.38329">
        <ele>32</ele>
        <time>2011-04-19T13:02:15Z</time>
      </trkpt>
      <trkpt lat="48.10569" lon="-4.38316">
        <ele>33</ele>
        <time>2011-04-19T13:02:24Z</time>
      </trkpt>
      <trkpt lat="48.10571" lon="-4.3829">
        <ele>36</ele>
        <time>2011-04-19T13:02:43Z</time>
      </trkpt>
      <trkpt lat="48.10583" lon="-4.38271">
        <ele>35</ele>
        <time>2011-04-19T13:02:59Z</time>
      </trkpt>
      <trkpt lat="48.10586" lon="-4.38266">
        <ele>27</ele>
        <time>2011-04-19T13:03:04Z</time>
      </trkpt>
      <trkpt lat="48.10594" lon="-4.3826">
        <ele>27</ele>
        <time>2011-04-19T13:03:12Z</time>
      </trkpt>
      <trkpt lat="48.10608" lon="-4.38236">
        <ele>25</ele>
        <time>2011-04-19T13:03:31Z</time>
      </trkpt>
      <trkpt lat="48.10611" lon="-4.38228">
        <ele>25</ele>
        <time>2011-04-19T13:03:37Z</time>
      </trkpt>
      <trkpt lat="48.10624" lon="-4.38202">
        <ele>24</ele>
        <time>2011-04-19T13:03:56Z</time>
      </trkpt>
      <trkpt lat="48.10639" lon="-4.38174">
        <ele>22</ele>
        <time>2011-04-19T13:04:15Z</time>
      </trkpt>
      <trkpt lat="48.10654" lon="-4.38146">
        <ele>27</ele>
        <time>2011-04-19T13:04:33Z</time>
      </trkpt>
      <trkpt lat="48.10672" lon="-4.38124">
        <ele>20</ele>
        <time>2011-04-19T13:04:52Z</time>
      </trkpt>
      <trkpt lat="48.10686" lon="-4.38112">
        <ele>21</ele>
        <time>2011-04-19T13:05:09Z</time>
      </trkpt>
      <trkpt lat="48.10694" lon="-4.38105">
        <ele>20</ele>
        <time>2011-04-19T13:05:17Z</time>
      </trkpt>
      <trkpt lat="48.10697" lon="-4.38101">
        <ele>20</ele>
        <time>2011-04-19T13:05:21Z</time>
      </trkpt>
      <trkpt lat="48.10711" lon="-4.38073">
        <ele>22</ele>
        <time>2011-04-19T13:05:39Z</time>
      </trkpt>
      <trkpt lat="48.10714" lon="-4.38068">
        <ele>22</ele>
        <time>2011-04-19T13:05:52Z</time>
      </trkpt>
      <trkpt lat="48.10717" lon="-4.38059">
        <ele>22</ele>
        <time>2011-04-19T13:05:58Z</time>
      </trkpt>
      <trkpt lat="48.10717" lon="-4.3804">
        <ele>24</ele>
        <time>2011-04-19T13:06:15Z</time>
      </trkpt>
      <trkpt lat="48.10721" lon="-4.38031">
        <ele>24</ele>
        <time>2011-04-19T13:06:27Z</time>
      </trkpt>
      <trkpt lat="48.10735" lon="-4.3801">
        <ele>22</ele>
        <time>2011-04-19T13:06:43Z</time>
      </trkpt>
      <trkpt lat="48.1075" lon="-4.37987">
        <ele>25</ele>
        <time>2011-04-19T13:07:02Z</time>
      </trkpt>
      <trkpt lat="48.10759" lon="-4.37967">
        <ele>23</ele>
        <time>2011-04-19T13:07:15Z</time>
      </trkpt>
      <trkpt lat="48.10761" lon="-4.37938">
        <ele>27</ele>
        <time>2011-04-19T13:07:30Z</time>
      </trkpt>
      <trkpt lat="48.10754" lon="-4.37911">
        <ele>29</ele>
        <time>2011-04-19T13:07:51Z</time>
      </trkpt>
      <trkpt lat="48.1075" lon="-4.37903">
        <ele>29</ele>
        <time>2011-04-19T13:08:09Z</time>
      </trkpt>
      <trkpt lat="48.10746" lon="-4.37895">
        <ele>36</ele>
        <time>2011-04-19T13:08:26Z</time>
      </trkpt>
      <trkpt lat="48.10741" lon="-4.37887">
        <ele>38</ele>
        <time>2011-04-19T13:08:42Z</time>
      </trkpt>
      <trkpt lat="48.10737" lon="-4.37876">
        <ele>39</ele>
        <time>2011-04-19T13:08:50Z</time>
      </trkpt>
      <trkpt lat="48.10732" lon="-4.37872">
        <ele>40</ele>
        <time>2011-04-19T13:08:57Z</time>
      </trkpt>
      <trkpt lat="48.10725" lon="-4.37858">
        <ele>41</ele>
        <time>2011-04-19T13:09:13Z</time>
      </trkpt>
      <trkpt lat="48.10725" lon="-4.37854">
        <ele>41</ele>
        <time>2011-04-19T13:09:18Z</time>
      </trkpt>
      <trkpt lat="48.10732" lon="-4.37845">
        <ele>40</ele>
        <time>2011-04-19T13:09:34Z</time>
      </trkpt>
      <trkpt lat="48.1074" lon="-4.37832">
        <ele>42</ele>
        <time>2011-04-19T13:09:49Z</time>
      </trkpt>
      <trkpt lat="48.10744" lon="-4.37824">
        <ele>42</ele>
        <time>2011-04-19T13:10:01Z</time>
      </trkpt>
      <trkpt lat="48.10758" lon="-4.37806">
        <ele>33</ele>
        <time>2011-04-19T13:10:20Z</time>
      </trkpt>
      <trkpt lat="48.10764" lon="-4.37796">
        <ele>32</ele>
        <time>2011-04-19T13:10:34Z</time>
      </trkpt>
      <trkpt lat="48.10767" lon="-4.37795">
        <ele>31</ele>
        <time>2011-04-19T13:11:45Z</time>
      </trkpt>
      <trkpt lat="48.10769" lon="-4.37797">
        <ele>31</ele>
        <time>2011-04-19T13:12:37Z</time>
      </trkpt>
      <trkpt lat="48.10771" lon="-4.37796">
        <ele>31</ele>
        <time>2011-04-19T13:12:40Z</time>
      </trkpt>
      <trkpt lat="48.10775" lon="-4.3778">
        <ele>31</ele>
        <time>2011-04-19T13:12:54Z</time>
      </trkpt>
      <trkpt lat="48.10775" lon="-4.37752">
        <ele>34</ele>
        <time>2011-04-19T13:13:10Z</time>
      </trkpt>
      <trkpt lat="48.10781" lon="-4.37746">
        <ele>35</ele>
        <time>2011-04-19T13:13:16Z</time>
      </trkpt>
      <trkpt lat="48.10785" lon="-4.37739">
        <ele>34</ele>
        <time>2011-04-19T13:13:27Z</time>
      </trkpt>
      <trkpt lat="48.10787" lon="-4.37743">
        <ele>33</ele>
        <time>2011-04-19T13:13:33Z</time>
      </trkpt>
      <trkpt lat="48.10788" lon="-4.37736">
        <ele>33</ele>
        <time>2011-04-19T13:13:37Z</time>
      </trkpt>
      <trkpt lat="48.10797" lon="-4.37707">
        <ele>32</ele>
        <time>2011-04-19T13:13:54Z</time>
      </trkpt>
      <trkpt lat="48.10805" lon="-4.37685">
        <ele>30</ele>
        <time>2011-04-19T13:14:08Z</time>
      </trkpt>
      <trkpt lat="48.10807" lon="-4.37649">
        <ele>32</ele>
        <time>2011-04-19T13:14:28Z</time>
      </trkpt>
      <trkpt lat="48.10807" lon="-4.37616">
        <ele>34</ele>
        <time>2011-04-19T13:14:44Z</time>
      </trkpt>
      <trkpt lat="48.10811" lon="-4.37587">
        <ele>33</ele>
        <time>2011-04-19T13:15:00Z</time>
      </trkpt>
      <trkpt lat="48.10809" lon="-4.37567">
        <ele>37</ele>
        <time>2011-04-19T13:15:15Z</time>
      </trkpt>
      <trkpt lat="48.10811" lon="-4.37561">
        <ele>37</ele>
        <time>2011-04-19T13:15:19Z</time>
      </trkpt>
      <trkpt lat="48.10822" lon="-4.37547">
        <ele>37</ele>
        <time>2011-04-19T13:15:40Z</time>
      </trkpt>
      <trkpt lat="48.10828" lon="-4.37542">
        <ele>37</ele>
        <time>2011-04-19T13:15:48Z</time>
      </trkpt>
      <trkpt lat="48.1083" lon="-4.37537">
        <ele>37</ele>
        <time>2011-04-19T13:15:52Z</time>
      </trkpt>
      <trkpt lat="48.1084" lon="-4.37524">
        <ele>27</ele>
        <time>2011-04-19T13:16:08Z</time>
      </trkpt>
      <trkpt lat="48.1085" lon="-4.37517">
        <ele>27</ele>
        <time>2011-04-19T13:16:24Z</time>
      </trkpt>
      <trkpt lat="48.10856" lon="-4.37514">
        <ele>26</ele>
        <time>2011-04-19T13:16:39Z</time>
      </trkpt>
      <trkpt lat="48.1086" lon="-4.37515">
        <ele>25</ele>
        <time>2011-04-19T13:16:51Z</time>
      </trkpt>
      <trkpt lat="48.10863" lon="-4.37514">
        <ele>25</ele>
        <time>2011-04-19T13:16:55Z</time>
      </trkpt>
      <trkpt lat="48.10884" lon="-4.37495">
        <ele>30</ele>
        <time>2011-04-19T13:17:16Z</time>
      </trkpt>
      <trkpt lat="48.10886" lon="-4.37493">
        <ele>29</ele>
        <time>2011-04-19T13:17:18Z</time>
      </trkpt>
      <trkpt lat="48.10889" lon="-4.37487">
        <ele>29</ele>
        <time>2011-04-19T13:17:24Z</time>
      </trkpt>
      <trkpt lat="48.10891" lon="-4.37486">
        <ele>29</ele>
        <time>2011-04-19T13:17:26Z</time>
      </trkpt>
      <trkpt lat="48.10899" lon="-4.37482">
        <ele>28</ele>
        <time>2011-04-19T13:17:46Z</time>
      </trkpt>
      <trkpt lat="48.10918" lon="-4.37481">
        <ele>19</ele>
        <time>2011-04-19T13:18:05Z</time>
      </trkpt>
      <trkpt lat="48.10932" lon="-4.37477">
        <ele>19</ele>
        <time>2011-04-19T13:18:25Z</time>
      </trkpt>
      <trkpt lat="48.10939" lon="-4.37476">
        <ele>19</ele>
        <time>2011-04-19T13:18:37Z</time>
      </trkpt>
      <trkpt lat="48.10945" lon="-4.37474">
        <ele>18</ele>
        <time>2011-04-19T13:18:55Z</time>
      </trkpt>
      <trkpt lat="48.10954" lon="-4.37468">
        <ele>18</ele>
        <time>2011-04-19T13:19:11Z</time>
      </trkpt>
      <trkpt lat="48.10959" lon="-4.37464">
        <ele>18</ele>
        <time>2011-04-19T13:19:22Z</time>
      </trkpt>
      <trkpt lat="48.1096" lon="-4.37455">
        <ele>19</ele>
        <time>2011-04-19T13:19:27Z</time>
      </trkpt>
      <trkpt lat="48.10962" lon="-4.37444">
        <ele>19</ele>
        <time>2011-04-19T13:19:34Z</time>
      </trkpt>
      <trkpt lat="48.10969" lon="-4.37435">
        <ele>19</ele>
        <time>2011-04-19T13:19:42Z</time>
      </trkpt>
      <trkpt lat="48.10977" lon="-4.37397">
        <ele>23</ele>
        <time>2011-04-19T13:20:04Z</time>
      </trkpt>
      <trkpt lat="48.10973" lon="-4.37378">
        <ele>25</ele>
        <time>2011-04-19T13:20:19Z</time>
      </trkpt>
      <trkpt lat="48.10971" lon="-4.37369">
        <ele>25</ele>
        <time>2011-04-19T13:20:25Z</time>
      </trkpt>
      <trkpt lat="48.10975" lon="-4.37364">
        <ele>25</ele>
        <time>2011-04-19T13:20:32Z</time>
      </trkpt>
      <trkpt lat="48.10977" lon="-4.3736">
        <ele>24</ele>
        <time>2011-04-19T13:20:36Z</time>
      </trkpt>
      <trkpt lat="48.10981" lon="-4.37351">
        <ele>23</ele>
        <time>2011-04-19T13:20:46Z</time>
      </trkpt>
      <trkpt lat="48.10989" lon="-4.3735">
        <ele>21</ele>
        <time>2011-04-19T13:21:00Z</time>
      </trkpt>
      <trkpt lat="48.1099" lon="-4.37348">
        <ele>21</ele>
        <time>2011-04-19T13:21:02Z</time>
      </trkpt>
      <trkpt lat="48.10989" lon="-4.37343">
        <ele>20</ele>
        <time>2011-04-19T13:21:07Z</time>
      </trkpt>
      <trkpt lat="48.1099" lon="-4.3733">
        <ele>19</ele>
        <time>2011-04-19T13:21:15Z</time>
      </trkpt>
      <trkpt lat="48.10989" lon="-4.37326">
        <ele>20</ele>
        <time>2011-04-19T13:21:18Z</time>
      </trkpt>
      <trkpt lat="48.10993" lon="-4.37308">
        <ele>23</ele>
        <time>2011-04-19T13:21:33Z</time>
      </trkpt>
      <trkpt lat="48.10992" lon="-4.37286">
        <ele>24</ele>
        <time>2011-04-19T13:21:48Z</time>
      </trkpt>
      <trkpt lat="48.10996" lon="-4.37283">
        <ele>23</ele>
        <time>2011-04-19T13:21:52Z</time>
      </trkpt>
      <trkpt lat="48.10999" lon="-4.3726">
        <ele>19</ele>
        <time>2011-04-19T13:22:08Z</time>
      </trkpt>
      <trkpt lat="48.10995" lon="-4.37235">
        <ele>20</ele>
        <time>2011-04-19T13:22:28Z</time>
      </trkpt>
      <trkpt lat="48.10989" lon="-4.3723">
        <ele>22</ele>
        <time>2011-04-19T13:22:44Z</time>
      </trkpt>
      <trkpt lat="48.10989" lon="-4.37222">
        <ele>23</ele>
        <time>2011-04-19T13:22:57Z</time>
      </trkpt>
      <trkpt lat="48.10994" lon="-4.3721">
        <ele>23</ele>
        <time>2011-04-19T13:23:12Z</time>
      </trkpt>
      <trkpt lat="48.10994" lon="-4.37205">
        <ele>23</ele>
        <time>2011-04-19T13:23:26Z</time>
      </trkpt>
      <trkpt lat="48.10994" lon="-4.37202">
        <ele>23</ele>
        <time>2011-04-19T13:23:33Z</time>
      </trkpt>
      <trkpt lat="48.10989" lon="-4.37197">
        <ele>23</ele>
        <time>2011-04-19T13:23:39Z</time>
      </trkpt>
      <trkpt lat="48.1098" lon="-4.37162">
        <ele>20</ele>
        <time>2011-04-19T13:23:59Z</time>
      </trkpt>
      <trkpt lat="48.10979" lon="-4.37136">
        <ele>22</ele>
        <time>2011-04-19T13:24:18Z</time>
      </trkpt>
      <trkpt lat="48.10981" lon="-4.37125">
        <ele>22</ele>
        <time>2011-04-19T13:24:30Z</time>
      </trkpt>
      <trkpt lat="48.10986" lon="-4.37121">
        <ele>21</ele>
        <time>2011-04-19T13:24:45Z</time>
      </trkpt>
      <trkpt lat="48.10985" lon="-4.37105">
        <ele>19</ele>
        <time>2011-04-19T13:25:00Z</time>
      </trkpt>
      <trkpt lat="48.10984" lon="-4.37101">
        <ele>19</ele>
        <time>2011-04-19T13:25:02Z</time>
      </trkpt>
      <trkpt lat="48.10984" lon="-4.37075">
        <ele>16</ele>
        <time>2011-04-19T13:25:20Z</time>
      </trkpt>
      <trkpt lat="48.10979" lon="-4.37075">
        <ele>17</ele>
        <time>2011-04-19T13:25:34Z</time>
      </trkpt>
      <trkpt lat="48.10972" lon="-4.37062">
        <ele>19</ele>
        <time>2011-04-19T13:25:47Z</time>
      </trkpt>
      <trkpt lat="48.10965" lon="-4.37047">
        <ele>21</ele>
        <time>2011-04-19T13:25:57Z</time>
      </trkpt>
      <trkpt lat="48.10951" lon="-4.37021">
        <ele>23</ele>
        <time>2011-04-19T13:26:15Z</time>
      </trkpt>
      <trkpt lat="48.10941" lon="-4.37002">
        <ele>26</ele>
        <time>2011-04-19T13:26:31Z</time>
      </trkpt>
      <trkpt lat="48.10931" lon="-4.36985">
        <ele>28</ele>
        <time>2011-04-19T13:26:50Z</time>
      </trkpt>
      <trkpt lat="48.1093" lon="-4.36979">
        <ele>28</ele>
        <time>2011-04-19T13:26:54Z</time>
      </trkpt>
      <trkpt lat="48.10932" lon="-4.36968">
        <ele>27</ele>
        <time>2011-04-19T13:27:01Z</time>
      </trkpt>
      <trkpt lat="48.10932" lon="-4.36965">
        <ele>26</ele>
        <time>2011-04-19T13:27:03Z</time>
      </trkpt>
      <trkpt lat="48.10937" lon="-4.36932">
        <ele>29</ele>
        <time>2011-04-19T13:27:23Z</time>
      </trkpt>
      <trkpt lat="48.10944" lon="-4.36924">
        <ele>27</ele>
        <time>2011-04-19T13:27:37Z</time>
      </trkpt>
      <trkpt lat="48.10946" lon="-4.36924">
        <ele>26</ele>
        <time>2011-04-19T13:27:43Z</time>
      </trkpt>
      <trkpt lat="48.10956" lon="-4.36926">
        <ele>23</ele>
        <time>2011-04-19T13:27:59Z</time>
      </trkpt>
      <trkpt lat="48.10964" lon="-4.36924">
        <ele>21</ele>
        <time>2011-04-19T13:28:12Z</time>
      </trkpt>
      <trkpt lat="48.10963" lon="-4.369">
        <ele>25</ele>
        <time>2011-04-19T13:28:27Z</time>
      </trkpt>
      <trkpt lat="48.10964" lon="-4.36875">
        <ele>27</ele>
        <time>2011-04-19T13:28:43Z</time>
      </trkpt>
      <trkpt lat="48.10969" lon="-4.36853">
        <ele>28</ele>
        <time>2011-04-19T13:28:59Z</time>
      </trkpt>
      <trkpt lat="48.10969" lon="-4.36837">
        <ele>29</ele>
        <time>2011-04-19T13:29:08Z</time>
      </trkpt>
      <trkpt lat="48.10963" lon="-4.36829">
        <ele>34</ele>
        <time>2011-04-19T13:29:17Z</time>
      </trkpt>
      <trkpt lat="48.10958" lon="-4.36821">
        <ele>34</ele>
        <time>2011-04-19T13:29:23Z</time>
      </trkpt>
      <trkpt lat="48.10948" lon="-4.36804">
        <ele>33</ele>
        <time>2011-04-19T13:29:41Z</time>
      </trkpt>
      <trkpt lat="48.10945" lon="-4.3679">
        <ele>32</ele>
        <time>2011-04-19T13:30:03Z</time>
      </trkpt>
      <trkpt lat="48.10945" lon="-4.36773">
        <ele>31</ele>
        <time>2011-04-19T13:30:30Z</time>
      </trkpt>
      <trkpt lat="48.10946" lon="-4.36761">
        <ele>31</ele>
        <time>2011-04-19T13:30:42Z</time>
      </trkpt>
      <trkpt lat="48.10948" lon="-4.3675">
        <ele>30</ele>
        <time>2011-04-19T13:30:49Z</time>
      </trkpt>
      <trkpt lat="48.10941" lon="-4.36727">
        <ele>28</ele>
        <time>2011-04-19T13:31:03Z</time>
      </trkpt>
      <trkpt lat="48.10935" lon="-4.36708">
        <ele>28</ele>
        <time>2011-04-19T13:31:18Z</time>
      </trkpt>
      <trkpt lat="48.10927" lon="-4.36684">
        <ele>28</ele>
        <time>2011-04-19T13:31:34Z</time>
      </trkpt>
      <trkpt lat="48.10925" lon="-4.36675">
        <ele>28</ele>
        <time>2011-04-19T13:31:40Z</time>
      </trkpt>
      <trkpt lat="48.10918" lon="-4.36652">
        <ele>13</ele>
        <time>2011-04-19T13:31:56Z</time>
      </trkpt>
      <trkpt lat="48.10904" lon="-4.36621">
        <ele>43</ele>
        <time>2011-04-19T13:32:16Z</time>
      </trkpt>
      <trkpt lat="48.109" lon="-4.3661">
        <ele>43</ele>
        <time>2011-04-19T13:32:28Z</time>
      </trkpt>
      <trkpt lat="48.109" lon="-4.36606">
        <ele>43</ele>
        <time>2011-04-19T13:32:30Z</time>
      </trkpt>
      <trkpt lat="48.10894" lon="-4.36576">
        <ele>32</ele>
        <time>2011-04-19T13:32:47Z</time>
      </trkpt>
      <trkpt lat="48.10889" lon="-4.36559">
        <ele>32</ele>
        <time>2011-04-19T13:33:02Z</time>
      </trkpt>
      <trkpt lat="48.10882" lon="-4.3655">
        <ele>32</ele>
        <time>2011-04-19T13:33:19Z</time>
      </trkpt>
      <trkpt lat="48.10881" lon="-4.36545">
        <ele>32</ele>
        <time>2011-04-19T13:33:23Z</time>
      </trkpt>
      <trkpt lat="48.10884" lon="-4.36511">
        <ele>28</ele>
        <time>2011-04-19T13:33:43Z</time>
      </trkpt>
      <trkpt lat="48.10888" lon="-4.36494">
        <ele>24</ele>
        <time>2011-04-19T13:33:57Z</time>
      </trkpt>
      <trkpt lat="48.10889" lon="-4.36486">
        <ele>24</ele>
        <time>2011-04-19T13:34:01Z</time>
      </trkpt>
      <trkpt lat="48.10886" lon="-4.36474">
        <ele>25</ele>
        <time>2011-04-19T13:34:13Z</time>
      </trkpt>
      <trkpt lat="48.10884" lon="-4.36454">
        <ele>26</ele>
        <time>2011-04-19T13:34:32Z</time>
      </trkpt>
      <trkpt lat="48.10882" lon="-4.36444">
        <ele>26</ele>
        <time>2011-04-19T13:34:50Z</time>
      </trkpt>
      <trkpt lat="48.10881" lon="-4.36423">
        <ele>26</ele>
        <time>2011-04-19T13:35:06Z</time>
      </trkpt>
      <trkpt lat="48.10877" lon="-4.36401">
        <ele>25</ele>
        <time>2011-04-19T13:35:25Z</time>
      </trkpt>
      <trkpt lat="48.10882" lon="-4.36398">
        <ele>23</ele>
        <time>2011-04-19T13:35:38Z</time>
      </trkpt>
      <trkpt lat="48.10887" lon="-4.36391">
        <ele>22</ele>
        <time>2011-04-19T13:35:52Z</time>
      </trkpt>
      <trkpt lat="48.10887" lon="-4.36389">
        <ele>22</ele>
        <time>2011-04-19T13:35:53Z</time>
      </trkpt>
      <trkpt lat="48.10887" lon="-4.36383">
        <ele>22</ele>
        <time>2011-04-19T13:35:57Z</time>
      </trkpt>
      <trkpt lat="48.10897" lon="-4.36373">
        <ele>20</ele>
        <time>2011-04-19T13:36:12Z</time>
      </trkpt>
      <trkpt lat="48.10905" lon="-4.36363">
        <ele>18</ele>
        <time>2011-04-19T13:36:27Z</time>
      </trkpt>
      <trkpt lat="48.10905" lon="-4.36362">
        <ele>18</ele>
        <time>2011-04-19T13:36:28Z</time>
      </trkpt>
      <trkpt lat="48.10901" lon="-4.36327">
        <ele>12</ele>
        <time>2011-04-19T13:36:48Z</time>
      </trkpt>
      <trkpt lat="48.10905" lon="-4.36308">
        <ele>14</ele>
        <time>2011-04-19T13:37:04Z</time>
      </trkpt>
      <trkpt lat="48.10909" lon="-4.36303">
        <ele>14</ele>
        <time>2011-04-19T13:37:16Z</time>
      </trkpt>
      <trkpt lat="48.10913" lon="-4.36299">
        <ele>14</ele>
        <time>2011-04-19T13:37:30Z</time>
      </trkpt>
      <trkpt lat="48.10914" lon="-4.36284">
        <ele>14</ele>
        <time>2011-04-19T13:38:10Z</time>
      </trkpt>
      <trkpt lat="48.10913" lon="-4.36276">
        <ele>13</ele>
        <time>2011-04-19T13:38:16Z</time>
      </trkpt>
      <trkpt lat="48.10911" lon="-4.3626">
        <ele>10</ele>
        <time>2011-04-19T13:38:26Z</time>
      </trkpt>
      <trkpt lat="48.10913" lon="-4.36243">
        <ele>8</ele>
        <time>2011-04-19T13:38:41Z</time>
      </trkpt>
      <trkpt lat="48.10909" lon="-4.36235">
        <ele>9</ele>
        <time>2011-04-19T13:38:49Z</time>
      </trkpt>
      <trkpt lat="48.10906" lon="-4.36225">
        <ele>11</ele>
        <time>2011-04-19T13:38:57Z</time>
      </trkpt>
      <trkpt lat="48.10903" lon="-4.36214">
        <ele>12</ele>
        <time>2011-04-19T13:39:18Z</time>
      </trkpt>
      <trkpt lat="48.10896" lon="-4.36206">
        <ele>12</ele>
        <time>2011-04-19T13:39:44Z</time>
      </trkpt>
      <trkpt lat="48.10895" lon="-4.36206">
        <ele>12</ele>
        <time>2011-04-19T13:40:18Z</time>
      </trkpt>
      <trkpt lat="48.10894" lon="-4.36214">
        <ele>12</ele>
        <time>2011-04-19T13:41:43Z</time>
      </trkpt>
      <trkpt lat="48.10893" lon="-4.36219">
        <ele>12</ele>
        <time>2011-04-19T13:42:13Z</time>
      </trkpt>
      <trkpt lat="48.10895" lon="-4.36206">
        <ele>12</ele>
        <time>2011-04-19T13:42:32Z</time>
      </trkpt>
      <trkpt lat="48.10895" lon="-4.36207">
        <ele>12</ele>
        <time>2011-04-19T13:44:40Z</time>
      </trkpt>
      <trkpt lat="48.10895" lon="-4.36204">
        <ele>12</ele>
        <time>2011-04-19T13:49:21Z</time>
      </trkpt>
      <trkpt lat="48.10894" lon="-4.36206">
        <ele>12</ele>
        <time>2011-04-19T13:50:19Z</time>
      </trkpt>
      <trkpt lat="48.10895" lon="-4.36206">
        <ele>12</ele>
        <time>2011-04-19T13:54:12Z</time>
      </trkpt>
      <trkpt lat="48.10894" lon="-4.36207">
        <ele>12</ele>
        <time>2011-04-19T13:58:08Z</time>
      </trkpt>
      <trkpt lat="48.10892" lon="-4.36206">
        <ele>12</ele>
        <time>2011-04-19T13:59:04Z</time>
      </trkpt>
      <trkpt lat="48.10878" lon="-4.36205">
        <ele>13</ele>
        <time>2011-04-19T13:59:16Z</time>
      </trkpt>
      <trkpt lat="48.10865" lon="-4.36195">
        <ele>13</ele>
        <time>2011-04-19T13:59:29Z</time>
      </trkpt>
      <trkpt lat="48.10841" lon="-4.36176">
        <ele>11</ele>
        <time>2011-04-19T13:59:51Z</time>
      </trkpt>
      <trkpt lat="48.10827" lon="-4.36167">
        <ele>12</ele>
        <time>2011-04-19T14:00:04Z</time>
      </trkpt>
      <trkpt lat="48.10823" lon="-4.36161">
        <ele>10</ele>
        <time>2011-04-19T14:00:19Z</time>
      </trkpt>
      <trkpt lat="48.10823" lon="-4.3616">
        <ele>10</ele>
        <time>2011-04-19T14:00:34Z</time>
      </trkpt>
      <trkpt lat="48.10822" lon="-4.3616">
        <ele>10</ele>
        <time>2011-04-19T14:00:37Z</time>
      </trkpt>
      <trkpt lat="48.10815" lon="-4.36155">
        <ele>11</ele>
        <time>2011-04-19T14:00:44Z</time>
      </trkpt>
      <trkpt lat="48.10802" lon="-4.36153">
        <ele>12</ele>
        <time>2011-04-19T14:00:58Z</time>
      </trkpt>
      <trkpt lat="48.10793" lon="-4.36152">
        <ele>12</ele>
        <time>2011-04-19T14:01:06Z</time>
      </trkpt>
      <trkpt lat="48.1077" lon="-4.36149">
        <ele>14</ele>
        <time>2011-04-19T14:01:23Z</time>
      </trkpt>
      <trkpt lat="48.10754" lon="-4.36142">
        <ele>15</ele>
        <time>2011-04-19T14:01:39Z</time>
      </trkpt>
      <trkpt lat="48.10751" lon="-4.3614">
        <ele>15</ele>
        <time>2011-04-19T14:01:43Z</time>
      </trkpt>
      <trkpt lat="48.10737" lon="-4.36136">
        <ele>19</ele>
        <time>2011-04-19T14:01:54Z</time>
      </trkpt>
      <trkpt lat="48.10713" lon="-4.36116">
        <ele>19</ele>
        <time>2011-04-19T14:02:13Z</time>
      </trkpt>
      <trkpt lat="48.10708" lon="-4.36114">
        <ele>19</ele>
        <time>2011-04-19T14:02:18Z</time>
      </trkpt>
      <trkpt lat="48.10701" lon="-4.3611">
        <ele>19</ele>
        <time>2011-04-19T14:02:33Z</time>
      </trkpt>
      <trkpt lat="48.10688" lon="-4.36101">
        <ele>20</ele>
        <time>2011-04-19T14:02:47Z</time>
      </trkpt>
      <trkpt lat="48.10671" lon="-4.36094">
        <ele>20</ele>
        <time>2011-04-19T14:03:02Z</time>
      </trkpt>
      <trkpt lat="48.10673" lon="-4.36088">
        <ele>21</ele>
        <time>2011-04-19T14:03:21Z</time>
      </trkpt>
      <trkpt lat="48.10679" lon="-4.36081">
        <ele>18</ele>
        <time>2011-04-19T14:03:36Z</time>
      </trkpt>
      <trkpt lat="48.10679" lon="-4.36071">
        <ele>17</ele>
        <time>2011-04-19T14:03:44Z</time>
      </trkpt>
      <trkpt lat="48.1067" lon="-4.36063">
        <ele>16</ele>
        <time>2011-04-19T14:03:59Z</time>
      </trkpt>
      <trkpt lat="48.10661" lon="-4.36058">
        <ele>22</ele>
        <time>2011-04-19T14:04:14Z</time>
      </trkpt>
      <trkpt lat="48.10655" lon="-4.36044">
        <ele>21</ele>
        <time>2011-04-19T14:04:32Z</time>
      </trkpt>
      <trkpt lat="48.10655" lon="-4.36036">
        <ele>20</ele>
        <time>2011-04-19T14:04:38Z</time>
      </trkpt>
      <trkpt lat="48.10657" lon="-4.36032">
        <ele>20</ele>
        <time>2011-04-19T14:04:41Z</time>
      </trkpt>
      <trkpt lat="48.1065" lon="-4.36004">
        <ele>17</ele>
        <time>2011-04-19T14:05:01Z</time>
      </trkpt>
      <trkpt lat="48.10645" lon="-4.35992">
        <ele>16</ele>
        <time>2011-04-19T14:05:10Z</time>
      </trkpt>
      <trkpt lat="48.10644" lon="-4.35989">
        <ele>16</ele>
        <time>2011-04-19T14:05:13Z</time>
      </trkpt>
      <trkpt lat="48.10641" lon="-4.35973">
        <ele>18</ele>
        <time>2011-04-19T14:05:21Z</time>
      </trkpt>
      <trkpt lat="48.10635" lon="-4.35947">
        <ele>20</ele>
        <time>2011-04-19T14:05:40Z</time>
      </trkpt>
      <trkpt lat="48.10626" lon="-4.35943">
        <ele>20</ele>
        <time>2011-04-19T14:05:59Z</time>
      </trkpt>
      <trkpt lat="48.10602" lon="-4.35962">
        <ele>22</ele>
        <time>2011-04-19T14:06:17Z</time>
      </trkpt>
      <trkpt lat="48.10588" lon="-4.35957">
        <ele>23</ele>
        <time>2011-04-19T14:06:33Z</time>
      </trkpt>
      <trkpt lat="48.10573" lon="-4.35965">
        <ele>28</ele>
        <time>2011-04-19T14:06:46Z</time>
      </trkpt>
      <trkpt lat="48.10564" lon="-4.35973">
        <ele>29</ele>
        <time>2011-04-19T14:06:56Z</time>
      </trkpt>
      <trkpt lat="48.10551" lon="-4.35975">
        <ele>29</ele>
        <time>2011-04-19T14:07:06Z</time>
      </trkpt>
      <trkpt lat="48.10548" lon="-4.35972">
        <ele>29</ele>
        <time>2011-04-19T14:07:09Z</time>
      </trkpt>
      <trkpt lat="48.10544" lon="-4.35959">
        <ele>29</ele>
        <time>2011-04-19T14:07:16Z</time>
      </trkpt>
      <trkpt lat="48.10533" lon="-4.35926">
        <ele>29</ele>
        <time>2011-04-19T14:07:35Z</time>
      </trkpt>
      <trkpt lat="48.10524" lon="-4.35907">
        <ele>25</ele>
        <time>2011-04-19T14:07:52Z</time>
      </trkpt>
      <trkpt lat="48.1052" lon="-4.35898">
        <ele>24</ele>
        <time>2011-04-19T14:07:58Z</time>
      </trkpt>
      <trkpt lat="48.10519" lon="-4.35896">
        <ele>24</ele>
        <time>2011-04-19T14:08:00Z</time>
      </trkpt>
      <trkpt lat="48.10516" lon="-4.35891">
        <ele>24</ele>
        <time>2011-04-19T14:08:03Z</time>
      </trkpt>
      <trkpt lat="48.10513" lon="-4.35884">
        <ele>24</ele>
        <time>2011-04-19T14:08:07Z</time>
      </trkpt>
      <trkpt lat="48.10501" lon="-4.35857">
        <ele>23</ele>
        <time>2011-04-19T14:08:24Z</time>
      </trkpt>
      <trkpt lat="48.10491" lon="-4.35828">
        <ele>25</ele>
        <time>2011-04-19T14:08:42Z</time>
      </trkpt>
      <trkpt lat="48.10488" lon="-4.35803">
        <ele>26</ele>
        <time>2011-04-19T14:09:07Z</time>
      </trkpt>
      <trkpt lat="48.10492" lon="-4.35786">
        <ele>25</ele>
        <time>2011-04-19T14:09:14Z</time>
      </trkpt>
      <trkpt lat="48.10493" lon="-4.3578">
        <ele>24</ele>
        <time>2011-04-19T14:09:16Z</time>
      </trkpt>
      <trkpt lat="48.10485" lon="-4.35751">
        <ele>21</ele>
        <time>2011-04-19T14:09:32Z</time>
      </trkpt>
      <trkpt lat="48.10478" lon="-4.35746">
        <ele>20</ele>
        <time>2011-04-19T14:09:38Z</time>
      </trkpt>
      <trkpt lat="48.10469" lon="-4.35735">
        <ele>21</ele>
        <time>2011-04-19T14:09:52Z</time>
      </trkpt>
      <trkpt lat="48.10453" lon="-4.35712">
        <ele>22</ele>
        <time>2011-04-19T14:10:09Z</time>
      </trkpt>
      <trkpt lat="48.10452" lon="-4.35711">
        <ele>22</ele>
        <time>2011-04-19T14:10:10Z</time>
      </trkpt>
      <trkpt lat="48.10442" lon="-4.35684">
        <ele>22</ele>
        <time>2011-04-19T14:10:24Z</time>
      </trkpt>
      <trkpt lat="48.10441" lon="-4.35682">
        <ele>22</ele>
        <time>2011-04-19T14:10:25Z</time>
      </trkpt>
      <trkpt lat="48.10423" lon="-4.35653">
        <ele>21</ele>
        <time>2011-04-19T14:10:44Z</time>
      </trkpt>
      <trkpt lat="48.10408" lon="-4.35636">
        <ele>24</ele>
        <time>2011-04-19T14:10:58Z</time>
      </trkpt>
      <trkpt lat="48.10393" lon="-4.35612">
        <ele>23</ele>
        <time>2011-04-19T14:11:17Z</time>
      </trkpt>
      <trkpt lat="48.10391" lon="-4.35604">
        <ele>22</ele>
        <time>2011-04-19T14:11:25Z</time>
      </trkpt>
      <trkpt lat="48.10392" lon="-4.35591">
        <ele>21</ele>
        <time>2011-04-19T14:11:32Z</time>
      </trkpt>
      <trkpt lat="48.10398" lon="-4.35577">
        <ele>14</ele>
        <time>2011-04-19T14:11:43Z</time>
      </trkpt>
      <trkpt lat="48.10398" lon="-4.35573">
        <ele>14</ele>
        <time>2011-04-19T14:11:55Z</time>
      </trkpt>
      <trkpt lat="48.10406" lon="-4.35563">
        <ele>14</ele>
        <time>2011-04-19T14:12:14Z</time>
      </trkpt>
      <trkpt lat="48.10408" lon="-4.35562">
        <ele>14</ele>
        <time>2011-04-19T14:12:19Z</time>
      </trkpt>
      <trkpt lat="48.10403" lon="-4.3555">
        <ele>14</ele>
        <time>2011-04-19T14:12:27Z</time>
      </trkpt>
      <trkpt lat="48.10407" lon="-4.35535">
        <ele>13</ele>
        <time>2011-04-19T14:12:40Z</time>
      </trkpt>
      <trkpt lat="48.10401" lon="-4.35524">
        <ele>13</ele>
        <time>2011-04-19T14:12:48Z</time>
      </trkpt>
      <trkpt lat="48.10401" lon="-4.35521">
        <ele>13</ele>
        <time>2011-04-19T14:12:58Z</time>
      </trkpt>
      <trkpt lat="48.1038" lon="-4.355">
        <ele>14</ele>
        <time>2011-04-19T14:13:20Z</time>
      </trkpt>
      <trkpt lat="48.1036" lon="-4.35481">
        <ele>11</ele>
        <time>2011-04-19T14:13:41Z</time>
      </trkpt>
      <trkpt lat="48.10352" lon="-4.35475">
        <ele>11</ele>
        <time>2011-04-19T14:13:49Z</time>
      </trkpt>
      <trkpt lat="48.10329" lon="-4.35461">
        <ele>13</ele>
        <time>2011-04-19T14:14:10Z</time>
      </trkpt>
      <trkpt lat="48.10307" lon="-4.35446">
        <ele>12</ele>
        <time>2011-04-19T14:14:31Z</time>
      </trkpt>
      <trkpt lat="48.10305" lon="-4.35443">
        <ele>12</ele>
        <time>2011-04-19T14:14:33Z</time>
      </trkpt>
      <trkpt lat="48.10289" lon="-4.35412">
        <ele>8</ele>
        <time>2011-04-19T14:14:53Z</time>
      </trkpt>
      <trkpt lat="48.1028" lon="-4.35384">
        <ele>8</ele>
        <time>2011-04-19T14:15:10Z</time>
      </trkpt>
      <trkpt lat="48.10274" lon="-4.35355">
        <ele>7</ele>
        <time>2011-04-19T14:15:29Z</time>
      </trkpt>
      <trkpt lat="48.1027" lon="-4.35337">
        <ele>7</ele>
        <time>2011-04-19T14:15:42Z</time>
      </trkpt>
      <trkpt lat="48.10263" lon="-4.35312">
        <ele>5</ele>
        <time>2011-04-19T14:15:59Z</time>
      </trkpt>
      <trkpt lat="48.10263" lon="-4.35311">
        <ele>5</ele>
        <time>2011-04-19T14:16:00Z</time>
      </trkpt>
      <trkpt lat="48.10251" lon="-4.35293">
        <ele>5</ele>
        <time>2011-04-19T14:16:19Z</time>
      </trkpt>
      <trkpt lat="48.10251" lon="-4.35273">
        <ele>4</ele>
        <time>2011-04-19T14:16:37Z</time>
      </trkpt>
      <trkpt lat="48.1025" lon="-4.35268">
        <ele>4</ele>
        <time>2011-04-19T14:16:40Z</time>
      </trkpt>
      <trkpt lat="48.10247" lon="-4.35259">
        <ele>4</ele>
        <time>2011-04-19T14:16:45Z</time>
      </trkpt>
      <trkpt lat="48.10241" lon="-4.35224">
        <ele>4</ele>
        <time>2011-04-19T14:17:06Z</time>
      </trkpt>
      <trkpt lat="48.10239" lon="-4.35192">
        <ele>4</ele>
        <time>2011-04-19T14:17:24Z</time>
      </trkpt>
      <trkpt lat="48.10242" lon="-4.35178">
        <ele>4</ele>
        <time>2011-04-19T14:17:32Z</time>
      </trkpt>
      <trkpt lat="48.10242" lon="-4.35172">
        <ele>3</ele>
        <time>2011-04-19T14:17:36Z</time>
      </trkpt>
      <trkpt lat="48.10239" lon="-4.35162">
        <ele>4</ele>
        <time>2011-04-19T14:17:47Z</time>
      </trkpt>
      <trkpt lat="48.10238" lon="-4.35159">
        <ele>4</ele>
        <time>2011-04-19T14:17:50Z</time>
      </trkpt>
      <trkpt lat="48.10229" lon="-4.35129">
        <ele>5</ele>
        <time>2011-04-19T14:18:09Z</time>
      </trkpt>
      <trkpt lat="48.10222" lon="-4.35098">
        <ele>5</ele>
        <time>2011-04-19T14:18:27Z</time>
      </trkpt>
      <trkpt lat="48.10215" lon="-4.35071">
        <ele>6</ele>
        <time>2011-04-19T14:18:45Z</time>
      </trkpt>
      <trkpt lat="48.10211" lon="-4.35053">
        <ele>6</ele>
        <time>2011-04-19T14:19:01Z</time>
      </trkpt>
      <trkpt lat="48.10211" lon="-4.35045">
        <ele>6</ele>
        <time>2011-04-19T14:19:18Z</time>
      </trkpt>
      <trkpt lat="48.10209" lon="-4.35034">
        <ele>6</ele>
        <time>2011-04-19T14:19:34Z</time>
      </trkpt>
      <trkpt lat="48.10207" lon="-4.35028">
        <ele>6</ele>
        <time>2011-04-19T14:19:46Z</time>
      </trkpt>
      <trkpt lat="48.10207" lon="-4.34997">
        <ele>8</ele>
        <time>2011-04-19T14:20:12Z</time>
      </trkpt>
      <trkpt lat="48.10208" lon="-4.34975">
        <ele>8</ele>
        <time>2011-04-19T14:20:30Z</time>
      </trkpt>
      <trkpt lat="48.1021" lon="-4.34927">
        <ele>10</ele>
        <time>2011-04-19T14:20:57Z</time>
      </trkpt>
      <trkpt lat="48.10218" lon="-4.34897">
        <ele>10</ele>
        <time>2011-04-19T14:21:18Z</time>
      </trkpt>
      <trkpt lat="48.1023" lon="-4.34888">
        <ele>9</ele>
        <time>2011-04-19T14:21:31Z</time>
      </trkpt>
      <trkpt lat="48.10232" lon="-4.34882">
        <ele>9</ele>
        <time>2011-04-19T14:21:35Z</time>
      </trkpt>
      <trkpt lat="48.1023" lon="-4.34866">
        <ele>8</ele>
        <time>2011-04-19T14:21:45Z</time>
      </trkpt>
      <trkpt lat="48.10221" lon="-4.34857">
        <ele>8</ele>
        <time>2011-04-19T14:22:00Z</time>
      </trkpt>
      <trkpt lat="48.10216" lon="-4.34847">
        <ele>8</ele>
        <time>2011-04-19T14:22:11Z</time>
      </trkpt>
      <trkpt lat="48.10213" lon="-4.34815">
        <ele>8</ele>
        <time>2011-04-19T14:22:32Z</time>
      </trkpt>
      <trkpt lat="48.10207" lon="-4.34786">
        <ele>8</ele>
        <time>2011-04-19T14:22:51Z</time>
      </trkpt>
      <trkpt lat="48.10199" lon="-4.34774">
        <ele>8</ele>
        <time>2011-04-19T14:23:05Z</time>
      </trkpt>
      <trkpt lat="48.1018" lon="-4.34761">
        <ele>9</ele>
        <time>2011-04-19T14:23:22Z</time>
      </trkpt>
      <trkpt lat="48.10167" lon="-4.34744">
        <ele>11</ele>
        <time>2011-04-19T14:23:39Z</time>
      </trkpt>
      <trkpt lat="48.10152" lon="-4.34729">
        <ele>13</ele>
        <time>2011-04-19T14:23:55Z</time>
      </trkpt>
      <trkpt lat="48.10134" lon="-4.34727">
        <ele>13</ele>
        <time>2011-04-19T14:24:10Z</time>
      </trkpt>
      <trkpt lat="48.10129" lon="-4.34725">
        <ele>14</ele>
        <time>2011-04-19T14:24:16Z</time>
      </trkpt>
      <trkpt lat="48.10125" lon="-4.34718">
        <ele>14</ele>
        <time>2011-04-19T14:24:20Z</time>
      </trkpt>
      <trkpt lat="48.10119" lon="-4.3471">
        <ele>14</ele>
        <time>2011-04-19T14:24:34Z</time>
      </trkpt>
      <trkpt lat="48.10112" lon="-4.34701">
        <ele>14</ele>
        <time>2011-04-19T14:24:42Z</time>
      </trkpt>
      <trkpt lat="48.10102" lon="-4.34699">
        <ele>14</ele>
        <time>2011-04-19T14:24:55Z</time>
      </trkpt>
      <trkpt lat="48.10096" lon="-4.34688">
        <ele>13</ele>
        <time>2011-04-19T14:25:03Z</time>
      </trkpt>
      <trkpt lat="48.10091" lon="-4.34683">
        <ele>13</ele>
        <time>2011-04-19T14:25:22Z</time>
      </trkpt>
      <trkpt lat="48.10089" lon="-4.34684">
        <ele>13</ele>
        <time>2011-04-19T14:26:49Z</time>
      </trkpt>
      <trkpt lat="48.1009" lon="-4.34681">
        <ele>13</ele>
        <time>2011-04-19T14:27:18Z</time>
      </trkpt>
      <trkpt lat="48.10091" lon="-4.34677">
        <ele>13</ele>
        <time>2011-04-19T14:27:25Z</time>
      </trkpt>
      <trkpt lat="48.10087" lon="-4.34655">
        <ele>11</ele>
        <time>2011-04-19T14:27:40Z</time>
      </trkpt>
      <trkpt lat="48.10073" lon="-4.34643">
        <ele>12</ele>
        <time>2011-04-19T14:27:56Z</time>
      </trkpt>
      <trkpt lat="48.10071" lon="-4.34643">
        <ele>12</ele>
        <time>2011-04-19T14:28:20Z</time>
      </trkpt>
      <trkpt lat="48.10074" lon="-4.34634">
        <ele>12</ele>
        <time>2011-04-19T14:28:46Z</time>
      </trkpt>
      <trkpt lat="48.10075" lon="-4.34631">
        <ele>12</ele>
        <time>2011-04-19T14:28:49Z</time>
      </trkpt>
      <trkpt lat="48.10074" lon="-4.34608">
        <ele>11</ele>
        <time>2011-04-19T14:29:05Z</time>
      </trkpt>
      <trkpt lat="48.10073" lon="-4.34604">
        <ele>10</ele>
        <time>2011-04-19T14:29:23Z</time>
      </trkpt>
      <trkpt lat="48.10072" lon="-4.34593">
        <ele>9</ele>
        <time>2011-04-19T14:29:38Z</time>
      </trkpt>
      <trkpt lat="48.10069" lon="-4.34577">
        <ele>9</ele>
        <time>2011-04-19T14:29:52Z</time>
      </trkpt>
      <trkpt lat="48.10063" lon="-4.34554">
        <ele>11</ele>
        <time>2011-04-19T14:30:05Z</time>
      </trkpt>
      <trkpt lat="48.10058" lon="-4.34535">
        <ele>12</ele>
        <time>2011-04-19T14:30:19Z</time>
      </trkpt>
      <trkpt lat="48.10058" lon="-4.34529">
        <ele>12</ele>
        <time>2011-04-19T14:30:23Z</time>
      </trkpt>
      <trkpt lat="48.10065" lon="-4.34506">
        <ele>11</ele>
        <time>2011-04-19T14:30:40Z</time>
      </trkpt>
      <trkpt lat="48.10066" lon="-4.34505">
        <ele>11</ele>
        <time>2011-04-19T14:30:41Z</time>
      </trkpt>
      <trkpt lat="48.10078" lon="-4.34479">
        <ele>13</ele>
        <time>2011-04-19T14:31:01Z</time>
      </trkpt>
      <trkpt lat="48.1008" lon="-4.34468">
        <ele>14</ele>
        <time>2011-04-19T14:31:19Z</time>
      </trkpt>
      <trkpt lat="48.10098" lon="-4.3444">
        <ele>11</ele>
        <time>2011-04-19T14:31:39Z</time>
      </trkpt>
      <trkpt lat="48.10104" lon="-4.34429">
        <ele>11</ele>
        <time>2011-04-19T14:31:46Z</time>
      </trkpt>
      <trkpt lat="48.10106" lon="-4.34422">
        <ele>11</ele>
        <time>2011-04-19T14:31:50Z</time>
      </trkpt>
      <trkpt lat="48.10107" lon="-4.34414">
        <ele>11</ele>
        <time>2011-04-19T14:31:54Z</time>
      </trkpt>
      <trkpt lat="48.10107" lon="-4.34409">
        <ele>11</ele>
        <time>2011-04-19T14:31:57Z</time>
      </trkpt>
      <trkpt lat="48.10109" lon="-4.34398">
        <ele>10</ele>
        <time>2011-04-19T14:32:03Z</time>
      </trkpt>
      <trkpt lat="48.10105" lon="-4.3436">
        <ele>8</ele>
        <time>2011-04-19T14:32:22Z</time>
      </trkpt>
      <trkpt lat="48.10095" lon="-4.34328">
        <ele>5</ele>
        <time>2011-04-19T14:32:41Z</time>
      </trkpt>
      <trkpt lat="48.10092" lon="-4.34322">
        <ele>5</ele>
        <time>2011-04-19T14:32:45Z</time>
      </trkpt>
      <trkpt lat="48.10072" lon="-4.34308">
        <ele>9</ele>
        <time>2011-04-19T14:33:04Z</time>
      </trkpt>
      <trkpt lat="48.10047" lon="-4.34304">
        <ele>11</ele>
        <time>2011-04-19T14:33:23Z</time>
      </trkpt>
      <trkpt lat="48.10027" lon="-4.34297">
        <ele>12</ele>
        <time>2011-04-19T14:33:39Z</time>
      </trkpt>
      <trkpt lat="48.10019" lon="-4.34264">
        <ele>13</ele>
        <time>2011-04-19T14:33:59Z</time>
      </trkpt>
      <trkpt lat="48.1002" lon="-4.34256">
        <ele>13</ele>
        <time>2011-04-19T14:34:04Z</time>
      </trkpt>
      <trkpt lat="48.10024" lon="-4.34228">
        <ele>14</ele>
        <time>2011-04-19T14:34:22Z</time>
      </trkpt>
      <trkpt lat="48.10032" lon="-4.34199">
        <ele>14</ele>
        <time>2011-04-19T14:34:42Z</time>
      </trkpt>
      <trkpt lat="48.10042" lon="-4.34183">
        <ele>14</ele>
        <time>2011-04-19T14:34:53Z</time>
      </trkpt>
      <trkpt lat="48.10041" lon="-4.34155">
        <ele>17</ele>
        <time>2011-04-19T14:35:11Z</time>
      </trkpt>
      <trkpt lat="48.10045" lon="-4.34133">
        <ele>16</ele>
        <time>2011-04-19T14:35:29Z</time>
      </trkpt>
      <trkpt lat="48.10042" lon="-4.34128">
        <ele>16</ele>
        <time>2011-04-19T14:35:34Z</time>
      </trkpt>
      <trkpt lat="48.10035" lon="-4.34113">
        <ele>15</ele>
        <time>2011-04-19T14:35:47Z</time>
      </trkpt>
      <trkpt lat="48.10017" lon="-4.34098">
        <ele>13</ele>
        <time>2011-04-19T14:36:08Z</time>
      </trkpt>
      <trkpt lat="48.09998" lon="-4.34084">
        <ele>12</ele>
        <time>2011-04-19T14:36:23Z</time>
      </trkpt>
      <trkpt lat="48.09989" lon="-4.34073">
        <ele>12</ele>
        <time>2011-04-19T14:36:34Z</time>
      </trkpt>
      <trkpt lat="48.09987" lon="-4.34071">
        <ele>12</ele>
        <time>2011-04-19T14:36:56Z</time>
      </trkpt>
      <trkpt lat="48.09985" lon="-4.34072">
        <ele>12</ele>
        <time>2011-04-19T14:36:59Z</time>
      </trkpt>
      <trkpt lat="48.09969" lon="-4.34055">
        <ele>13</ele>
        <time>2011-04-19T14:37:13Z</time>
      </trkpt>
      <trkpt lat="48.09951" lon="-4.34036">
        <ele>12</ele>
        <time>2011-04-19T14:37:26Z</time>
      </trkpt>
      <trkpt lat="48.09941" lon="-4.34032">
        <ele>12</ele>
        <time>2011-04-19T14:37:34Z</time>
      </trkpt>
      <trkpt lat="48.0992" lon="-4.34011">
        <ele>8</ele>
        <time>2011-04-19T14:37:51Z</time>
      </trkpt>
      <trkpt lat="48.09899" lon="-4.3399">
        <ele>6</ele>
        <time>2011-04-19T14:38:10Z</time>
      </trkpt>
      <trkpt lat="48.09885" lon="-4.33971">
        <ele>6</ele>
        <time>2011-04-19T14:38:26Z</time>
      </trkpt>
      <trkpt lat="48.09866" lon="-4.33955">
        <ele>6</ele>
        <time>2011-04-19T14:38:43Z</time>
      </trkpt>
      <trkpt lat="48.0985" lon="-4.33937">
        <ele>6</ele>
        <time>2011-04-19T14:38:59Z</time>
      </trkpt>
      <trkpt lat="48.09833" lon="-4.33923">
        <ele>6</ele>
        <time>2011-04-19T14:39:16Z</time>
      </trkpt>
      <trkpt lat="48.09815" lon="-4.33931">
        <ele>6</ele>
        <time>2011-04-19T14:39:33Z</time>
      </trkpt>
      <trkpt lat="48.09804" lon="-4.33964">
        <ele>6</ele>
        <time>2011-04-19T14:39:52Z</time>
      </trkpt>
      <trkpt lat="48.09802" lon="-4.33967">
        <ele>6</ele>
        <time>2011-04-19T14:39:55Z</time>
      </trkpt>
      <trkpt lat="48.09792" lon="-4.33974">
        <ele>6</ele>
        <time>2011-04-19T14:40:04Z</time>
      </trkpt>
      <trkpt lat="48.09787" lon="-4.33986">
        <ele>6</ele>
        <time>2011-04-19T14:40:12Z</time>
      </trkpt>
      <trkpt lat="48.09784" lon="-4.33997">
        <ele>6</ele>
        <time>2011-04-19T14:40:19Z</time>
      </trkpt>
      <trkpt lat="48.09779" lon="-4.34019">
        <ele>7</ele>
        <time>2011-04-19T14:40:37Z</time>
      </trkpt>
      <trkpt lat="48.09778" lon="-4.34026">
        <ele>7</ele>
        <time>2011-04-19T14:40:53Z</time>
      </trkpt>
      <trkpt lat="48.09779" lon="-4.3402">
        <ele>7</ele>
        <time>2011-04-19T14:41:20Z</time>
      </trkpt>
      <trkpt lat="48.09779" lon="-4.34019">
        <ele>7</ele>
        <time>2011-04-19T14:41:21Z</time>
      </trkpt>
      <trkpt lat="48.09781" lon="-4.34012">
        <ele>7</ele>
        <time>2011-04-19T14:41:27Z</time>
      </trkpt>
      <trkpt lat="48.09784" lon="-4.34001">
        <ele>7</ele>
        <time>2011-04-19T14:41:34Z</time>
      </trkpt>
      <trkpt lat="48.09787" lon="-4.33997">
        <ele>6</ele>
        <time>2011-04-19T14:41:37Z</time>
      </trkpt>
      <trkpt lat="48.09787" lon="-4.33991">
        <ele>6</ele>
        <time>2011-04-19T14:41:52Z</time>
      </trkpt>
      <trkpt lat="48.09785" lon="-4.33996">
        <ele>6</ele>
        <time>2011-04-19T14:41:57Z</time>
      </trkpt>
      <trkpt lat="48.0978" lon="-4.34026">
        <ele>7</ele>
        <time>2011-04-19T14:42:16Z</time>
      </trkpt>
      <trkpt lat="48.09776" lon="-4.34039">
        <ele>6</ele>
        <time>2011-04-19T14:42:24Z</time>
      </trkpt>
      <trkpt lat="48.09776" lon="-4.34048">
        <ele>6</ele>
        <time>2011-04-19T14:42:29Z</time>
      </trkpt>
      <trkpt lat="48.09774" lon="-4.3408">
        <ele>5</ele>
        <time>2011-04-19T14:42:49Z</time>
      </trkpt>
      <trkpt lat="48.09759" lon="-4.34111">
        <ele>7</ele>
        <time>2011-04-19T14:43:10Z</time>
      </trkpt>
      <trkpt lat="48.0975" lon="-4.34139">
        <ele>4</ele>
        <time>2011-04-19T14:43:27Z</time>
      </trkpt>
      <trkpt lat="48.09736" lon="-4.34172">
        <ele>6</ele>
        <time>2011-04-19T14:43:48Z</time>
      </trkpt>
      <trkpt lat="48.09726" lon="-4.34196">
        <ele>6</ele>
        <time>2011-04-19T14:44:04Z</time>
      </trkpt>
      <trkpt lat="48.09719" lon="-4.34221">
        <ele>7</ele>
        <time>2011-04-19T14:44:22Z</time>
      </trkpt>
      <trkpt lat="48.09707" lon="-4.34247">
        <ele>6</ele>
        <time>2011-04-19T14:44:37Z</time>
      </trkpt>
      <trkpt lat="48.0968" lon="-4.34236">
        <ele>5</ele>
        <time>2011-04-19T14:44:55Z</time>
      </trkpt>
      <trkpt lat="48.09673" lon="-4.3423">
        <ele>5</ele>
        <time>2011-04-19T14:45:03Z</time>
      </trkpt>
      <trkpt lat="48.09652" lon="-4.34214">
        <ele>5</ele>
        <time>2011-04-19T14:45:22Z</time>
      </trkpt>
      <trkpt lat="48.09632" lon="-4.34198">
        <ele>5</ele>
        <time>2011-04-19T14:45:40Z</time>
      </trkpt>
      <trkpt lat="48.0961" lon="-4.34177">
        <ele>5</ele>
        <time>2011-04-19T14:46:00Z</time>
      </trkpt>
      <trkpt lat="48.09591" lon="-4.34163">
        <ele>5</ele>
        <time>2011-04-19T14:46:18Z</time>
      </trkpt>
      <trkpt lat="48.0959" lon="-4.34162">
        <ele>5</ele>
        <time>2011-04-19T14:46:19Z</time>
      </trkpt>
      <trkpt lat="48.09586" lon="-4.34143">
        <ele>6</ele>
        <time>2011-04-19T14:46:31Z</time>
      </trkpt>
      <trkpt lat="48.09591" lon="-4.34123">
        <ele>6</ele>
        <time>2011-04-19T14:46:45Z</time>
      </trkpt>
      <trkpt lat="48.09598" lon="-4.34102">
        <ele>7</ele>
        <time>2011-04-19T14:46:59Z</time>
      </trkpt>
      <trkpt lat="48.0962" lon="-4.34078">
        <ele>8</ele>
        <time>2011-04-19T14:47:17Z</time>
      </trkpt>
      <trkpt lat="48.09629" lon="-4.34071">
        <ele>7</ele>
        <time>2011-04-19T14:47:25Z</time>
      </trkpt>
      <trkpt lat="48.09653" lon="-4.34054">
        <ele>6</ele>
        <time>2011-04-19T14:47:44Z</time>
      </trkpt>
      <trkpt lat="48.09654" lon="-4.34054">
        <ele>6</ele>
        <time>2011-04-19T14:47:45Z</time>
      </trkpt>
      <trkpt lat="48.09666" lon="-4.3404">
        <ele>6</ele>
        <time>2011-04-19T14:47:57Z</time>
      </trkpt>
      <trkpt lat="48.09668" lon="-4.34034">
        <ele>3</ele>
        <time>2011-04-19T14:48:01Z</time>
      </trkpt>
      <trkpt lat="48.09671" lon="-4.3403">
        <ele>3</ele>
        <time>2011-04-19T14:48:05Z</time>
      </trkpt>
      <trkpt lat="48.09668" lon="-4.34011">
        <ele>3</ele>
        <time>2011-04-19T14:48:15Z</time>
      </trkpt>
      <trkpt lat="48.09667" lon="-4.3396">
        <ele>4</ele>
        <time>2011-04-19T14:48:42Z</time>
      </trkpt>
      <trkpt lat="48.0967" lon="-4.33921">
        <ele>4</ele>
        <time>2011-04-19T14:49:06Z</time>
      </trkpt>
      <trkpt lat="48.09666" lon="-4.33904">
        <ele>5</ele>
        <time>2011-04-19T14:49:22Z</time>
      </trkpt>
      <trkpt lat="48.09666" lon="-4.33904">
        <ele>5</ele>
        <time>2011-04-19T14:50:06Z</time>
      </trkpt>
      <trkpt lat="48.09668" lon="-4.33901">
        <ele>3</ele>
        <time>2011-04-19T14:50:36Z</time>
      </trkpt>
      <trkpt lat="48.09669" lon="-4.33899">
        <ele>3</ele>
        <time>2011-04-19T14:50:39Z</time>
      </trkpt>
      <trkpt lat="48.09677" lon="-4.33879">
        <ele>3</ele>
        <time>2011-04-19T14:50:52Z</time>
      </trkpt>
      <trkpt lat="48.09679" lon="-4.33848">
        <ele>2</ele>
        <time>2011-04-19T14:51:11Z</time>
      </trkpt>
      <trkpt lat="48.09672" lon="-4.33834">
        <ele>1</ele>
        <time>2011-04-19T14:51:20Z</time>
      </trkpt>
      <trkpt lat="48.09667" lon="-4.33836">
        <ele>1</ele>
        <time>2011-04-19T14:51:26Z</time>
      </trkpt>
      <trkpt lat="48.09666" lon="-4.33841">
        <ele>3</ele>
        <time>2011-04-19T14:51:29Z</time>
      </trkpt>
      <trkpt lat="48.09662" lon="-4.33851">
        <ele>4</ele>
        <time>2011-04-19T14:51:37Z</time>
      </trkpt>
      <trkpt lat="48.09653" lon="-4.33856">
        <ele>5</ele>
        <time>2011-04-19T14:51:47Z</time>
      </trkpt>
      <trkpt lat="48.09632" lon="-4.33845">
        <ele>6</ele>
        <time>2011-04-19T14:52:07Z</time>
      </trkpt>
      <trkpt lat="48.09626" lon="-4.33845">
        <ele>7</ele>
        <time>2011-04-19T14:52:12Z</time>
      </trkpt>
      <trkpt lat="48.09612" lon="-4.33841">
        <ele>8</ele>
        <time>2011-04-19T14:52:23Z</time>
      </trkpt>
      <trkpt lat="48.09602" lon="-4.33831">
        <ele>6</ele>
        <time>2011-04-19T14:52:33Z</time>
      </trkpt>
      <trkpt lat="48.09584" lon="-4.33819">
        <ele>7</ele>
        <time>2011-04-19T14:52:48Z</time>
      </trkpt>
      <trkpt lat="48.09571" lon="-4.33802">
        <ele>10</ele>
        <time>2011-04-19T14:53:05Z</time>
      </trkpt>
      <trkpt lat="48.09556" lon="-4.33791">
        <ele>11</ele>
        <time>2011-04-19T14:53:21Z</time>
      </trkpt>
      <trkpt lat="48.09531" lon="-4.33775">
        <ele>13</ele>
        <time>2011-04-19T14:53:40Z</time>
      </trkpt>
      <trkpt lat="48.09513" lon="-4.33758">
        <ele>15</ele>
        <time>2011-04-19T14:53:55Z</time>
      </trkpt>
      <trkpt lat="48.09507" lon="-4.33755">
        <ele>15</ele>
        <time>2011-04-19T14:54:05Z</time>
      </trkpt>
      <trkpt lat="48.09492" lon="-4.33748">
        <ele>19</ele>
        <time>2011-04-19T14:54:31Z</time>
      </trkpt>
      <trkpt lat="48.09482" lon="-4.33735">
        <ele>21</ele>
        <time>2011-04-19T14:54:44Z</time>
      </trkpt>
      <trkpt lat="48.09471" lon="-4.33725">
        <ele>22</ele>
        <time>2011-04-19T14:54:59Z</time>
      </trkpt>
      <trkpt lat="48.09454" lon="-4.33692">
        <ele>23</ele>
        <time>2011-04-19T14:55:21Z</time>
      </trkpt>
      <trkpt lat="48.09447" lon="-4.33678">
        <ele>22</ele>
        <time>2011-04-19T14:55:31Z</time>
      </trkpt>
      <trkpt lat="48.09435" lon="-4.33666">
        <ele>17</ele>
        <time>2011-04-19T14:55:47Z</time>
      </trkpt>
      <trkpt lat="48.09432" lon="-4.33664">
        <ele>18</ele>
        <time>2011-04-19T14:55:51Z</time>
      </trkpt>
      <trkpt lat="48.0943" lon="-4.33659">
        <ele>18</ele>
        <time>2011-04-19T14:55:54Z</time>
      </trkpt>
      <trkpt lat="48.09421" lon="-4.3364">
        <ele>15</ele>
        <time>2011-04-19T14:56:09Z</time>
      </trkpt>
      <trkpt lat="48.09415" lon="-4.33629">
        <ele>16</ele>
        <time>2011-04-19T14:56:21Z</time>
      </trkpt>
      <trkpt lat="48.09399" lon="-4.33606">
        <ele>14</ele>
        <time>2011-04-19T14:56:33Z</time>
      </trkpt>
      <trkpt lat="48.09399" lon="-4.33608">
        <ele>14</ele>
        <time>2011-04-19T14:56:44Z</time>
      </trkpt>
      <trkpt lat="48.094" lon="-4.33607">
        <ele>14</ele>
        <time>2011-04-19T14:57:23Z</time>
      </trkpt>
      <trkpt lat="48.09404" lon="-4.33612">
        <ele>15</ele>
        <time>2011-04-19T14:57:37Z</time>
      </trkpt>
      <trkpt lat="48.09413" lon="-4.33627">
        <ele>16</ele>
        <time>2011-04-19T14:57:50Z</time>
      </trkpt>
      <trkpt lat="48.09428" lon="-4.33644">
        <ele>16</ele>
        <time>2011-04-19T14:58:04Z</time>
      </trkpt>
      <trkpt lat="48.0944" lon="-4.33645">
        <ele>15</ele>
        <time>2011-04-19T14:58:18Z</time>
      </trkpt>
      <trkpt lat="48.09443" lon="-4.33631">
        <ele>14</ele>
        <time>2011-04-19T14:58:36Z</time>
      </trkpt>
      <trkpt lat="48.09448" lon="-4.33607">
        <ele>11</ele>
        <time>2011-04-19T14:58:55Z</time>
      </trkpt>
      <trkpt lat="48.09455" lon="-4.33578">
        <ele>4</ele>
        <time>2011-04-19T14:59:11Z</time>
      </trkpt>
      <trkpt lat="48.09464" lon="-4.33547">
        <ele>3</ele>
        <time>2011-04-19T14:59:29Z</time>
      </trkpt>
      <trkpt lat="48.0947" lon="-4.33514">
        <ele>2</ele>
        <time>2011-04-19T14:59:47Z</time>
      </trkpt>
      <trkpt lat="48.09475" lon="-4.3349">
        <ele>5</ele>
        <time>2011-04-19T15:00:05Z</time>
      </trkpt>
      <trkpt lat="48.09478" lon="-4.33487">
        <ele>5</ele>
        <time>2011-04-19T15:00:30Z</time>
      </trkpt>
      <trkpt lat="48.09483" lon="-4.3348">
        <ele>6</ele>
        <time>2011-04-19T15:00:44Z</time>
      </trkpt>
      <trkpt lat="48.09489" lon="-4.33459">
        <ele>8</ele>
        <time>2011-04-19T15:00:57Z</time>
      </trkpt>
      <trkpt lat="48.09509" lon="-4.33435">
        <ele>13</ele>
        <time>2011-04-19T15:01:18Z</time>
      </trkpt>
      <trkpt lat="48.0953" lon="-4.33419">
        <ele>13</ele>
        <time>2011-04-19T15:01:38Z</time>
      </trkpt>
      <trkpt lat="48.09531" lon="-4.33416">
        <ele>18</ele>
        <time>2011-04-19T15:01:41Z</time>
      </trkpt>
      <trkpt lat="48.0953" lon="-4.33406">
        <ele>19</ele>
        <time>2011-04-19T15:01:48Z</time>
      </trkpt>
      <trkpt lat="48.09503" lon="-4.33399">
        <ele>18</ele>
        <time>2011-04-19T15:02:11Z</time>
      </trkpt>
      <trkpt lat="48.09499" lon="-4.33397">
        <ele>17</ele>
        <time>2011-04-19T15:02:15Z</time>
      </trkpt>
      <trkpt lat="48.09496" lon="-4.33399">
        <ele>17</ele>
        <time>2011-04-19T15:02:18Z</time>
      </trkpt>
      <trkpt lat="48.09493" lon="-4.33374">
        <ele>18</ele>
        <time>2011-04-19T15:02:35Z</time>
      </trkpt>
      <trkpt lat="48.09501" lon="-4.33358">
        <ele>21</ele>
        <time>2011-04-19T15:02:47Z</time>
      </trkpt>
      <trkpt lat="48.09514" lon="-4.33333">
        <ele>24</ele>
        <time>2011-04-19T15:03:04Z</time>
      </trkpt>
      <trkpt lat="48.09518" lon="-4.3332">
        <ele>24</ele>
        <time>2011-04-19T15:03:12Z</time>
      </trkpt>
      <trkpt lat="48.09507" lon="-4.33292">
        <ele>24</ele>
        <time>2011-04-19T15:03:28Z</time>
      </trkpt>
      <trkpt lat="48.09505" lon="-4.33285">
        <ele>25</ele>
        <time>2011-04-19T15:03:33Z</time>
      </trkpt>
      <trkpt lat="48.09489" lon="-4.33259">
        <ele>24</ele>
        <time>2011-04-19T15:03:50Z</time>
      </trkpt>
      <trkpt lat="48.09484" lon="-4.33253">
        <ele>24</ele>
        <time>2011-04-19T15:03:55Z</time>
      </trkpt>
      <trkpt lat="48.0948" lon="-4.33246">
        <ele>24</ele>
        <time>2011-04-19T15:04:01Z</time>
      </trkpt>
      <trkpt lat="48.09482" lon="-4.33238">
        <ele>24</ele>
        <time>2011-04-19T15:04:04Z</time>
      </trkpt>
      <trkpt lat="48.09484" lon="-4.33235">
        <ele>24</ele>
        <time>2011-04-19T15:04:06Z</time>
      </trkpt>
      <trkpt lat="48.09488" lon="-4.33227">
        <ele>25</ele>
        <time>2011-04-19T15:04:10Z</time>
      </trkpt>
      <trkpt lat="48.09491" lon="-4.33226">
        <ele>25</ele>
        <time>2011-04-19T15:04:12Z</time>
      </trkpt>
      <trkpt lat="48.095" lon="-4.33207">
        <ele>27</ele>
        <time>2011-04-19T15:04:24Z</time>
      </trkpt>
      <trkpt lat="48.09505" lon="-4.33198">
        <ele>27</ele>
        <time>2011-04-19T15:04:30Z</time>
      </trkpt>
      <trkpt lat="48.09508" lon="-4.33191">
        <ele>27</ele>
        <time>2011-04-19T15:04:34Z</time>
      </trkpt>
      <trkpt lat="48.09511" lon="-4.33186">
        <ele>27</ele>
        <time>2011-04-19T15:04:39Z</time>
      </trkpt>
      <trkpt lat="48.09518" lon="-4.33175">
        <ele>28</ele>
        <time>2011-04-19T15:04:45Z</time>
      </trkpt>
      <trkpt lat="48.0952" lon="-4.33167">
        <ele>28</ele>
        <time>2011-04-19T15:04:50Z</time>
      </trkpt>
      <trkpt lat="48.09519" lon="-4.33161">
        <ele>28</ele>
        <time>2011-04-19T15:04:53Z</time>
      </trkpt>
      <trkpt lat="48.09525" lon="-4.33156">
        <ele>28</ele>
        <time>2011-04-19T15:04:57Z</time>
      </trkpt>
      <trkpt lat="48.09532" lon="-4.3314">
        <ele>28</ele>
        <time>2011-04-19T15:05:06Z</time>
      </trkpt>
      <trkpt lat="48.09536" lon="-4.33138">
        <ele>28</ele>
        <time>2011-04-19T15:05:11Z</time>
      </trkpt>
      <trkpt lat="48.09535" lon="-4.33129">
        <ele>28</ele>
        <time>2011-04-19T15:05:16Z</time>
      </trkpt>
      <trkpt lat="48.09534" lon="-4.33123">
        <ele>28</ele>
        <time>2011-04-19T15:05:23Z</time>
      </trkpt>
      <trkpt lat="48.0953" lon="-4.33118">
        <ele>28</ele>
        <time>2011-04-19T15:05:28Z</time>
      </trkpt>
      <trkpt lat="48.09508" lon="-4.33089">
        <ele>28</ele>
        <time>2011-04-19T15:05:53Z</time>
      </trkpt>
      <trkpt lat="48.09507" lon="-4.33083">
        <ele>28</ele>
        <time>2011-04-19T15:06:07Z</time>
      </trkpt>
      <trkpt lat="48.09506" lon="-4.33084">
        <ele>28</ele>
        <time>2011-04-19T15:06:13Z</time>
      </trkpt>
      <trkpt lat="48.09498" lon="-4.33089">
        <ele>28</ele>
        <time>2011-04-19T15:06:33Z</time>
      </trkpt>
      <trkpt lat="48.09497" lon="-4.33081">
        <ele>28</ele>
        <time>2011-04-19T15:06:44Z</time>
      </trkpt>
      <trkpt lat="48.09483" lon="-4.33071">
        <ele>28</ele>
        <time>2011-04-19T15:06:52Z</time>
      </trkpt>
      <trkpt lat="48.09477" lon="-4.33064">
        <ele>28</ele>
        <time>2011-04-19T15:06:56Z</time>
      </trkpt>
      <trkpt lat="48.09465" lon="-4.33039">
        <ele>28</ele>
        <time>2011-04-19T15:07:14Z</time>
      </trkpt>
      <trkpt lat="48.09453" lon="-4.33018">
        <ele>28</ele>
        <time>2011-04-19T15:07:30Z</time>
      </trkpt>
      <trkpt lat="48.0945" lon="-4.33009">
        <ele>28</ele>
        <time>2011-04-19T15:07:38Z</time>
      </trkpt>
      <trkpt lat="48.09431" lon="-4.32987">
        <ele>28</ele>
        <time>2011-04-19T15:07:52Z</time>
      </trkpt>
      <trkpt lat="48.09423" lon="-4.32979">
        <ele>28</ele>
        <time>2011-04-19T15:07:59Z</time>
      </trkpt>
      <trkpt lat="48.09414" lon="-4.32968">
        <ele>28</ele>
        <time>2011-04-19T15:08:14Z</time>
      </trkpt>
      <trkpt lat="48.09387" lon="-4.3294">
        <ele>28</ele>
        <time>2011-04-19T15:08:41Z</time>
      </trkpt>
      <trkpt lat="48.09359" lon="-4.32917">
        <ele>29</ele>
        <time>2011-04-19T15:08:58Z</time>
      </trkpt>
      <trkpt lat="48.09334" lon="-4.32894">
        <ele>30</ele>
        <time>2011-04-19T15:09:21Z</time>
      </trkpt>
      <trkpt lat="48.09329" lon="-4.32886">
        <ele>31</ele>
        <time>2011-04-19T15:09:27Z</time>
      </trkpt>
      <trkpt lat="48.09324" lon="-4.32881">
        <ele>32</ele>
        <time>2011-04-19T15:09:32Z</time>
      </trkpt>
      <trkpt lat="48.09317" lon="-4.3288">
        <ele>32</ele>
        <time>2011-04-19T15:09:46Z</time>
      </trkpt>
      <trkpt lat="48.09312" lon="-4.32876">
        <ele>32</ele>
        <time>2011-04-19T15:09:54Z</time>
      </trkpt>
      <trkpt lat="48.09302" lon="-4.32872">
        <ele>32</ele>
        <time>2011-04-19T15:10:18Z</time>
      </trkpt>
      <trkpt lat="48.09314" lon="-4.32886">
        <ele>32</ele>
        <time>2011-04-19T15:10:45Z</time>
      </trkpt>
      <trkpt lat="48.09316" lon="-4.32882">
        <ele>32</ele>
        <time>2011-04-19T15:10:47Z</time>
      </trkpt>
      <trkpt lat="48.09321" lon="-4.32864">
        <ele>32</ele>
        <time>2011-04-19T15:10:57Z</time>
      </trkpt>
      <trkpt lat="48.09327" lon="-4.3286">
        <ele>32</ele>
        <time>2011-04-19T15:11:02Z</time>
      </trkpt>
      <trkpt lat="48.0933" lon="-4.32816">
        <ele>31</ele>
        <time>2011-04-19T15:11:22Z</time>
      </trkpt>
      <trkpt lat="48.09331" lon="-4.32811">
        <ele>31</ele>
        <time>2011-04-19T15:11:24Z</time>
      </trkpt>
      <trkpt lat="48.09333" lon="-4.32803">
        <ele>31</ele>
        <time>2011-04-19T15:11:27Z</time>
      </trkpt>
      <trkpt lat="48.09332" lon="-4.32783">
        <ele>30</ele>
        <time>2011-04-19T15:11:35Z</time>
      </trkpt>
      <trkpt lat="48.09332" lon="-4.32774">
        <ele>30</ele>
        <time>2011-04-19T15:11:38Z</time>
      </trkpt>
      <trkpt lat="48.09333" lon="-4.3275">
        <ele>28</ele>
        <time>2011-04-19T15:11:49Z</time>
      </trkpt>
      <trkpt lat="48.09332" lon="-4.32735">
        <ele>29</ele>
        <time>2011-04-19T15:12:00Z</time>
      </trkpt>
      <trkpt lat="48.09332" lon="-4.32734">
        <ele>29</ele>
        <time>2011-04-19T15:12:01Z</time>
      </trkpt>
      <trkpt lat="48.09333" lon="-4.32731">
        <ele>29</ele>
        <time>2011-04-19T15:12:03Z</time>
      </trkpt>
      <trkpt lat="48.09337" lon="-4.32708">
        <ele>27</ele>
        <time>2011-04-19T15:12:14Z</time>
      </trkpt>
      <trkpt lat="48.09328" lon="-4.32698">
        <ele>30</ele>
        <time>2011-04-19T15:12:18Z</time>
      </trkpt>
      <trkpt lat="48.09334" lon="-4.32674">
        <ele>28</ele>
        <time>2011-04-19T15:12:26Z</time>
      </trkpt>
      <trkpt lat="48.09337" lon="-4.32669">
        <ele>28</ele>
        <time>2011-04-19T15:12:28Z</time>
      </trkpt>
      <trkpt lat="48.0934" lon="-4.32663">
        <ele>27</ele>
        <time>2011-04-19T15:12:32Z</time>
      </trkpt>
      <trkpt lat="48.09344" lon="-4.32649">
        <ele>26</ele>
        <time>2011-04-19T15:12:39Z</time>
      </trkpt>
      <trkpt lat="48.09343" lon="-4.32643">
        <ele>25</ele>
        <time>2011-04-19T15:12:42Z</time>
      </trkpt>
      <trkpt lat="48.0934" lon="-4.32631">
        <ele>24</ele>
        <time>2011-04-19T15:12:48Z</time>
      </trkpt>
      <trkpt lat="48.09342" lon="-4.32628">
        <ele>24</ele>
        <time>2011-04-19T15:12:50Z</time>
      </trkpt>
      <trkpt lat="48.09342" lon="-4.32613">
        <ele>24</ele>
        <time>2011-04-19T15:13:02Z</time>
      </trkpt>
      <trkpt lat="48.09341" lon="-4.32612">
        <ele>24</ele>
        <time>2011-04-19T15:13:08Z</time>
      </trkpt>
      <trkpt lat="48.09341" lon="-4.32609">
        <ele>23</ele>
        <time>2011-04-19T15:13:11Z</time>
      </trkpt>
      <trkpt lat="48.09343" lon="-4.32612">
        <ele>24</ele>
        <time>2011-04-19T15:13:18Z</time>
      </trkpt>
      <trkpt lat="48.09346" lon="-4.3261">
        <ele>23</ele>
        <time>2011-04-19T15:13:20Z</time>
      </trkpt>
      <trkpt lat="48.0935" lon="-4.32604">
        <ele>23</ele>
        <time>2011-04-19T15:13:24Z</time>
      </trkpt>
      <trkpt lat="48.09351" lon="-4.326">
        <ele>23</ele>
        <time>2011-04-19T15:13:26Z</time>
      </trkpt>
      <trkpt lat="48.09352" lon="-4.32587">
        <ele>23</ele>
        <time>2011-04-19T15:13:30Z</time>
      </trkpt>
      <trkpt lat="48.09354" lon="-4.32573">
        <ele>21</ele>
        <time>2011-04-19T15:13:35Z</time>
      </trkpt>
      <trkpt lat="48.09352" lon="-4.32547">
        <ele>20</ele>
        <time>2011-04-19T15:13:48Z</time>
      </trkpt>
      <trkpt lat="48.09358" lon="-4.32527">
        <ele>20</ele>
        <time>2011-04-19T15:13:56Z</time>
      </trkpt>
      <trkpt lat="48.09359" lon="-4.32523">
        <ele>20</ele>
        <time>2011-04-19T15:13:58Z</time>
      </trkpt>
      <trkpt lat="48.09356" lon="-4.32502">
        <ele>20</ele>
        <time>2011-04-19T15:14:05Z</time>
      </trkpt>
      <trkpt lat="48.09355" lon="-4.32493">
        <ele>17</ele>
        <time>2011-04-19T15:14:10Z</time>
      </trkpt>
      <trkpt lat="48.09359" lon="-4.32478">
        <ele>16</ele>
        <time>2011-04-19T15:14:18Z</time>
      </trkpt>
      <trkpt lat="48.09362" lon="-4.32446">
        <ele>15</ele>
        <time>2011-04-19T15:14:30Z</time>
      </trkpt>
      <trkpt lat="48.09354" lon="-4.32446">
        <ele>15</ele>
        <time>2011-04-19T15:14:54Z</time>
      </trkpt>
      <trkpt lat="48.09355" lon="-4.32448">
        <ele>15</ele>
        <time>2011-04-19T15:14:57Z</time>
      </trkpt>
      <trkpt lat="48.09361" lon="-4.32432">
        <ele>15</ele>
        <time>2011-04-19T15:15:11Z</time>
      </trkpt>
      <trkpt lat="48.09363" lon="-4.32422">
        <ele>14</ele>
        <time>2011-04-19T15:15:21Z</time>
      </trkpt>
      <trkpt lat="48.09363" lon="-4.3241">
        <ele>13</ele>
        <time>2011-04-19T15:15:34Z</time>
      </trkpt>
      <trkpt lat="48.09365" lon="-4.32423">
        <ele>14</ele>
        <time>2011-04-19T15:15:47Z</time>
      </trkpt>
      <trkpt lat="48.09366" lon="-4.32436">
        <ele>15</ele>
        <time>2011-04-19T15:15:57Z</time>
      </trkpt>
      <trkpt lat="48.09367" lon="-4.32443">
        <ele>15</ele>
        <time>2011-04-19T15:16:00Z</time>
      </trkpt>
      <trkpt lat="48.09366" lon="-4.32449">
        <ele>15</ele>
        <time>2011-04-19T15:16:03Z</time>
      </trkpt>
      <trkpt lat="48.09368" lon="-4.32458">
        <ele>15</ele>
        <time>2011-04-19T15:16:08Z</time>
      </trkpt>
      <trkpt lat="48.09363" lon="-4.32454">
        <ele>15</ele>
        <time>2011-04-19T15:16:20Z</time>
      </trkpt>
      <trkpt lat="48.09346" lon="-4.32444">
        <ele>15</ele>
        <time>2011-04-19T15:16:28Z</time>
      </trkpt>
      <trkpt lat="48.09334" lon="-4.32436">
        <ele>15</ele>
        <time>2011-04-19T15:16:36Z</time>
      </trkpt>
      <trkpt lat="48.09326" lon="-4.32434">
        <ele>20</ele>
        <time>2011-04-19T15:16:42Z</time>
      </trkpt>
      <trkpt lat="48.09315" lon="-4.3242">
        <ele>20</ele>
        <time>2011-04-19T15:16:53Z</time>
      </trkpt>
      <trkpt lat="48.09304" lon="-4.32407">
        <ele>21</ele>
        <time>2011-04-19T15:17:02Z</time>
      </trkpt>
      <trkpt lat="48.09297" lon="-4.32378">
        <ele>22</ele>
        <time>2011-04-19T15:17:16Z</time>
      </trkpt>
      <trkpt lat="48.09288" lon="-4.32353">
        <ele>23</ele>
        <time>2011-04-19T15:17:30Z</time>
      </trkpt>
      <trkpt lat="48.09284" lon="-4.32341">
        <ele>23</ele>
        <time>2011-04-19T15:17:35Z</time>
      </trkpt>
      <trkpt lat="48.09282" lon="-4.32331">
        <ele>23</ele>
        <time>2011-04-19T15:17:43Z</time>
      </trkpt>
      <trkpt lat="48.09281" lon="-4.32327">
        <ele>23</ele>
        <time>2011-04-19T15:17:45Z</time>
      </trkpt>
      <trkpt lat="48.09277" lon="-4.32315">
        <ele>23</ele>
        <time>2011-04-19T15:17:53Z</time>
      </trkpt>
      <trkpt lat="48.09271" lon="-4.32294">
        <ele>23</ele>
        <time>2011-04-19T15:18:04Z</time>
      </trkpt>
      <trkpt lat="48.09268" lon="-4.32276">
        <ele>22</ele>
        <time>2011-04-19T15:18:24Z</time>
      </trkpt>
      <trkpt lat="48.09257" lon="-4.32238">
        <ele>21</ele>
        <time>2011-04-19T15:18:44Z</time>
      </trkpt>
      <trkpt lat="48.09242" lon="-4.32213">
        <ele>24</ele>
        <time>2011-04-19T15:18:54Z</time>
      </trkpt>
      <trkpt lat="48.09235" lon="-4.32208">
        <ele>25</ele>
        <time>2011-04-19T15:18:58Z</time>
      </trkpt>
      <trkpt lat="48.09231" lon="-4.32204">
        <ele>25</ele>
        <time>2011-04-19T15:19:01Z</time>
      </trkpt>
      <trkpt lat="48.09229" lon="-4.32199">
        <ele>25</ele>
        <time>2011-04-19T15:19:13Z</time>
      </trkpt>
      <trkpt lat="48.09211" lon="-4.32194">
        <ele>25</ele>
        <time>2011-04-19T15:19:29Z</time>
      </trkpt>
      <trkpt lat="48.09206" lon="-4.32193">
        <ele>25</ele>
        <time>2011-04-19T15:19:33Z</time>
      </trkpt>
      <trkpt lat="48.09195" lon="-4.32193">
        <ele>25</ele>
        <time>2011-04-19T15:19:40Z</time>
      </trkpt>
      <trkpt lat="48.09173" lon="-4.32187">
        <ele>24</ele>
        <time>2011-04-19T15:19:58Z</time>
      </trkpt>
      <trkpt lat="48.09148" lon="-4.3218">
        <ele>26</ele>
        <time>2011-04-19T15:20:16Z</time>
      </trkpt>
      <trkpt lat="48.09132" lon="-4.32157">
        <ele>24</ele>
        <time>2011-04-19T15:20:30Z</time>
      </trkpt>
      <trkpt lat="48.0913" lon="-4.32154">
        <ele>24</ele>
        <time>2011-04-19T15:20:33Z</time>
      </trkpt>
      <trkpt lat="48.09129" lon="-4.32148">
        <ele>24</ele>
        <time>2011-04-19T15:20:37Z</time>
      </trkpt>
      <trkpt lat="48.09128" lon="-4.32142">
        <ele>24</ele>
        <time>2011-04-19T15:20:40Z</time>
      </trkpt>
      <trkpt lat="48.09135" lon="-4.3212">
        <ele>23</ele>
        <time>2011-04-19T15:20:51Z</time>
      </trkpt>
      <trkpt lat="48.09137" lon="-4.32112">
        <ele>23</ele>
        <time>2011-04-19T15:20:55Z</time>
      </trkpt>
      <trkpt lat="48.09138" lon="-4.32071">
        <ele>23</ele>
        <time>2011-04-19T15:21:14Z</time>
      </trkpt>
      <trkpt lat="48.09139" lon="-4.32066">
        <ele>23</ele>
        <time>2011-04-19T15:21:16Z</time>
      </trkpt>
      <trkpt lat="48.0914" lon="-4.32062">
        <ele>23</ele>
        <time>2011-04-19T15:21:19Z</time>
      </trkpt>
      <trkpt lat="48.09137" lon="-4.32048">
        <ele>23</ele>
        <time>2011-04-19T15:21:28Z</time>
      </trkpt>
      <trkpt lat="48.09136" lon="-4.32037">
        <ele>23</ele>
        <time>2011-04-19T15:21:40Z</time>
      </trkpt>
      <trkpt lat="48.09131" lon="-4.32036">
        <ele>23</ele>
        <time>2011-04-19T15:22:11Z</time>
      </trkpt>
      <trkpt lat="48.09132" lon="-4.32038">
        <ele>23</ele>
        <time>2011-04-19T15:22:19Z</time>
      </trkpt>
      <trkpt lat="48.09135" lon="-4.32036">
        <ele>23</ele>
        <time>2011-04-19T15:22:36Z</time>
      </trkpt>
      <trkpt lat="48.09129" lon="-4.32039">
        <ele>23</ele>
        <time>2011-04-19T15:22:51Z</time>
      </trkpt>
      <trkpt lat="48.09123" lon="-4.32037">
        <ele>23</ele>
        <time>2011-04-19T15:23:08Z</time>
      </trkpt>
      <trkpt lat="48.09122" lon="-4.32039">
        <ele>23</ele>
        <time>2011-04-19T15:23:28Z</time>
      </trkpt>
      <trkpt lat="48.09132" lon="-4.3204">
        <ele>23</ele>
        <time>2011-04-19T15:23:49Z</time>
      </trkpt>
      <trkpt lat="48.09138" lon="-4.32039">
        <ele>23</ele>
        <time>2011-04-19T15:24:14Z</time>
      </trkpt>
      <trkpt lat="48.09125" lon="-4.32036">
        <ele>23</ele>
        <time>2011-04-19T15:24:29Z</time>
      </trkpt>
      <trkpt lat="48.09123" lon="-4.32036">
        <ele>23</ele>
        <time>2011-04-19T15:24:54Z</time>
      </trkpt>
      <trkpt lat="48.09123" lon="-4.32036">
        <ele>23</ele>
        <time>2011-04-19T15:25:51Z</time>
      </trkpt>
      <trkpt lat="48.09125" lon="-4.32037">
        <ele>23</ele>
        <time>2011-04-19T15:26:19Z</time>
      </trkpt>
      <trkpt lat="48.09137" lon="-4.32046">
        <ele>23</ele>
        <time>2011-04-19T15:26:35Z</time>
      </trkpt>
      <trkpt lat="48.0914" lon="-4.32043">
        <ele>23</ele>
        <time>2011-04-19T15:26:41Z</time>
      </trkpt>
      <trkpt lat="48.09146" lon="-4.32039">
        <ele>22</ele>
        <time>2011-04-19T15:26:59Z</time>
      </trkpt>
      <trkpt lat="48.09145" lon="-4.32034">
        <ele>22</ele>
        <time>2011-04-19T15:27:25Z</time>
      </trkpt>
      <trkpt lat="48.09141" lon="-4.32037">
        <ele>23</ele>
        <time>2011-04-19T15:28:03Z</time>
      </trkpt>
      <trkpt lat="48.09141" lon="-4.32037">
        <ele>23</ele>
        <time>2011-04-19T15:28:04Z</time>
      </trkpt>
      <trkpt lat="48.09136" lon="-4.32034">
        <ele>23</ele>
        <time>2011-04-19T15:28:09Z</time>
      </trkpt>
      <trkpt lat="48.09123" lon="-4.32036">
        <ele>23</ele>
        <time>2011-04-19T15:28:29Z</time>
      </trkpt>
      <trkpt lat="48.09123" lon="-4.32035">
        <ele>23</ele>
        <time>2011-04-19T15:29:03Z</time>
      </trkpt>
      <trkpt lat="48.0914" lon="-4.3206">
        <ele>23</ele>
        <time>2011-04-19T15:29:22Z</time>
      </trkpt>
      <trkpt lat="48.09154" lon="-4.32064">
        <ele>22</ele>
        <time>2011-04-19T15:29:34Z</time>
      </trkpt>
      <trkpt lat="48.09161" lon="-4.3205">
        <ele>22</ele>
        <time>2011-04-19T15:29:46Z</time>
      </trkpt>
      <trkpt lat="48.09169" lon="-4.3204">
        <ele>20</ele>
        <time>2011-04-19T15:29:57Z</time>
      </trkpt>
      <trkpt lat="48.09173" lon="-4.3204">
        <ele>20</ele>
        <time>2011-04-19T15:30:00Z</time>
      </trkpt>
      <trkpt lat="48.0918" lon="-4.32047">
        <ele>20</ele>
        <time>2011-04-19T15:30:11Z</time>
      </trkpt>
      <trkpt lat="48.09187" lon="-4.32063">
        <ele>20</ele>
        <time>2011-04-19T15:30:27Z</time>
      </trkpt>
    </trkseg>
  </trk>
</gpx>